<?xml version="1.0" encoding="UTF-8" standalone="no" ?>
<gpx xmlns="http://www.topografix.com/GPX/1/1" xmlns:xsi="http://www.w3.org/2001/XMLSchema-instance" xsi:schemaLocation="http://www.topografix.com/GPX/1/1 http://www.topografix.com/GPX/1/1/gpx.xsd" version="1.1" creator="VisuGPX - https://www.visugpx.com">
  <metadata>
    <name>La Bâtie-Neuve Cyclisme</name>
    <desc><![CDATA[parcours de vincent autour de la batie]]></desc>
  </metadata>
  <trk>
    <name><![CDATA[La Bâtie-Neuve Cyclisme]]></name>
    <trkseg>
      <trkpt lat="44.56523" lon="6.20524">
        <ele>853.20001220703</ele>
        <time>2021-06-10T05:51:14.000Z</time>
      </trkpt>
      <trkpt lat="44.56529" lon="6.20478">
        <ele>852.40002441406</ele>
        <time>2021-06-10T05:51:14.011Z</time>
      </trkpt>
      <trkpt lat="44.56526" lon="6.2048">
        <ele>852.40002441406</ele>
        <time>2021-06-10T05:51:14.023Z</time>
      </trkpt>
      <trkpt lat="44.56528" lon="6.20474">
        <ele>852.20001220703</ele>
        <time>2021-06-10T05:51:14.036Z</time>
      </trkpt>
      <trkpt lat="44.56531" lon="6.20477">
        <ele>852.20001220703</ele>
        <time>2021-06-10T05:51:14.050Z</time>
      </trkpt>
      <trkpt lat="44.56526" lon="6.20487">
        <ele>852</ele>
        <time>2021-06-10T05:51:14.067Z</time>
      </trkpt>
      <trkpt lat="44.56526" lon="6.20495">
        <ele>852</ele>
        <time>2021-06-10T05:51:14.086Z</time>
      </trkpt>
      <trkpt lat="44.56527" lon="6.20499">
        <ele>852</ele>
        <time>2021-06-10T05:51:14.106Z</time>
      </trkpt>
      <trkpt lat="44.56537" lon="6.20507">
        <ele>852</ele>
        <time>2021-06-10T05:51:14.130Z</time>
      </trkpt>
      <trkpt lat="44.56551" lon="6.20508">
        <ele>852.59997558594</ele>
        <time>2021-06-10T05:51:14.158Z</time>
      </trkpt>
      <trkpt lat="44.56568" lon="6.20502">
        <ele>853.20001220703</ele>
        <time>2021-06-10T05:51:14.192Z</time>
      </trkpt>
      <trkpt lat="44.56586" lon="6.20504">
        <ele>853.20001220703</ele>
        <time>2021-06-10T05:51:14.232Z</time>
      </trkpt>
      <trkpt lat="44.56619" lon="6.20514">
        <ele>853.20001220703</ele>
        <time>2021-06-10T05:51:14.283Z</time>
      </trkpt>
      <trkpt lat="44.5663" lon="6.20514">
        <ele>855.20001220703</ele>
        <time>2021-06-10T05:51:14.338Z</time>
      </trkpt>
      <trkpt lat="44.56645" lon="6.2051">
        <ele>856</ele>
        <time>2021-06-10T05:51:14.398Z</time>
      </trkpt>
      <trkpt lat="44.56687" lon="6.2049">
        <ele>859.20001220703</ele>
        <time>2021-06-10T05:51:14.472Z</time>
      </trkpt>
      <trkpt lat="44.56692" lon="6.20479">
        <ele>859.79998779297</ele>
        <time>2021-06-10T05:51:14.549Z</time>
      </trkpt>
      <trkpt lat="44.56689" lon="6.20462">
        <ele>860</ele>
        <time>2021-06-10T05:51:14.630Z</time>
      </trkpt>
      <trkpt lat="44.56679" lon="6.2044">
        <ele>860</ele>
        <time>2021-06-10T05:51:14.718Z</time>
      </trkpt>
      <trkpt lat="44.56674" lon="6.20435">
        <ele>859.40002441406</ele>
        <time>2021-06-10T05:51:14.808Z</time>
      </trkpt>
      <trkpt lat="44.56653" lon="6.20436">
        <ele>858</ele>
        <time>2021-06-10T05:51:14.904Z</time>
      </trkpt>
      <trkpt lat="44.56621" lon="6.20433">
        <ele>858</ele>
        <time>2021-06-10T05:51:15.011Z</time>
      </trkpt>
      <trkpt lat="44.56611" lon="6.20429">
        <ele>858</ele>
        <time>2021-06-10T05:51:15.121Z</time>
      </trkpt>
      <trkpt lat="44.56598" lon="6.20419">
        <ele>854.59997558594</ele>
        <time>2021-06-10T05:51:15.236Z</time>
      </trkpt>
      <trkpt lat="44.56588" lon="6.20415">
        <ele>854.59997558594</ele>
        <time>2021-06-10T05:51:15.355Z</time>
      </trkpt>
      <trkpt lat="44.56548" lon="6.20399">
        <ele>852.79998779297</ele>
        <time>2021-06-10T05:51:15.487Z</time>
      </trkpt>
      <trkpt lat="44.56532" lon="6.20394">
        <ele>852.79998779297</ele>
        <time>2021-06-10T05:51:15.625Z</time>
      </trkpt>
      <trkpt lat="44.56528" lon="6.20395">
        <ele>852.40002441406</ele>
        <time>2021-06-10T05:51:15.764Z</time>
      </trkpt>
      <trkpt lat="44.56521" lon="6.20402">
        <ele>852.40002441406</ele>
        <time>2021-06-10T05:51:15.906Z</time>
      </trkpt>
      <trkpt lat="44.5651" lon="6.20418">
        <ele>852.40002441406</ele>
        <time>2021-06-10T05:51:16.053Z</time>
      </trkpt>
      <trkpt lat="44.56497" lon="6.20422">
        <ele>851.79998779297</ele>
        <time>2021-06-10T05:51:16.204Z</time>
      </trkpt>
      <trkpt lat="44.56443" lon="6.20406">
        <ele>851.79998779297</ele>
        <time>2021-06-10T05:51:16.373Z</time>
      </trkpt>
      <trkpt lat="44.56431" lon="6.20401">
        <ele>850.40002441406</ele>
        <time>2021-06-10T05:51:16.547Z</time>
      </trkpt>
      <trkpt lat="44.56426" lon="6.20396">
        <ele>850.40002441406</ele>
        <time>2021-06-10T05:51:16.723Z</time>
      </trkpt>
      <trkpt lat="44.56424" lon="6.20392">
        <ele>850.40002441406</ele>
        <time>2021-06-10T05:51:16.900Z</time>
      </trkpt>
      <trkpt lat="44.56424" lon="6.20373">
        <ele>850.40002441406</ele>
        <time>2021-06-10T05:51:17.081Z</time>
      </trkpt>
      <trkpt lat="44.56422" lon="6.20362">
        <ele>851</ele>
        <time>2021-06-10T05:51:17.265Z</time>
      </trkpt>
      <trkpt lat="44.56416" lon="6.20367">
        <ele>851</ele>
        <time>2021-06-10T05:51:17.451Z</time>
      </trkpt>
      <trkpt lat="44.56411" lon="6.20391">
        <ele>851</ele>
        <time>2021-06-10T05:51:17.643Z</time>
      </trkpt>
      <trkpt lat="44.5636" lon="6.20802">
        <ele>851</ele>
        <time>2021-06-10T05:51:17.932Z</time>
      </trkpt>
      <trkpt lat="44.56348" lon="6.20837">
        <ele>847</ele>
        <time>2021-06-10T05:51:18.230Z</time>
      </trkpt>
      <trkpt lat="44.56328" lon="6.2087">
        <ele>844.59997558594</ele>
        <time>2021-06-10T05:51:18.538Z</time>
      </trkpt>
      <trkpt lat="44.56185" lon="6.21084">
        <ele>831.20001220703</ele>
        <time>2021-06-10T05:51:18.915Z</time>
      </trkpt>
      <trkpt lat="44.56153" lon="6.21121">
        <ele>831.20001220703</ele>
        <time>2021-06-10T05:51:19.305Z</time>
      </trkpt>
      <trkpt lat="44.56149" lon="6.21124">
        <ele>831.20001220703</ele>
        <time>2021-06-10T05:51:19.697Z</time>
      </trkpt>
      <trkpt lat="44.5614" lon="6.21125">
        <ele>830.79998779297</ele>
        <time>2021-06-10T05:51:20.092Z</time>
      </trkpt>
      <trkpt lat="44.56127" lon="6.21119">
        <ele>830.79998779297</ele>
        <time>2021-06-10T05:51:20.491Z</time>
      </trkpt>
      <trkpt lat="44.56107" lon="6.21106">
        <ele>826</ele>
        <time>2021-06-10T05:51:20.898Z</time>
      </trkpt>
      <trkpt lat="44.56093" lon="6.211">
        <ele>824.20001220703</ele>
        <time>2021-06-10T05:51:21.310Z</time>
      </trkpt>
      <trkpt lat="44.56063" lon="6.21106">
        <ele>824.20001220703</ele>
        <time>2021-06-10T05:51:21.732Z</time>
      </trkpt>
      <trkpt lat="44.56051" lon="6.21107">
        <ele>823.59997558594</ele>
        <time>2021-06-10T05:51:22.157Z</time>
      </trkpt>
      <trkpt lat="44.56029" lon="6.21112">
        <ele>823</ele>
        <time>2021-06-10T05:51:22.590Z</time>
      </trkpt>
      <trkpt lat="44.56023" lon="6.21112">
        <ele>823</ele>
        <time>2021-06-10T05:51:23.025Z</time>
      </trkpt>
      <trkpt lat="44.55998" lon="6.21102">
        <ele>823</ele>
        <time>2021-06-10T05:51:23.468Z</time>
      </trkpt>
      <trkpt lat="44.55991" lon="6.21102">
        <ele>820.40002441406</ele>
        <time>2021-06-10T05:51:23.913Z</time>
      </trkpt>
      <trkpt lat="44.55966" lon="6.21113">
        <ele>820.40002441406</ele>
        <time>2021-06-10T05:51:24.367Z</time>
      </trkpt>
      <trkpt lat="44.55953" lon="6.21113">
        <ele>818.20001220703</ele>
        <time>2021-06-10T05:51:24.825Z</time>
      </trkpt>
      <trkpt lat="44.55916" lon="6.21097">
        <ele>816.20001220703</ele>
        <time>2021-06-10T05:51:25.296Z</time>
      </trkpt>
      <trkpt lat="44.55889" lon="6.21094">
        <ele>816.20001220703</ele>
        <time>2021-06-10T05:51:25.776Z</time>
      </trkpt>
      <trkpt lat="44.55863" lon="6.21087">
        <ele>814.20001220703</ele>
        <time>2021-06-10T05:51:26.265Z</time>
      </trkpt>
      <trkpt lat="44.55856" lon="6.21084">
        <ele>814.20001220703</ele>
        <time>2021-06-10T05:51:26.756Z</time>
      </trkpt>
      <trkpt lat="44.55833" lon="6.2107">
        <ele>814.20001220703</ele>
        <time>2021-06-10T05:51:27.255Z</time>
      </trkpt>
      <trkpt lat="44.55812" lon="6.21043">
        <ele>814.20001220703</ele>
        <time>2021-06-10T05:51:27.763Z</time>
      </trkpt>
      <trkpt lat="44.55807" lon="6.21039">
        <ele>811.40002441406</ele>
        <time>2021-06-10T05:51:28.273Z</time>
      </trkpt>
      <trkpt lat="44.55779" lon="6.21034">
        <ele>811.40002441406</ele>
        <time>2021-06-10T05:51:28.792Z</time>
      </trkpt>
      <trkpt lat="44.55758" lon="6.21025">
        <ele>808</ele>
        <time>2021-06-10T05:51:29.319Z</time>
      </trkpt>
      <trkpt lat="44.55738" lon="6.21013">
        <ele>808</ele>
        <time>2021-06-10T05:51:29.853Z</time>
      </trkpt>
      <trkpt lat="44.55734" lon="6.21008">
        <ele>806.79998779297</ele>
        <time>2021-06-10T05:51:30.389Z</time>
      </trkpt>
      <trkpt lat="44.55725" lon="6.20984">
        <ele>806.59997558594</ele>
        <time>2021-06-10T05:51:30.931Z</time>
      </trkpt>
      <trkpt lat="44.5571" lon="6.20966">
        <ele>806.59997558594</ele>
        <time>2021-06-10T05:51:31.480Z</time>
      </trkpt>
      <trkpt lat="44.55691" lon="6.20938">
        <ele>806.59997558594</ele>
        <time>2021-06-10T05:51:32.037Z</time>
      </trkpt>
      <trkpt lat="44.5569" lon="6.20932">
        <ele>804.40002441406</ele>
        <time>2021-06-10T05:51:32.596Z</time>
      </trkpt>
      <trkpt lat="44.55684" lon="6.20864">
        <ele>802.40002441406</ele>
        <time>2021-06-10T05:51:33.171Z</time>
      </trkpt>
      <trkpt lat="44.55678" lon="6.20843">
        <ele>801.79998779297</ele>
        <time>2021-06-10T05:51:33.751Z</time>
      </trkpt>
      <trkpt lat="44.55667" lon="6.20825">
        <ele>801</ele>
        <time>2021-06-10T05:51:34.337Z</time>
      </trkpt>
      <trkpt lat="44.55651" lon="6.2081">
        <ele>800.40002441406</ele>
        <time>2021-06-10T05:51:34.929Z</time>
      </trkpt>
      <trkpt lat="44.55573" lon="6.20745">
        <ele>800.40002441406</ele>
        <time>2021-06-10T05:51:35.551Z</time>
      </trkpt>
      <trkpt lat="44.55518" lon="6.20707">
        <ele>800.40002441406</ele>
        <time>2021-06-10T05:51:36.193Z</time>
      </trkpt>
      <trkpt lat="44.55479" lon="6.20674">
        <ele>789.79998779297</ele>
        <time>2021-06-10T05:51:36.850Z</time>
      </trkpt>
      <trkpt lat="44.55473" lon="6.2067">
        <ele>789.79998779297</ele>
        <time>2021-06-10T05:51:37.509Z</time>
      </trkpt>
      <trkpt lat="44.55448" lon="6.20665">
        <ele>789.40002441406</ele>
        <time>2021-06-10T05:51:38.176Z</time>
      </trkpt>
      <trkpt lat="44.55408" lon="6.20671">
        <ele>788.40002441406</ele>
        <time>2021-06-10T05:51:38.856Z</time>
      </trkpt>
      <trkpt lat="44.55385" lon="6.20668">
        <ele>788.40002441406</ele>
        <time>2021-06-10T05:51:39.544Z</time>
      </trkpt>
      <trkpt lat="44.55321" lon="6.20656">
        <ele>785.79998779297</ele>
        <time>2021-06-10T05:51:40.253Z</time>
      </trkpt>
      <trkpt lat="44.55292" lon="6.20657">
        <ele>785.79998779297</ele>
        <time>2021-06-10T05:51:40.971Z</time>
      </trkpt>
      <trkpt lat="44.55266" lon="6.20663">
        <ele>785.79998779297</ele>
        <time>2021-06-10T05:51:41.698Z</time>
      </trkpt>
      <trkpt lat="44.55262" lon="6.20664">
        <ele>783.59997558594</ele>
        <time>2021-06-10T05:51:42.426Z</time>
      </trkpt>
      <trkpt lat="44.55236" lon="6.20689">
        <ele>783.59997558594</ele>
        <time>2021-06-10T05:51:43.165Z</time>
      </trkpt>
      <trkpt lat="44.55218" lon="6.20701">
        <ele>783.59997558594</ele>
        <time>2021-06-10T05:51:43.910Z</time>
      </trkpt>
      <trkpt lat="44.55188" lon="6.20712">
        <ele>783.59997558594</ele>
        <time>2021-06-10T05:51:44.665Z</time>
      </trkpt>
      <trkpt lat="44.55136" lon="6.20721">
        <ele>779.40002441406</ele>
        <time>2021-06-10T05:51:45.438Z</time>
      </trkpt>
      <trkpt lat="44.55098" lon="6.20736">
        <ele>778.40002441406</ele>
        <time>2021-06-10T05:51:46.223Z</time>
      </trkpt>
      <trkpt lat="44.55093" lon="6.20739">
        <ele>778.40002441406</ele>
        <time>2021-06-10T05:51:47.010Z</time>
      </trkpt>
      <trkpt lat="44.5507" lon="6.2077">
        <ele>778.40002441406</ele>
        <time>2021-06-10T05:51:47.808Z</time>
      </trkpt>
      <trkpt lat="44.55057" lon="6.20781">
        <ele>777.40002441406</ele>
        <time>2021-06-10T05:51:48.611Z</time>
      </trkpt>
      <trkpt lat="44.55027" lon="6.20793">
        <ele>776.79998779297</ele>
        <time>2021-06-10T05:51:49.424Z</time>
      </trkpt>
      <trkpt lat="44.55008" lon="6.20806">
        <ele>776.79998779297</ele>
        <time>2021-06-10T05:51:50.244Z</time>
      </trkpt>
      <trkpt lat="44.5498" lon="6.20833">
        <ele>776.79998779297</ele>
        <time>2021-06-10T05:51:51.075Z</time>
      </trkpt>
      <trkpt lat="44.54971" lon="6.20837">
        <ele>775</ele>
        <time>2021-06-10T05:51:51.909Z</time>
      </trkpt>
      <trkpt lat="44.54961" lon="6.20838">
        <ele>775</ele>
        <time>2021-06-10T05:51:52.746Z</time>
      </trkpt>
      <trkpt lat="44.54911" lon="6.20838">
        <ele>773.59997558594</ele>
        <time>2021-06-10T05:51:53.600Z</time>
      </trkpt>
      <trkpt lat="44.54873" lon="6.20856">
        <ele>772.59997558594</ele>
        <time>2021-06-10T05:51:54.467Z</time>
      </trkpt>
      <trkpt lat="44.54828" lon="6.20851">
        <ele>771.40002441406</ele>
        <time>2021-06-10T05:51:55.349Z</time>
      </trkpt>
      <trkpt lat="44.54808" lon="6.20853">
        <ele>771.40002441406</ele>
        <time>2021-06-10T05:51:56.237Z</time>
      </trkpt>
      <trkpt lat="44.54775" lon="6.20866">
        <ele>770.20001220703</ele>
        <time>2021-06-10T05:51:57.136Z</time>
      </trkpt>
      <trkpt lat="44.54741" lon="6.2089">
        <ele>769</ele>
        <time>2021-06-10T05:51:58.048Z</time>
      </trkpt>
      <trkpt lat="44.54723" lon="6.20893">
        <ele>769</ele>
        <time>2021-06-10T05:51:58.966Z</time>
      </trkpt>
      <trkpt lat="44.54709" lon="6.20891">
        <ele>768.20001220703</ele>
        <time>2021-06-10T05:51:59.888Z</time>
      </trkpt>
      <trkpt lat="44.54681" lon="6.2088">
        <ele>768.20001220703</ele>
        <time>2021-06-10T05:52:00.820Z</time>
      </trkpt>
      <trkpt lat="44.54671" lon="6.2088">
        <ele>767.20001220703</ele>
        <time>2021-06-10T05:52:01.755Z</time>
      </trkpt>
      <trkpt lat="44.54635" lon="6.20888">
        <ele>766.40002441406</ele>
        <time>2021-06-10T05:52:02.702Z</time>
      </trkpt>
      <trkpt lat="44.54601" lon="6.20893">
        <ele>765.79998779297</ele>
        <time>2021-06-10T05:52:03.660Z</time>
      </trkpt>
      <trkpt lat="44.54559" lon="6.20895">
        <ele>765.79998779297</ele>
        <time>2021-06-10T05:52:04.632Z</time>
      </trkpt>
      <trkpt lat="44.54534" lon="6.20887">
        <ele>765.79998779297</ele>
        <time>2021-06-10T05:52:05.613Z</time>
      </trkpt>
      <trkpt lat="44.54498" lon="6.20887">
        <ele>765.79998779297</ele>
        <time>2021-06-10T05:52:06.605Z</time>
      </trkpt>
      <trkpt lat="44.54486" lon="6.20884">
        <ele>767.59997558594</ele>
        <time>2021-06-10T05:52:07.601Z</time>
      </trkpt>
      <trkpt lat="44.5447" lon="6.20873">
        <ele>767.59997558594</ele>
        <time>2021-06-10T05:52:08.603Z</time>
      </trkpt>
      <trkpt lat="44.54424" lon="6.2083">
        <ele>767.59997558594</ele>
        <time>2021-06-10T05:52:09.623Z</time>
      </trkpt>
      <trkpt lat="44.54398" lon="6.2081">
        <ele>767.59997558594</ele>
        <time>2021-06-10T05:52:10.653Z</time>
      </trkpt>
      <trkpt lat="44.54383" lon="6.20798">
        <ele>770.59997558594</ele>
        <time>2021-06-10T05:52:11.689Z</time>
      </trkpt>
      <trkpt lat="44.54362" lon="6.20787">
        <ele>770.20001220703</ele>
        <time>2021-06-10T05:52:12.732Z</time>
      </trkpt>
      <trkpt lat="44.5435" lon="6.20768">
        <ele>770.20001220703</ele>
        <time>2021-06-10T05:52:13.781Z</time>
      </trkpt>
      <trkpt lat="44.54343" lon="6.20744">
        <ele>769.59997558594</ele>
        <time>2021-06-10T05:52:14.836Z</time>
      </trkpt>
      <trkpt lat="44.5433" lon="6.20728">
        <ele>769.59997558594</ele>
        <time>2021-06-10T05:52:15.896Z</time>
      </trkpt>
      <trkpt lat="44.5431" lon="6.20709">
        <ele>768.59997558594</ele>
        <time>2021-06-10T05:52:16.964Z</time>
      </trkpt>
      <trkpt lat="44.54286" lon="6.20667">
        <ele>768.59997558594</ele>
        <time>2021-06-10T05:52:18.045Z</time>
      </trkpt>
      <trkpt lat="44.54268" lon="6.20647">
        <ele>766.20001220703</ele>
        <time>2021-06-10T05:52:19.134Z</time>
      </trkpt>
      <trkpt lat="44.54186" lon="6.20562">
        <ele>763.79998779297</ele>
        <time>2021-06-10T05:52:20.256Z</time>
      </trkpt>
      <trkpt lat="44.54119" lon="6.20509">
        <ele>762.59997558594</ele>
        <time>2021-06-10T05:52:21.403Z</time>
      </trkpt>
      <trkpt lat="44.54062" lon="6.20459">
        <ele>762.40002441406</ele>
        <time>2021-06-10T05:52:22.572Z</time>
      </trkpt>
      <trkpt lat="44.54041" lon="6.20449">
        <ele>762.59997558594</ele>
        <time>2021-06-10T05:52:23.748Z</time>
      </trkpt>
      <trkpt lat="44.54028" lon="6.20457">
        <ele>762.59997558594</ele>
        <time>2021-06-10T05:52:24.929Z</time>
      </trkpt>
      <trkpt lat="44.54015" lon="6.20471">
        <ele>763.79998779297</ele>
        <time>2021-06-10T05:52:26.115Z</time>
      </trkpt>
      <trkpt lat="44.54" lon="6.2048">
        <ele>763.79998779297</ele>
        <time>2021-06-10T05:52:27.307Z</time>
      </trkpt>
      <trkpt lat="44.53977" lon="6.20479">
        <ele>763.59997558594</ele>
        <time>2021-06-10T05:52:28.506Z</time>
      </trkpt>
      <trkpt lat="44.53963" lon="6.20468">
        <ele>763.59997558594</ele>
        <time>2021-06-10T05:52:29.711Z</time>
      </trkpt>
      <trkpt lat="44.53942" lon="6.20438">
        <ele>763.59997558594</ele>
        <time>2021-06-10T05:52:30.925Z</time>
      </trkpt>
      <trkpt lat="44.5393" lon="6.20415">
        <ele>763.40002441406</ele>
        <time>2021-06-10T05:52:32.146Z</time>
      </trkpt>
      <trkpt lat="44.53912" lon="6.20398">
        <ele>763.40002441406</ele>
        <time>2021-06-10T05:52:33.374Z</time>
      </trkpt>
      <trkpt lat="44.53903" lon="6.20382">
        <ele>761</ele>
        <time>2021-06-10T05:52:34.607Z</time>
      </trkpt>
      <trkpt lat="44.53897" lon="6.20352">
        <ele>760.20001220703</ele>
        <time>2021-06-10T05:52:35.847Z</time>
      </trkpt>
      <trkpt lat="44.53891" lon="6.20336">
        <ele>760.20001220703</ele>
        <time>2021-06-10T05:52:37.091Z</time>
      </trkpt>
      <trkpt lat="44.53862" lon="6.20271">
        <ele>760.20001220703</ele>
        <time>2021-06-10T05:52:38.353Z</time>
      </trkpt>
      <trkpt lat="44.53841" lon="6.20236">
        <ele>759.40002441406</ele>
        <time>2021-06-10T05:52:39.626Z</time>
      </trkpt>
      <trkpt lat="44.53814" lon="6.20198">
        <ele>759.20001220703</ele>
        <time>2021-06-10T05:52:40.911Z</time>
      </trkpt>
      <trkpt lat="44.5381" lon="6.20186">
        <ele>759.20001220703</ele>
        <time>2021-06-10T05:52:42.199Z</time>
      </trkpt>
      <trkpt lat="44.53807" lon="6.20164">
        <ele>759.20001220703</ele>
        <time>2021-06-10T05:52:43.493Z</time>
      </trkpt>
      <trkpt lat="44.53803" lon="6.20106">
        <ele>756</ele>
        <time>2021-06-10T05:52:44.800Z</time>
      </trkpt>
      <trkpt lat="44.53789" lon="6.20048">
        <ele>756</ele>
        <time>2021-06-10T05:52:46.122Z</time>
      </trkpt>
      <trkpt lat="44.53767" lon="6.1998">
        <ele>756</ele>
        <time>2021-06-10T05:52:47.461Z</time>
      </trkpt>
      <trkpt lat="44.5375" lon="6.19915">
        <ele>753.40002441406</ele>
        <time>2021-06-10T05:52:48.816Z</time>
      </trkpt>
      <trkpt lat="44.53725" lon="6.19804">
        <ele>753.40002441406</ele>
        <time>2021-06-10T05:52:50.198Z</time>
      </trkpt>
      <trkpt lat="44.5372" lon="6.19769">
        <ele>753.40002441406</ele>
        <time>2021-06-10T05:52:51.589Z</time>
      </trkpt>
      <trkpt lat="44.53702" lon="6.19699">
        <ele>750.59997558594</ele>
        <time>2021-06-10T05:52:52.997Z</time>
      </trkpt>
      <trkpt lat="44.5369" lon="6.1967">
        <ele>750.59997558594</ele>
        <time>2021-06-10T05:52:54.413Z</time>
      </trkpt>
      <trkpt lat="44.53662" lon="6.1963">
        <ele>750</ele>
        <time>2021-06-10T05:52:55.842Z</time>
      </trkpt>
      <trkpt lat="44.53652" lon="6.19607">
        <ele>750</ele>
        <time>2021-06-10T05:52:57.278Z</time>
      </trkpt>
      <trkpt lat="44.53635" lon="6.19531">
        <ele>750</ele>
        <time>2021-06-10T05:52:58.732Z</time>
      </trkpt>
      <trkpt lat="44.53628" lon="6.19515">
        <ele>751.59997558594</ele>
        <time>2021-06-10T05:53:00.191Z</time>
      </trkpt>
      <trkpt lat="44.53607" lon="6.19481">
        <ele>751.59997558594</ele>
        <time>2021-06-10T05:53:01.660Z</time>
      </trkpt>
      <trkpt lat="44.53574" lon="6.19407">
        <ele>751.59997558594</ele>
        <time>2021-06-10T05:53:03.149Z</time>
      </trkpt>
      <trkpt lat="44.53558" lon="6.19383">
        <ele>752</ele>
        <time>2021-06-10T05:53:04.646Z</time>
      </trkpt>
      <trkpt lat="44.53533" lon="6.1935">
        <ele>752</ele>
        <time>2021-06-10T05:53:06.154Z</time>
      </trkpt>
      <trkpt lat="44.53519" lon="6.19325">
        <ele>752</ele>
        <time>2021-06-10T05:53:07.670Z</time>
      </trkpt>
      <trkpt lat="44.53512" lon="6.19289">
        <ele>752</ele>
        <time>2021-06-10T05:53:09.194Z</time>
      </trkpt>
      <trkpt lat="44.53509" lon="6.19266">
        <ele>754.20001220703</ele>
        <time>2021-06-10T05:53:10.724Z</time>
      </trkpt>
      <trkpt lat="44.53511" lon="6.19247">
        <ele>754.20001220703</ele>
        <time>2021-06-10T05:53:12.259Z</time>
      </trkpt>
      <trkpt lat="44.53508" lon="6.19217">
        <ele>754.20001220703</ele>
        <time>2021-06-10T05:53:13.801Z</time>
      </trkpt>
      <trkpt lat="44.53503" lon="6.19178">
        <ele>754.20001220703</ele>
        <time>2021-06-10T05:53:15.352Z</time>
      </trkpt>
      <trkpt lat="44.53502" lon="6.19116">
        <ele>754.20001220703</ele>
        <time>2021-06-10T05:53:16.917Z</time>
      </trkpt>
      <trkpt lat="44.53495" lon="6.19072">
        <ele>751.40002441406</ele>
        <time>2021-06-10T05:53:18.493Z</time>
      </trkpt>
      <trkpt lat="44.53476" lon="6.19009">
        <ele>752.59997558594</ele>
        <time>2021-06-10T05:53:20.085Z</time>
      </trkpt>
      <trkpt lat="44.53465" lon="6.18946">
        <ele>753</ele>
        <time>2021-06-10T05:53:21.692Z</time>
      </trkpt>
      <trkpt lat="44.53461" lon="6.18935">
        <ele>753</ele>
        <time>2021-06-10T05:53:23.302Z</time>
      </trkpt>
      <trkpt lat="44.53452" lon="6.18917">
        <ele>752.79998779297</ele>
        <time>2021-06-10T05:53:24.917Z</time>
      </trkpt>
      <trkpt lat="44.53436" lon="6.18894">
        <ele>752.79998779297</ele>
        <time>2021-06-10T05:53:26.540Z</time>
      </trkpt>
      <trkpt lat="44.53417" lon="6.18838">
        <ele>752.79998779297</ele>
        <time>2021-06-10T05:53:28.177Z</time>
      </trkpt>
      <trkpt lat="44.5341" lon="6.18825">
        <ele>750.40002441406</ele>
        <time>2021-06-10T05:53:29.818Z</time>
      </trkpt>
      <trkpt lat="44.53382" lon="6.18808">
        <ele>750.40002441406</ele>
        <time>2021-06-10T05:53:31.469Z</time>
      </trkpt>
      <trkpt lat="44.53335" lon="6.18793">
        <ele>750.40002441406</ele>
        <time>2021-06-10T05:53:33.136Z</time>
      </trkpt>
      <trkpt lat="44.53305" lon="6.18763">
        <ele>750.40002441406</ele>
        <time>2021-06-10T05:53:34.815Z</time>
      </trkpt>
      <trkpt lat="44.53298" lon="6.18759">
        <ele>750.40002441406</ele>
        <time>2021-06-10T05:53:36.496Z</time>
      </trkpt>
      <trkpt lat="44.53283" lon="6.18757">
        <ele>759.40002441406</ele>
        <time>2021-06-10T05:53:38.182Z</time>
      </trkpt>
      <trkpt lat="44.53274" lon="6.18759">
        <ele>760.59997558594</ele>
        <time>2021-06-10T05:53:39.871Z</time>
      </trkpt>
      <trkpt lat="44.53262" lon="6.18767">
        <ele>762</ele>
        <time>2021-06-10T05:53:41.565Z</time>
      </trkpt>
      <trkpt lat="44.53255" lon="6.18768">
        <ele>762</ele>
        <time>2021-06-10T05:53:43.261Z</time>
      </trkpt>
      <trkpt lat="44.5325" lon="6.18765">
        <ele>762.79998779297</ele>
        <time>2021-06-10T05:53:44.959Z</time>
      </trkpt>
      <trkpt lat="44.53231" lon="6.18739">
        <ele>762.79998779297</ele>
        <time>2021-06-10T05:53:46.665Z</time>
      </trkpt>
      <trkpt lat="44.53218" lon="6.18718">
        <ele>768.79998779297</ele>
        <time>2021-06-10T05:53:48.378Z</time>
      </trkpt>
      <trkpt lat="44.53206" lon="6.18692">
        <ele>771.20001220703</ele>
        <time>2021-06-10T05:53:50.098Z</time>
      </trkpt>
      <trkpt lat="44.5319" lon="6.18672">
        <ele>771.20001220703</ele>
        <time>2021-06-10T05:53:51.825Z</time>
      </trkpt>
      <trkpt lat="44.53165" lon="6.18652">
        <ele>776.40002441406</ele>
        <time>2021-06-10T05:53:53.562Z</time>
      </trkpt>
      <trkpt lat="44.53136" lon="6.18625">
        <ele>780.40002441406</ele>
        <time>2021-06-10T05:53:55.310Z</time>
      </trkpt>
      <trkpt lat="44.53099" lon="6.18603">
        <ele>785.40002441406</ele>
        <time>2021-06-10T05:53:57.071Z</time>
      </trkpt>
      <trkpt lat="44.5308" lon="6.18578">
        <ele>785.40002441406</ele>
        <time>2021-06-10T05:53:58.841Z</time>
      </trkpt>
      <trkpt lat="44.53052" lon="6.18562">
        <ele>792.40002441406</ele>
        <time>2021-06-10T05:54:00.621Z</time>
      </trkpt>
      <trkpt lat="44.53031" lon="6.18557">
        <ele>792.40002441406</ele>
        <time>2021-06-10T05:54:02.408Z</time>
      </trkpt>
      <trkpt lat="44.53019" lon="6.18545">
        <ele>795.59997558594</ele>
        <time>2021-06-10T05:54:04.199Z</time>
      </trkpt>
      <trkpt lat="44.53012" lon="6.18544">
        <ele>796.79998779297</ele>
        <time>2021-06-10T05:54:05.993Z</time>
      </trkpt>
      <trkpt lat="44.53011" lon="6.18545">
        <ele>796.79998779297</ele>
        <time>2021-06-10T05:54:07.787Z</time>
      </trkpt>
      <trkpt lat="44.53012" lon="6.18556">
        <ele>796.79998779297</ele>
        <time>2021-06-10T05:54:09.584Z</time>
      </trkpt>
      <trkpt lat="44.53015" lon="6.18561">
        <ele>798.59997558594</ele>
        <time>2021-06-10T05:54:11.382Z</time>
      </trkpt>
      <trkpt lat="44.53034" lon="6.18583">
        <ele>800.40002441406</ele>
        <time>2021-06-10T05:54:13.189Z</time>
      </trkpt>
      <trkpt lat="44.53053" lon="6.18598">
        <ele>800.40002441406</ele>
        <time>2021-06-10T05:54:15.003Z</time>
      </trkpt>
      <trkpt lat="44.53064" lon="6.18611">
        <ele>800.40002441406</ele>
        <time>2021-06-10T05:54:16.821Z</time>
      </trkpt>
      <trkpt lat="44.5308" lon="6.18648">
        <ele>807.40002441406</ele>
        <time>2021-06-10T05:54:18.649Z</time>
      </trkpt>
      <trkpt lat="44.53098" lon="6.18677">
        <ele>807.40002441406</ele>
        <time>2021-06-10T05:54:20.487Z</time>
      </trkpt>
      <trkpt lat="44.53116" lon="6.18722">
        <ele>815.40002441406</ele>
        <time>2021-06-10T05:54:22.336Z</time>
      </trkpt>
      <trkpt lat="44.5312" lon="6.18743">
        <ele>815.40002441406</ele>
        <time>2021-06-10T05:54:24.191Z</time>
      </trkpt>
      <trkpt lat="44.53128" lon="6.18769">
        <ele>815.40002441406</ele>
        <time>2021-06-10T05:54:26.052Z</time>
      </trkpt>
      <trkpt lat="44.53146" lon="6.18807">
        <ele>815.40002441406</ele>
        <time>2021-06-10T05:54:27.924Z</time>
      </trkpt>
      <trkpt lat="44.53148" lon="6.18847">
        <ele>815.40002441406</ele>
        <time>2021-06-10T05:54:29.805Z</time>
      </trkpt>
      <trkpt lat="44.53151" lon="6.1887">
        <ele>828.79998779297</ele>
        <time>2021-06-10T05:54:31.692Z</time>
      </trkpt>
      <trkpt lat="44.53147" lon="6.18908">
        <ele>832.20001220703</ele>
        <time>2021-06-10T05:54:33.588Z</time>
      </trkpt>
      <trkpt lat="44.53132" lon="6.18957">
        <ele>836</ele>
        <time>2021-06-10T05:54:35.496Z</time>
      </trkpt>
      <trkpt lat="44.53129" lon="6.18972">
        <ele>837.20001220703</ele>
        <time>2021-06-10T05:54:37.408Z</time>
      </trkpt>
      <trkpt lat="44.53133" lon="6.18985">
        <ele>837.20001220703</ele>
        <time>2021-06-10T05:54:39.323Z</time>
      </trkpt>
      <trkpt lat="44.53133" lon="6.19008">
        <ele>837.20001220703</ele>
        <time>2021-06-10T05:54:41.243Z</time>
      </trkpt>
      <trkpt lat="44.53129" lon="6.19023">
        <ele>837.20001220703</ele>
        <time>2021-06-10T05:54:43.167Z</time>
      </trkpt>
      <trkpt lat="44.53127" lon="6.19051">
        <ele>843.79998779297</ele>
        <time>2021-06-10T05:54:45.098Z</time>
      </trkpt>
      <trkpt lat="44.53122" lon="6.19051">
        <ele>844.79998779297</ele>
        <time>2021-06-10T05:54:47.030Z</time>
      </trkpt>
      <trkpt lat="44.53119" lon="6.19046">
        <ele>845.59997558594</ele>
        <time>2021-06-10T05:54:48.964Z</time>
      </trkpt>
      <trkpt lat="44.53117" lon="6.19026">
        <ele>845.59997558594</ele>
        <time>2021-06-10T05:54:50.903Z</time>
      </trkpt>
      <trkpt lat="44.53113" lon="6.19015">
        <ele>845.59997558594</ele>
        <time>2021-06-10T05:54:52.845Z</time>
      </trkpt>
      <trkpt lat="44.53107" lon="6.18982">
        <ele>851.40002441406</ele>
        <time>2021-06-10T05:54:54.795Z</time>
      </trkpt>
      <trkpt lat="44.53106" lon="6.18967">
        <ele>851.40002441406</ele>
        <time>2021-06-10T05:54:56.748Z</time>
      </trkpt>
      <trkpt lat="44.53107" lon="6.18945">
        <ele>851.40002441406</ele>
        <time>2021-06-10T05:54:58.706Z</time>
      </trkpt>
      <trkpt lat="44.53113" lon="6.18913">
        <ele>854.59997558594</ele>
        <time>2021-06-10T05:55:00.672Z</time>
      </trkpt>
      <trkpt lat="44.53112" lon="6.1889">
        <ele>854.59997558594</ele>
        <time>2021-06-10T05:55:02.643Z</time>
      </trkpt>
      <trkpt lat="44.5311" lon="6.18883">
        <ele>855.79998779297</ele>
        <time>2021-06-10T05:55:04.616Z</time>
      </trkpt>
      <trkpt lat="44.53104" lon="6.18875">
        <ele>855.79998779297</ele>
        <time>2021-06-10T05:55:06.592Z</time>
      </trkpt>
      <trkpt lat="44.53101" lon="6.18877">
        <ele>857</ele>
        <time>2021-06-10T05:55:08.569Z</time>
      </trkpt>
      <trkpt lat="44.531" lon="6.1888">
        <ele>857</ele>
        <time>2021-06-10T05:55:10.547Z</time>
      </trkpt>
      <trkpt lat="44.53099" lon="6.18903">
        <ele>857</ele>
        <time>2021-06-10T05:55:12.530Z</time>
      </trkpt>
      <trkpt lat="44.53094" lon="6.18922">
        <ele>862.79998779297</ele>
        <time>2021-06-10T05:55:14.518Z</time>
      </trkpt>
      <trkpt lat="44.53067" lon="6.18988">
        <ele>862.79998779297</ele>
        <time>2021-06-10T05:55:16.524Z</time>
      </trkpt>
      <trkpt lat="44.53059" lon="6.19018">
        <ele>872.79998779297</ele>
        <time>2021-06-10T05:55:18.537Z</time>
      </trkpt>
      <trkpt lat="44.53025" lon="6.19093">
        <ele>880.20001220703</ele>
        <time>2021-06-10T05:55:20.571Z</time>
      </trkpt>
      <trkpt lat="44.5297" lon="6.19183">
        <ele>880.20001220703</ele>
        <time>2021-06-10T05:55:22.633Z</time>
      </trkpt>
      <trkpt lat="44.5294" lon="6.19223">
        <ele>880.20001220703</ele>
        <time>2021-06-10T05:55:24.708Z</time>
      </trkpt>
      <trkpt lat="44.52926" lon="6.19247">
        <ele>880.20001220703</ele>
        <time>2021-06-10T05:55:26.790Z</time>
      </trkpt>
      <trkpt lat="44.52914" lon="6.19262">
        <ele>880.20001220703</ele>
        <time>2021-06-10T05:55:28.878Z</time>
      </trkpt>
      <trkpt lat="44.52909" lon="6.19271">
        <ele>897.59997558594</ele>
        <time>2021-06-10T05:55:30.969Z</time>
      </trkpt>
      <trkpt lat="44.52903" lon="6.19307">
        <ele>896.59997558594</ele>
        <time>2021-06-10T05:55:33.068Z</time>
      </trkpt>
      <trkpt lat="44.52903" lon="6.19321">
        <ele>896</ele>
        <time>2021-06-10T05:55:35.170Z</time>
      </trkpt>
      <trkpt lat="44.52907" lon="6.19339">
        <ele>895.40002441406</ele>
        <time>2021-06-10T05:55:37.277Z</time>
      </trkpt>
      <trkpt lat="44.52919" lon="6.19362">
        <ele>896.59997558594</ele>
        <time>2021-06-10T05:55:39.391Z</time>
      </trkpt>
      <trkpt lat="44.52925" lon="6.19377">
        <ele>896.59997558594</ele>
        <time>2021-06-10T05:55:41.509Z</time>
      </trkpt>
      <trkpt lat="44.52932" lon="6.19408">
        <ele>901.40002441406</ele>
        <time>2021-06-10T05:55:43.634Z</time>
      </trkpt>
      <trkpt lat="44.52939" lon="6.19445">
        <ele>907.20001220703</ele>
        <time>2021-06-10T05:55:45.768Z</time>
      </trkpt>
      <trkpt lat="44.52945" lon="6.19462">
        <ele>907.20001220703</ele>
        <time>2021-06-10T05:55:47.907Z</time>
      </trkpt>
      <trkpt lat="44.52955" lon="6.19479">
        <ele>907.20001220703</ele>
        <time>2021-06-10T05:55:50.051Z</time>
      </trkpt>
      <trkpt lat="44.52972" lon="6.195">
        <ele>913.20001220703</ele>
        <time>2021-06-10T05:55:52.202Z</time>
      </trkpt>
      <trkpt lat="44.52994" lon="6.19536">
        <ele>916.40002441406</ele>
        <time>2021-06-10T05:55:54.364Z</time>
      </trkpt>
      <trkpt lat="44.53016" lon="6.19552">
        <ele>916.40002441406</ele>
        <time>2021-06-10T05:55:56.534Z</time>
      </trkpt>
      <trkpt lat="44.53024" lon="6.19561">
        <ele>919.59997558594</ele>
        <time>2021-06-10T05:55:58.708Z</time>
      </trkpt>
      <trkpt lat="44.53033" lon="6.19581">
        <ele>920.59997558594</ele>
        <time>2021-06-10T05:56:00.887Z</time>
      </trkpt>
      <trkpt lat="44.53037" lon="6.19605">
        <ele>920.59997558594</ele>
        <time>2021-06-10T05:56:03.072Z</time>
      </trkpt>
      <trkpt lat="44.53038" lon="6.19646">
        <ele>920.59997558594</ele>
        <time>2021-06-10T05:56:05.267Z</time>
      </trkpt>
      <trkpt lat="44.53063" lon="6.19787">
        <ele>922.59997558594</ele>
        <time>2021-06-10T05:56:07.496Z</time>
      </trkpt>
      <trkpt lat="44.53073" lon="6.19814">
        <ele>921.59997558594</ele>
        <time>2021-06-10T05:56:09.732Z</time>
      </trkpt>
      <trkpt lat="44.53094" lon="6.19861">
        <ele>920</ele>
        <time>2021-06-10T05:56:11.981Z</time>
      </trkpt>
      <trkpt lat="44.53095" lon="6.19872">
        <ele>920</ele>
        <time>2021-06-10T05:56:14.232Z</time>
      </trkpt>
      <trkpt lat="44.5308" lon="6.19923">
        <ele>920</ele>
        <time>2021-06-10T05:56:16.496Z</time>
      </trkpt>
      <trkpt lat="44.53075" lon="6.20005">
        <ele>918.40002441406</ele>
        <time>2021-06-10T05:56:18.780Z</time>
      </trkpt>
      <trkpt lat="44.53059" lon="6.20063">
        <ele>918.40002441406</ele>
        <time>2021-06-10T05:56:21.078Z</time>
      </trkpt>
      <trkpt lat="44.53053" lon="6.20115">
        <ele>921.79998779297</ele>
        <time>2021-06-10T05:56:23.389Z</time>
      </trkpt>
      <trkpt lat="44.53057" lon="6.20126">
        <ele>921.79998779297</ele>
        <time>2021-06-10T05:56:25.702Z</time>
      </trkpt>
      <trkpt lat="44.53064" lon="6.20132">
        <ele>921.79998779297</ele>
        <time>2021-06-10T05:56:28.018Z</time>
      </trkpt>
      <trkpt lat="44.53073" lon="6.20136">
        <ele>923.79998779297</ele>
        <time>2021-06-10T05:56:30.337Z</time>
      </trkpt>
      <trkpt lat="44.53093" lon="6.20131">
        <ele>925</ele>
        <time>2021-06-10T05:56:32.663Z</time>
      </trkpt>
      <trkpt lat="44.53117" lon="6.20114">
        <ele>925</ele>
        <time>2021-06-10T05:56:34.998Z</time>
      </trkpt>
      <trkpt lat="44.53126" lon="6.20115">
        <ele>925</ele>
        <time>2021-06-10T05:56:37.336Z</time>
      </trkpt>
      <trkpt lat="44.53133" lon="6.20122">
        <ele>928.20001220703</ele>
        <time>2021-06-10T05:56:39.676Z</time>
      </trkpt>
      <trkpt lat="44.53142" lon="6.20141">
        <ele>928.20001220703</ele>
        <time>2021-06-10T05:56:42.022Z</time>
      </trkpt>
      <trkpt lat="44.53156" lon="6.20178">
        <ele>928.20001220703</ele>
        <time>2021-06-10T05:56:44.378Z</time>
      </trkpt>
      <trkpt lat="44.5316" lon="6.20182">
        <ele>928.20001220703</ele>
        <time>2021-06-10T05:56:46.735Z</time>
      </trkpt>
      <trkpt lat="44.53163" lon="6.20182">
        <ele>935</ele>
        <time>2021-06-10T05:56:49.093Z</time>
      </trkpt>
      <trkpt lat="44.53169" lon="6.20178">
        <ele>935</ele>
        <time>2021-06-10T05:56:51.453Z</time>
      </trkpt>
      <trkpt lat="44.53175" lon="6.20164">
        <ele>935</ele>
        <time>2021-06-10T05:56:53.817Z</time>
      </trkpt>
      <trkpt lat="44.53183" lon="6.20151">
        <ele>935</ele>
        <time>2021-06-10T05:56:56.185Z</time>
      </trkpt>
      <trkpt lat="44.53193" lon="6.2014">
        <ele>939.59997558594</ele>
        <time>2021-06-10T05:56:58.557Z</time>
      </trkpt>
      <trkpt lat="44.53202" lon="6.20137">
        <ele>940.79998779297</ele>
        <time>2021-06-10T05:57:00.933Z</time>
      </trkpt>
      <trkpt lat="44.53222" lon="6.20134">
        <ele>940.79998779297</ele>
        <time>2021-06-10T05:57:03.315Z</time>
      </trkpt>
      <trkpt lat="44.53232" lon="6.20129">
        <ele>940.79998779297</ele>
        <time>2021-06-10T05:57:05.701Z</time>
      </trkpt>
      <trkpt lat="44.53239" lon="6.20122">
        <ele>944.20001220703</ele>
        <time>2021-06-10T05:57:08.089Z</time>
      </trkpt>
      <trkpt lat="44.53243" lon="6.2012">
        <ele>944.20001220703</ele>
        <time>2021-06-10T05:57:10.479Z</time>
      </trkpt>
      <trkpt lat="44.53258" lon="6.20123">
        <ele>944.20001220703</ele>
        <time>2021-06-10T05:57:12.874Z</time>
      </trkpt>
      <trkpt lat="44.53283" lon="6.20132">
        <ele>942.79998779297</ele>
        <time>2021-06-10T05:57:15.277Z</time>
      </trkpt>
      <trkpt lat="44.53295" lon="6.20143">
        <ele>941.20001220703</ele>
        <time>2021-06-10T05:57:17.685Z</time>
      </trkpt>
      <trkpt lat="44.53301" lon="6.2015">
        <ele>941.20001220703</ele>
        <time>2021-06-10T05:57:20.095Z</time>
      </trkpt>
      <trkpt lat="44.53309" lon="6.2017">
        <ele>938.59997558594</ele>
        <time>2021-06-10T05:57:22.511Z</time>
      </trkpt>
      <trkpt lat="44.53334" lon="6.20238">
        <ele>936.40002441406</ele>
        <time>2021-06-10T05:57:24.945Z</time>
      </trkpt>
      <trkpt lat="44.53352" lon="6.20302">
        <ele>934.20001220703</ele>
        <time>2021-06-10T05:57:27.395Z</time>
      </trkpt>
      <trkpt lat="44.53378" lon="6.20369">
        <ele>930.79998779297</ele>
        <time>2021-06-10T05:57:29.862Z</time>
      </trkpt>
      <trkpt lat="44.53386" lon="6.20401">
        <ele>928.20001220703</ele>
        <time>2021-06-10T05:57:32.337Z</time>
      </trkpt>
      <trkpt lat="44.53401" lon="6.20473">
        <ele>924.59997558594</ele>
        <time>2021-06-10T05:57:34.830Z</time>
      </trkpt>
      <trkpt lat="44.53425" lon="6.20557">
        <ele>916.59997558594</ele>
        <time>2021-06-10T05:57:37.344Z</time>
      </trkpt>
      <trkpt lat="44.53431" lon="6.20568">
        <ele>916.59997558594</ele>
        <time>2021-06-10T05:57:39.861Z</time>
      </trkpt>
      <trkpt lat="44.53459" lon="6.20609">
        <ele>916.59997558594</ele>
        <time>2021-06-10T05:57:42.392Z</time>
      </trkpt>
      <trkpt lat="44.53475" lon="6.20637">
        <ele>908.59997558594</ele>
        <time>2021-06-10T05:57:44.931Z</time>
      </trkpt>
      <trkpt lat="44.53481" lon="6.20643">
        <ele>908.59997558594</ele>
        <time>2021-06-10T05:57:47.472Z</time>
      </trkpt>
      <trkpt lat="44.53497" lon="6.20656">
        <ele>908.59997558594</ele>
        <time>2021-06-10T05:57:50.019Z</time>
      </trkpt>
      <trkpt lat="44.53513" lon="6.20676">
        <ele>908.59997558594</ele>
        <time>2021-06-10T05:57:52.574Z</time>
      </trkpt>
      <trkpt lat="44.53531" lon="6.20705">
        <ele>908.59997558594</ele>
        <time>2021-06-10T05:57:55.138Z</time>
      </trkpt>
      <trkpt lat="44.53555" lon="6.20726">
        <ele>908.59997558594</ele>
        <time>2021-06-10T05:57:57.711Z</time>
      </trkpt>
      <trkpt lat="44.53568" lon="6.2074">
        <ele>908.59997558594</ele>
        <time>2021-06-10T05:58:00.289Z</time>
      </trkpt>
      <trkpt lat="44.53581" lon="6.20773">
        <ele>908.59997558594</ele>
        <time>2021-06-10T05:58:02.876Z</time>
      </trkpt>
      <trkpt lat="44.53614" lon="6.20833">
        <ele>915.59997558594</ele>
        <time>2021-06-10T05:58:05.481Z</time>
      </trkpt>
      <trkpt lat="44.53625" lon="6.20859">
        <ele>915.59997558594</ele>
        <time>2021-06-10T05:58:08.093Z</time>
      </trkpt>
      <trkpt lat="44.53633" lon="6.20888">
        <ele>920.20001220703</ele>
        <time>2021-06-10T05:58:10.712Z</time>
      </trkpt>
      <trkpt lat="44.53641" lon="6.2094">
        <ele>920.20001220703</ele>
        <time>2021-06-10T05:58:13.344Z</time>
      </trkpt>
      <trkpt lat="44.53641" lon="6.20947">
        <ele>922.40002441406</ele>
        <time>2021-06-10T05:58:15.977Z</time>
      </trkpt>
      <trkpt lat="44.53633" lon="6.20972">
        <ele>923.40002441406</ele>
        <time>2021-06-10T05:58:18.616Z</time>
      </trkpt>
      <trkpt lat="44.53634" lon="6.21027">
        <ele>923.40002441406</ele>
        <time>2021-06-10T05:58:21.268Z</time>
      </trkpt>
      <trkpt lat="44.53628" lon="6.21065">
        <ele>932</ele>
        <time>2021-06-10T05:58:23.929Z</time>
      </trkpt>
      <trkpt lat="44.53628" lon="6.21072">
        <ele>932</ele>
        <time>2021-06-10T05:58:26.592Z</time>
      </trkpt>
      <trkpt lat="44.53632" lon="6.21101">
        <ele>935.20001220703</ele>
        <time>2021-06-10T05:58:29.262Z</time>
      </trkpt>
      <trkpt lat="44.53632" lon="6.2112">
        <ele>935.79998779297</ele>
        <time>2021-06-10T05:58:31.936Z</time>
      </trkpt>
      <trkpt lat="44.53613" lon="6.21117">
        <ele>935.79998779297</ele>
        <time>2021-06-10T05:58:34.616Z</time>
      </trkpt>
      <trkpt lat="44.536" lon="6.21137">
        <ele>938.20001220703</ele>
        <time>2021-06-10T05:58:37.303Z</time>
      </trkpt>
      <trkpt lat="44.53584" lon="6.2115">
        <ele>940.40002441406</ele>
        <time>2021-06-10T05:58:39.996Z</time>
      </trkpt>
      <trkpt lat="44.53581" lon="6.21159">
        <ele>940.40002441406</ele>
        <time>2021-06-10T05:58:42.691Z</time>
      </trkpt>
      <trkpt lat="44.53562" lon="6.21193">
        <ele>938.20001220703</ele>
        <time>2021-06-10T05:58:45.396Z</time>
      </trkpt>
      <trkpt lat="44.53552" lon="6.21198">
        <ele>938.20001220703</ele>
        <time>2021-06-10T05:58:48.105Z</time>
      </trkpt>
      <trkpt lat="44.53532" lon="6.21231">
        <ele>939.79998779297</ele>
        <time>2021-06-10T05:58:50.824Z</time>
      </trkpt>
      <trkpt lat="44.53511" lon="6.21254">
        <ele>941.79998779297</ele>
        <time>2021-06-10T05:58:53.552Z</time>
      </trkpt>
      <trkpt lat="44.53503" lon="6.2127">
        <ele>942.59997558594</ele>
        <time>2021-06-10T05:58:56.284Z</time>
      </trkpt>
      <trkpt lat="44.5348" lon="6.21291">
        <ele>945.20001220703</ele>
        <time>2021-06-10T05:58:59.025Z</time>
      </trkpt>
      <trkpt lat="44.53463" lon="6.2131">
        <ele>945.20001220703</ele>
        <time>2021-06-10T05:59:01.773Z</time>
      </trkpt>
      <trkpt lat="44.53449" lon="6.21328">
        <ele>945.20001220703</ele>
        <time>2021-06-10T05:59:04.528Z</time>
      </trkpt>
      <trkpt lat="44.53438" lon="6.21347">
        <ele>952.20001220703</ele>
        <time>2021-06-10T05:59:07.288Z</time>
      </trkpt>
      <trkpt lat="44.53438" lon="6.2138">
        <ele>954.20001220703</ele>
        <time>2021-06-10T05:59:10.056Z</time>
      </trkpt>
      <trkpt lat="44.53431" lon="6.214">
        <ele>956.59997558594</ele>
        <time>2021-06-10T05:59:12.829Z</time>
      </trkpt>
      <trkpt lat="44.53432" lon="6.21406">
        <ele>956.59997558594</ele>
        <time>2021-06-10T05:59:15.604Z</time>
      </trkpt>
      <trkpt lat="44.53426" lon="6.21436">
        <ele>956.59997558594</ele>
        <time>2021-06-10T05:59:18.386Z</time>
      </trkpt>
      <trkpt lat="44.53423" lon="6.21461">
        <ele>956.59997558594</ele>
        <time>2021-06-10T05:59:21.174Z</time>
      </trkpt>
      <trkpt lat="44.53414" lon="6.21493">
        <ele>961.59997558594</ele>
        <time>2021-06-10T05:59:23.970Z</time>
      </trkpt>
      <trkpt lat="44.53386" lon="6.21503">
        <ele>961.59997558594</ele>
        <time>2021-06-10T05:59:26.775Z</time>
      </trkpt>
      <trkpt lat="44.53379" lon="6.21507">
        <ele>956</ele>
        <time>2021-06-10T05:59:29.583Z</time>
      </trkpt>
      <trkpt lat="44.53373" lon="6.21515">
        <ele>956</ele>
        <time>2021-06-10T05:59:32.394Z</time>
      </trkpt>
      <trkpt lat="44.5337" lon="6.21523">
        <ele>956</ele>
        <time>2021-06-10T05:59:35.207Z</time>
      </trkpt>
      <trkpt lat="44.53367" lon="6.21526">
        <ele>956</ele>
        <time>2021-06-10T05:59:38.021Z</time>
      </trkpt>
      <trkpt lat="44.53365" lon="6.21532">
        <ele>956</ele>
        <time>2021-06-10T05:59:40.837Z</time>
      </trkpt>
      <trkpt lat="44.53375" lon="6.21549">
        <ele>947.20001220703</ele>
        <time>2021-06-10T05:59:43.658Z</time>
      </trkpt>
      <trkpt lat="44.53423" lon="6.21572">
        <ele>947.20001220703</ele>
        <time>2021-06-10T05:59:46.495Z</time>
      </trkpt>
      <trkpt lat="44.53457" lon="6.21544">
        <ele>947.20001220703</ele>
        <time>2021-06-10T05:59:49.345Z</time>
      </trkpt>
      <trkpt lat="44.5347" lon="6.21529">
        <ele>933.59997558594</ele>
        <time>2021-06-10T05:59:52.201Z</time>
      </trkpt>
      <trkpt lat="44.53484" lon="6.21503">
        <ele>933.59997558594</ele>
        <time>2021-06-10T05:59:55.064Z</time>
      </trkpt>
      <trkpt lat="44.53492" lon="6.21485">
        <ele>933.59997558594</ele>
        <time>2021-06-10T05:59:57.932Z</time>
      </trkpt>
      <trkpt lat="44.53503" lon="6.21438">
        <ele>933.59997558594</ele>
        <time>2021-06-10T06:00:00.812Z</time>
      </trkpt>
      <trkpt lat="44.53503" lon="6.21418">
        <ele>921.79998779297</ele>
        <time>2021-06-10T06:00:03.697Z</time>
      </trkpt>
      <trkpt lat="44.53513" lon="6.21387">
        <ele>921.79998779297</ele>
        <time>2021-06-10T06:00:06.590Z</time>
      </trkpt>
      <trkpt lat="44.53516" lon="6.21384">
        <ele>921.59997558594</ele>
        <time>2021-06-10T06:00:09.484Z</time>
      </trkpt>
      <trkpt lat="44.53531" lon="6.21379">
        <ele>921.59997558594</ele>
        <time>2021-06-10T06:00:12.383Z</time>
      </trkpt>
      <trkpt lat="44.5354" lon="6.21373">
        <ele>923.40002441406</ele>
        <time>2021-06-10T06:00:15.285Z</time>
      </trkpt>
      <trkpt lat="44.53541" lon="6.21368">
        <ele>923.40002441406</ele>
        <time>2021-06-10T06:00:18.188Z</time>
      </trkpt>
      <trkpt lat="44.53539" lon="6.21348">
        <ele>922.59997558594</ele>
        <time>2021-06-10T06:00:21.096Z</time>
      </trkpt>
      <trkpt lat="44.53536" lon="6.21334">
        <ele>921.20001220703</ele>
        <time>2021-06-10T06:00:24.007Z</time>
      </trkpt>
      <trkpt lat="44.53536" lon="6.21335">
        <ele>921.20001220703</ele>
        <time>2021-06-10T06:00:26.919Z</time>
      </trkpt>
      <trkpt lat="44.53547" lon="6.21333">
        <ele>920.20001220703</ele>
        <time>2021-06-10T06:00:29.834Z</time>
      </trkpt>
      <trkpt lat="44.5356" lon="6.21319">
        <ele>920.20001220703</ele>
        <time>2021-06-10T06:00:32.755Z</time>
      </trkpt>
      <trkpt lat="44.53558" lon="6.21307">
        <ele>919.40002441406</ele>
        <time>2021-06-10T06:00:35.678Z</time>
      </trkpt>
      <trkpt lat="44.53559" lon="6.21292">
        <ele>919.40002441406</ele>
        <time>2021-06-10T06:00:38.605Z</time>
      </trkpt>
      <trkpt lat="44.5357" lon="6.21285">
        <ele>919.20001220703</ele>
        <time>2021-06-10T06:00:41.536Z</time>
      </trkpt>
      <trkpt lat="44.5358" lon="6.21281">
        <ele>919.20001220703</ele>
        <time>2021-06-10T06:00:44.470Z</time>
      </trkpt>
      <trkpt lat="44.53586" lon="6.21283">
        <ele>918.20001220703</ele>
        <time>2021-06-10T06:00:47.406Z</time>
      </trkpt>
      <trkpt lat="44.53603" lon="6.21292">
        <ele>917</ele>
        <time>2021-06-10T06:00:50.348Z</time>
      </trkpt>
      <trkpt lat="44.53615" lon="6.21294">
        <ele>917</ele>
        <time>2021-06-10T06:00:53.294Z</time>
      </trkpt>
      <trkpt lat="44.53625" lon="6.21286">
        <ele>917</ele>
        <time>2021-06-10T06:00:56.244Z</time>
      </trkpt>
      <trkpt lat="44.53625" lon="6.21275">
        <ele>913.79998779297</ele>
        <time>2021-06-10T06:00:59.196Z</time>
      </trkpt>
      <trkpt lat="44.5363" lon="6.21271">
        <ele>913.79998779297</ele>
        <time>2021-06-10T06:01:02.150Z</time>
      </trkpt>
      <trkpt lat="44.53645" lon="6.2127">
        <ele>913.79998779297</ele>
        <time>2021-06-10T06:01:05.109Z</time>
      </trkpt>
      <trkpt lat="44.53667" lon="6.21272">
        <ele>913.79998779297</ele>
        <time>2021-06-10T06:01:08.076Z</time>
      </trkpt>
      <trkpt lat="44.5369" lon="6.2127">
        <ele>908</ele>
        <time>2021-06-10T06:01:11.050Z</time>
      </trkpt>
      <trkpt lat="44.53705" lon="6.21262">
        <ele>905.59997558594</ele>
        <time>2021-06-10T06:01:14.029Z</time>
      </trkpt>
      <trkpt lat="44.53729" lon="6.2124">
        <ele>900</ele>
        <time>2021-06-10T06:01:17.018Z</time>
      </trkpt>
      <trkpt lat="44.53738" lon="6.21239">
        <ele>900</ele>
        <time>2021-06-10T06:01:20.009Z</time>
      </trkpt>
      <trkpt lat="44.53736" lon="6.21262">
        <ele>897.20001220703</ele>
        <time>2021-06-10T06:01:23.006Z</time>
      </trkpt>
      <trkpt lat="44.53729" lon="6.21285">
        <ele>897.20001220703</ele>
        <time>2021-06-10T06:01:26.009Z</time>
      </trkpt>
      <trkpt lat="44.53727" lon="6.21296">
        <ele>891.59997558594</ele>
        <time>2021-06-10T06:01:29.014Z</time>
      </trkpt>
      <trkpt lat="44.53731" lon="6.21301">
        <ele>889.59997558594</ele>
        <time>2021-06-10T06:01:32.021Z</time>
      </trkpt>
      <trkpt lat="44.53748" lon="6.21309">
        <ele>886.20001220703</ele>
        <time>2021-06-10T06:01:35.034Z</time>
      </trkpt>
      <trkpt lat="44.53754" lon="6.21305">
        <ele>884.79998779297</ele>
        <time>2021-06-10T06:01:38.049Z</time>
      </trkpt>
      <trkpt lat="44.53782" lon="6.21263">
        <ele>882</ele>
        <time>2021-06-10T06:01:41.077Z</time>
      </trkpt>
      <trkpt lat="44.53796" lon="6.21224">
        <ele>882</ele>
        <time>2021-06-10T06:01:44.116Z</time>
      </trkpt>
      <trkpt lat="44.538" lon="6.21157">
        <ele>882</ele>
        <time>2021-06-10T06:01:47.170Z</time>
      </trkpt>
      <trkpt lat="44.53804" lon="6.21143">
        <ele>882</ele>
        <time>2021-06-10T06:01:50.228Z</time>
      </trkpt>
      <trkpt lat="44.53817" lon="6.21127">
        <ele>885.40002441406</ele>
        <time>2021-06-10T06:01:53.291Z</time>
      </trkpt>
      <trkpt lat="44.53841" lon="6.21112">
        <ele>885.40002441406</ele>
        <time>2021-06-10T06:01:56.363Z</time>
      </trkpt>
      <trkpt lat="44.53856" lon="6.21089">
        <ele>885.40002441406</ele>
        <time>2021-06-10T06:01:59.443Z</time>
      </trkpt>
      <trkpt lat="44.53867" lon="6.21082">
        <ele>879.40002441406</ele>
        <time>2021-06-10T06:02:02.526Z</time>
      </trkpt>
      <trkpt lat="44.53883" lon="6.21075">
        <ele>879.40002441406</ele>
        <time>2021-06-10T06:02:05.615Z</time>
      </trkpt>
      <trkpt lat="44.53896" lon="6.2108">
        <ele>879.40002441406</ele>
        <time>2021-06-10T06:02:08.708Z</time>
      </trkpt>
      <trkpt lat="44.53901" lon="6.21081">
        <ele>873.79998779297</ele>
        <time>2021-06-10T06:02:11.803Z</time>
      </trkpt>
      <trkpt lat="44.53908" lon="6.21077">
        <ele>873.79998779297</ele>
        <time>2021-06-10T06:02:14.900Z</time>
      </trkpt>
      <trkpt lat="44.53912" lon="6.21064">
        <ele>873.79998779297</ele>
        <time>2021-06-10T06:02:18.001Z</time>
      </trkpt>
      <trkpt lat="44.53915" lon="6.21062">
        <ele>873</ele>
        <time>2021-06-10T06:02:21.103Z</time>
      </trkpt>
      <trkpt lat="44.53922" lon="6.21069">
        <ele>873</ele>
        <time>2021-06-10T06:02:24.207Z</time>
      </trkpt>
      <trkpt lat="44.53927" lon="6.21067">
        <ele>872.20001220703</ele>
        <time>2021-06-10T06:02:27.313Z</time>
      </trkpt>
      <trkpt lat="44.53937" lon="6.21054">
        <ele>870.59997558594</ele>
        <time>2021-06-10T06:02:30.424Z</time>
      </trkpt>
      <trkpt lat="44.53959" lon="6.21047">
        <ele>870.59997558594</ele>
        <time>2021-06-10T06:02:33.542Z</time>
      </trkpt>
      <trkpt lat="44.53968" lon="6.21039">
        <ele>861.59997558594</ele>
        <time>2021-06-10T06:02:36.663Z</time>
      </trkpt>
      <trkpt lat="44.53971" lon="6.21031">
        <ele>858.79998779297</ele>
        <time>2021-06-10T06:02:39.787Z</time>
      </trkpt>
      <trkpt lat="44.5397" lon="6.21024">
        <ele>857.40002441406</ele>
        <time>2021-06-10T06:02:42.912Z</time>
      </trkpt>
      <trkpt lat="44.53953" lon="6.21">
        <ele>856.40002441406</ele>
        <time>2021-06-10T06:02:46.045Z</time>
      </trkpt>
      <trkpt lat="44.53949" lon="6.20983">
        <ele>855.20001220703</ele>
        <time>2021-06-10T06:02:49.182Z</time>
      </trkpt>
      <trkpt lat="44.53951" lon="6.2098">
        <ele>855.20001220703</ele>
        <time>2021-06-10T06:02:52.321Z</time>
      </trkpt>
      <trkpt lat="44.53958" lon="6.20975">
        <ele>854</ele>
        <time>2021-06-10T06:02:55.462Z</time>
      </trkpt>
      <trkpt lat="44.53967" lon="6.20971">
        <ele>851.79998779297</ele>
        <time>2021-06-10T06:02:58.606Z</time>
      </trkpt>
      <trkpt lat="44.53977" lon="6.2097">
        <ele>851.79998779297</ele>
        <time>2021-06-10T06:03:01.753Z</time>
      </trkpt>
      <trkpt lat="44.53981" lon="6.20972">
        <ele>848.59997558594</ele>
        <time>2021-06-10T06:03:04.902Z</time>
      </trkpt>
      <trkpt lat="44.53996" lon="6.20992">
        <ele>848.59997558594</ele>
        <time>2021-06-10T06:03:08.058Z</time>
      </trkpt>
      <trkpt lat="44.54009" lon="6.21015">
        <ele>841.20001220703</ele>
        <time>2021-06-10T06:03:11.220Z</time>
      </trkpt>
      <trkpt lat="44.54012" lon="6.21018">
        <ele>841.20001220703</ele>
        <time>2021-06-10T06:03:14.384Z</time>
      </trkpt>
      <trkpt lat="44.54019" lon="6.2102">
        <ele>841.20001220703</ele>
        <time>2021-06-10T06:03:17.550Z</time>
      </trkpt>
      <trkpt lat="44.54033" lon="6.21019">
        <ele>841.20001220703</ele>
        <time>2021-06-10T06:03:20.720Z</time>
      </trkpt>
      <trkpt lat="44.54045" lon="6.21036">
        <ele>830.20001220703</ele>
        <time>2021-06-10T06:03:23.896Z</time>
      </trkpt>
      <trkpt lat="44.54051" lon="6.21031">
        <ele>829</ele>
        <time>2021-06-10T06:03:27.074Z</time>
      </trkpt>
      <trkpt lat="44.54055" lon="6.21025">
        <ele>829</ele>
        <time>2021-06-10T06:03:30.254Z</time>
      </trkpt>
      <trkpt lat="44.54057" lon="6.21009">
        <ele>829</ele>
        <time>2021-06-10T06:03:33.438Z</time>
      </trkpt>
      <trkpt lat="44.54061" lon="6.21001">
        <ele>825.40002441406</ele>
        <time>2021-06-10T06:03:36.625Z</time>
      </trkpt>
      <trkpt lat="44.54065" lon="6.21001">
        <ele>824</ele>
        <time>2021-06-10T06:03:39.813Z</time>
      </trkpt>
      <trkpt lat="44.54071" lon="6.21">
        <ele>824</ele>
        <time>2021-06-10T06:03:43.003Z</time>
      </trkpt>
      <trkpt lat="44.54084" lon="6.20994">
        <ele>820.40002441406</ele>
        <time>2021-06-10T06:03:46.197Z</time>
      </trkpt>
      <trkpt lat="44.5409" lon="6.20997">
        <ele>820.40002441406</ele>
        <time>2021-06-10T06:03:49.393Z</time>
      </trkpt>
      <trkpt lat="44.54096" lon="6.21022">
        <ele>820</ele>
        <time>2021-06-10T06:03:52.596Z</time>
      </trkpt>
      <trkpt lat="44.54098" lon="6.21024">
        <ele>820</ele>
        <time>2021-06-10T06:03:55.799Z</time>
      </trkpt>
      <trkpt lat="44.54103" lon="6.21021">
        <ele>820.40002441406</ele>
        <time>2021-06-10T06:03:59.004Z</time>
      </trkpt>
      <trkpt lat="44.54112" lon="6.20998">
        <ele>820.40002441406</ele>
        <time>2021-06-10T06:04:02.215Z</time>
      </trkpt>
      <trkpt lat="44.54115" lon="6.20995">
        <ele>816.40002441406</ele>
        <time>2021-06-10T06:04:05.427Z</time>
      </trkpt>
      <trkpt lat="44.54136" lon="6.20984">
        <ele>816.40002441406</ele>
        <time>2021-06-10T06:04:08.647Z</time>
      </trkpt>
      <trkpt lat="44.54138" lon="6.20982">
        <ele>810.40002441406</ele>
        <time>2021-06-10T06:04:11.867Z</time>
      </trkpt>
      <trkpt lat="44.54141" lon="6.20967">
        <ele>810.40002441406</ele>
        <time>2021-06-10T06:04:15.091Z</time>
      </trkpt>
      <trkpt lat="44.54148" lon="6.20955">
        <ele>810.40002441406</ele>
        <time>2021-06-10T06:04:18.319Z</time>
      </trkpt>
      <trkpt lat="44.54156" lon="6.2095">
        <ele>800.20001220703</ele>
        <time>2021-06-10T06:04:21.550Z</time>
      </trkpt>
      <trkpt lat="44.54161" lon="6.2095">
        <ele>797.20001220703</ele>
        <time>2021-06-10T06:04:24.782Z</time>
      </trkpt>
      <trkpt lat="44.54164" lon="6.20953">
        <ele>797.20001220703</ele>
        <time>2021-06-10T06:04:28.015Z</time>
      </trkpt>
      <trkpt lat="44.54166" lon="6.2096">
        <ele>797.20001220703</ele>
        <time>2021-06-10T06:04:31.250Z</time>
      </trkpt>
      <trkpt lat="44.54164" lon="6.20979">
        <ele>793.79998779297</ele>
        <time>2021-06-10T06:04:34.490Z</time>
      </trkpt>
      <trkpt lat="44.54147" lon="6.21014">
        <ele>793.79998779297</ele>
        <time>2021-06-10T06:04:37.740Z</time>
      </trkpt>
      <trkpt lat="44.54142" lon="6.2103">
        <ele>787.59997558594</ele>
        <time>2021-06-10T06:04:40.994Z</time>
      </trkpt>
      <trkpt lat="44.54144" lon="6.21033">
        <ele>787.59997558594</ele>
        <time>2021-06-10T06:04:44.249Z</time>
      </trkpt>
      <trkpt lat="44.54152" lon="6.21032">
        <ele>787.59997558594</ele>
        <time>2021-06-10T06:04:47.506Z</time>
      </trkpt>
      <trkpt lat="44.54159" lon="6.21022">
        <ele>785</ele>
        <time>2021-06-10T06:04:50.766Z</time>
      </trkpt>
      <trkpt lat="44.54163" lon="6.21021">
        <ele>785</ele>
        <time>2021-06-10T06:04:54.028Z</time>
      </trkpt>
      <trkpt lat="44.54176" lon="6.2101">
        <ele>785</ele>
        <time>2021-06-10T06:04:57.294Z</time>
      </trkpt>
      <trkpt lat="44.54199" lon="6.21002">
        <ele>781</ele>
        <time>2021-06-10T06:05:00.568Z</time>
      </trkpt>
      <trkpt lat="44.54254" lon="6.2096">
        <ele>778.59997558594</ele>
        <time>2021-06-10T06:05:03.863Z</time>
      </trkpt>
      <trkpt lat="44.54261" lon="6.2096">
        <ele>778.59997558594</ele>
        <time>2021-06-10T06:05:07.160Z</time>
      </trkpt>
      <trkpt lat="44.54277" lon="6.20953">
        <ele>778.59997558594</ele>
        <time>2021-06-10T06:05:10.463Z</time>
      </trkpt>
      <trkpt lat="44.54295" lon="6.20928">
        <ele>778.59997558594</ele>
        <time>2021-06-10T06:05:13.774Z</time>
      </trkpt>
      <trkpt lat="44.54306" lon="6.20905">
        <ele>776.59997558594</ele>
        <time>2021-06-10T06:05:17.091Z</time>
      </trkpt>
      <trkpt lat="44.54319" lon="6.20871">
        <ele>776.59997558594</ele>
        <time>2021-06-10T06:05:20.418Z</time>
      </trkpt>
      <trkpt lat="44.54337" lon="6.20847">
        <ele>776.59997558594</ele>
        <time>2021-06-10T06:05:23.753Z</time>
      </trkpt>
      <trkpt lat="44.54353" lon="6.20813">
        <ele>771.59997558594</ele>
        <time>2021-06-10T06:05:27.097Z</time>
      </trkpt>
      <trkpt lat="44.54365" lon="6.20801">
        <ele>771.59997558594</ele>
        <time>2021-06-10T06:05:30.446Z</time>
      </trkpt>
      <trkpt lat="44.5437" lon="6.20804">
        <ele>771.59997558594</ele>
        <time>2021-06-10T06:05:33.797Z</time>
      </trkpt>
      <trkpt lat="44.54381" lon="6.20802">
        <ele>771.59997558594</ele>
        <time>2021-06-10T06:05:37.152Z</time>
      </trkpt>
      <trkpt lat="44.54418" lon="6.20827">
        <ele>769.79998779297</ele>
        <time>2021-06-10T06:05:40.520Z</time>
      </trkpt>
      <trkpt lat="44.54443" lon="6.20849">
        <ele>769.79998779297</ele>
        <time>2021-06-10T06:05:43.897Z</time>
      </trkpt>
      <trkpt lat="44.54464" lon="6.20871">
        <ele>768.40002441406</ele>
        <time>2021-06-10T06:05:47.283Z</time>
      </trkpt>
      <trkpt lat="44.54502" lon="6.20901">
        <ele>767.79998779297</ele>
        <time>2021-06-10T06:05:50.683Z</time>
      </trkpt>
      <trkpt lat="44.54526" lon="6.20918">
        <ele>767.79998779297</ele>
        <time>2021-06-10T06:05:54.092Z</time>
      </trkpt>
      <trkpt lat="44.54542" lon="6.20941">
        <ele>767.79998779297</ele>
        <time>2021-06-10T06:05:57.508Z</time>
      </trkpt>
      <trkpt lat="44.54545" lon="6.20954">
        <ele>774.20001220703</ele>
        <time>2021-06-10T06:06:00.928Z</time>
      </trkpt>
      <trkpt lat="44.54544" lon="6.20957">
        <ele>774.20001220703</ele>
        <time>2021-06-10T06:06:04.348Z</time>
      </trkpt>
      <trkpt lat="44.54536" lon="6.2096">
        <ele>775</ele>
        <time>2021-06-10T06:06:07.771Z</time>
      </trkpt>
      <trkpt lat="44.54527" lon="6.20956">
        <ele>776.79998779297</ele>
        <time>2021-06-10T06:06:11.197Z</time>
      </trkpt>
      <trkpt lat="44.54519" lon="6.20957">
        <ele>776.79998779297</ele>
        <time>2021-06-10T06:06:14.626Z</time>
      </trkpt>
      <trkpt lat="44.54514" lon="6.20959">
        <ele>778.79998779297</ele>
        <time>2021-06-10T06:06:18.057Z</time>
      </trkpt>
      <trkpt lat="44.54511" lon="6.20969">
        <ele>779.59997558594</ele>
        <time>2021-06-10T06:06:21.490Z</time>
      </trkpt>
      <trkpt lat="44.54513" lon="6.21001">
        <ele>784</ele>
        <time>2021-06-10T06:06:24.931Z</time>
      </trkpt>
      <trkpt lat="44.54518" lon="6.21029">
        <ele>784</ele>
        <time>2021-06-10T06:06:28.378Z</time>
      </trkpt>
      <trkpt lat="44.54517" lon="6.21049">
        <ele>784</ele>
        <time>2021-06-10T06:06:31.830Z</time>
      </trkpt>
      <trkpt lat="44.5452" lon="6.21073">
        <ele>791</ele>
        <time>2021-06-10T06:06:35.288Z</time>
      </trkpt>
      <trkpt lat="44.5452" lon="6.21083">
        <ele>792</ele>
        <time>2021-06-10T06:06:38.748Z</time>
      </trkpt>
      <trkpt lat="44.54527" lon="6.21121">
        <ele>792</ele>
        <time>2021-06-10T06:06:42.217Z</time>
      </trkpt>
      <trkpt lat="44.54545" lon="6.21171">
        <ele>792</ele>
        <time>2021-06-10T06:06:45.700Z</time>
      </trkpt>
      <trkpt lat="44.54547" lon="6.2119">
        <ele>800.79998779297</ele>
        <time>2021-06-10T06:06:49.187Z</time>
      </trkpt>
      <trkpt lat="44.54543" lon="6.21204">
        <ele>800.79998779297</ele>
        <time>2021-06-10T06:06:52.678Z</time>
      </trkpt>
      <trkpt lat="44.54544" lon="6.21213">
        <ele>800.79998779297</ele>
        <time>2021-06-10T06:06:56.171Z</time>
      </trkpt>
      <trkpt lat="44.5456" lon="6.21266">
        <ele>808.20001220703</ele>
        <time>2021-06-10T06:06:59.677Z</time>
      </trkpt>
      <trkpt lat="44.54561" lon="6.2127">
        <ele>808.20001220703</ele>
        <time>2021-06-10T06:07:03.184Z</time>
      </trkpt>
      <trkpt lat="44.5456" lon="6.21285">
        <ele>809.79998779297</ele>
        <time>2021-06-10T06:07:06.695Z</time>
      </trkpt>
      <trkpt lat="44.54568" lon="6.21307">
        <ele>809.79998779297</ele>
        <time>2021-06-10T06:07:10.212Z</time>
      </trkpt>
      <trkpt lat="44.54582" lon="6.21356">
        <ele>814</ele>
        <time>2021-06-10T06:07:13.741Z</time>
      </trkpt>
      <trkpt lat="44.54588" lon="6.21369">
        <ele>815.20001220703</ele>
        <time>2021-06-10T06:07:17.273Z</time>
      </trkpt>
      <trkpt lat="44.54593" lon="6.21441">
        <ele>815.20001220703</ele>
        <time>2021-06-10T06:07:20.822Z</time>
      </trkpt>
      <trkpt lat="44.54599" lon="6.21456">
        <ele>815.20001220703</ele>
        <time>2021-06-10T06:07:24.375Z</time>
      </trkpt>
      <trkpt lat="44.54603" lon="6.21489">
        <ele>823.40002441406</ele>
        <time>2021-06-10T06:07:27.936Z</time>
      </trkpt>
      <trkpt lat="44.54607" lon="6.21507">
        <ele>824.59997558594</ele>
        <time>2021-06-10T06:07:31.502Z</time>
      </trkpt>
      <trkpt lat="44.54604" lon="6.21519">
        <ele>825.79998779297</ele>
        <time>2021-06-10T06:07:35.071Z</time>
      </trkpt>
      <trkpt lat="44.54604" lon="6.21535">
        <ele>825.79998779297</ele>
        <time>2021-06-10T06:07:38.643Z</time>
      </trkpt>
      <trkpt lat="44.54617" lon="6.21597">
        <ele>833</ele>
        <time>2021-06-10T06:07:42.231Z</time>
      </trkpt>
      <trkpt lat="44.54621" lon="6.21636">
        <ele>833</ele>
        <time>2021-06-10T06:07:45.828Z</time>
      </trkpt>
      <trkpt lat="44.54629" lon="6.21663">
        <ele>833</ele>
        <time>2021-06-10T06:07:49.432Z</time>
      </trkpt>
      <trkpt lat="44.54631" lon="6.21687">
        <ele>842.20001220703</ele>
        <time>2021-06-10T06:07:53.041Z</time>
      </trkpt>
      <trkpt lat="44.54646" lon="6.21721">
        <ele>846.59997558594</ele>
        <time>2021-06-10T06:07:56.660Z</time>
      </trkpt>
      <trkpt lat="44.54649" lon="6.2173">
        <ele>847.59997558594</ele>
        <time>2021-06-10T06:08:00.281Z</time>
      </trkpt>
      <trkpt lat="44.54649" lon="6.21753">
        <ele>850.20001220703</ele>
        <time>2021-06-10T06:08:03.907Z</time>
      </trkpt>
      <trkpt lat="44.54651" lon="6.21766">
        <ele>850.20001220703</ele>
        <time>2021-06-10T06:08:07.536Z</time>
      </trkpt>
      <trkpt lat="44.54658" lon="6.21776">
        <ele>850.20001220703</ele>
        <time>2021-06-10T06:08:11.169Z</time>
      </trkpt>
      <trkpt lat="44.54663" lon="6.21792">
        <ele>850.20001220703</ele>
        <time>2021-06-10T06:08:14.806Z</time>
      </trkpt>
      <trkpt lat="44.54666" lon="6.21807">
        <ele>856.20001220703</ele>
        <time>2021-06-10T06:08:18.446Z</time>
      </trkpt>
      <trkpt lat="44.5468" lon="6.21844">
        <ele>860.79998779297</ele>
        <time>2021-06-10T06:08:22.096Z</time>
      </trkpt>
      <trkpt lat="44.54698" lon="6.21884">
        <ele>865.40002441406</ele>
        <time>2021-06-10T06:08:25.757Z</time>
      </trkpt>
      <trkpt lat="44.54702" lon="6.21901">
        <ele>868</ele>
        <time>2021-06-10T06:08:29.422Z</time>
      </trkpt>
      <trkpt lat="44.54704" lon="6.21916">
        <ele>869.20001220703</ele>
        <time>2021-06-10T06:08:33.091Z</time>
      </trkpt>
      <trkpt lat="44.54701" lon="6.21954">
        <ele>872.59997558594</ele>
        <time>2021-06-10T06:08:36.769Z</time>
      </trkpt>
      <trkpt lat="44.54696" lon="6.21976">
        <ele>876.59997558594</ele>
        <time>2021-06-10T06:08:40.452Z</time>
      </trkpt>
      <trkpt lat="44.54691" lon="6.21989">
        <ele>876.59997558594</ele>
        <time>2021-06-10T06:08:44.139Z</time>
      </trkpt>
      <trkpt lat="44.5468" lon="6.22004">
        <ele>876.59997558594</ele>
        <time>2021-06-10T06:08:47.831Z</time>
      </trkpt>
      <trkpt lat="44.54673" lon="6.22021">
        <ele>876.59997558594</ele>
        <time>2021-06-10T06:08:51.527Z</time>
      </trkpt>
      <trkpt lat="44.54655" lon="6.22048">
        <ele>876.59997558594</ele>
        <time>2021-06-10T06:08:55.232Z</time>
      </trkpt>
      <trkpt lat="44.54648" lon="6.22063">
        <ele>883</ele>
        <time>2021-06-10T06:08:58.941Z</time>
      </trkpt>
      <trkpt lat="44.54638" lon="6.22071">
        <ele>882.20001220703</ele>
        <time>2021-06-10T06:09:02.654Z</time>
      </trkpt>
      <trkpt lat="44.54613" lon="6.22075">
        <ele>882.20001220703</ele>
        <time>2021-06-10T06:09:06.375Z</time>
      </trkpt>
      <trkpt lat="44.5459" lon="6.22087">
        <ele>882.20001220703</ele>
        <time>2021-06-10T06:09:10.104Z</time>
      </trkpt>
      <trkpt lat="44.54553" lon="6.22141">
        <ele>882.20001220703</ele>
        <time>2021-06-10T06:09:13.851Z</time>
      </trkpt>
      <trkpt lat="44.54533" lon="6.22158">
        <ele>882.20001220703</ele>
        <time>2021-06-10T06:09:17.605Z</time>
      </trkpt>
      <trkpt lat="44.54524" lon="6.22168">
        <ele>884.59997558594</ele>
        <time>2021-06-10T06:09:21.363Z</time>
      </trkpt>
      <trkpt lat="44.54506" lon="6.22208">
        <ele>884.59997558594</ele>
        <time>2021-06-10T06:09:25.132Z</time>
      </trkpt>
      <trkpt lat="44.54493" lon="6.22225">
        <ele>884.59997558594</ele>
        <time>2021-06-10T06:09:28.907Z</time>
      </trkpt>
      <trkpt lat="44.54477" lon="6.22234">
        <ele>885.79998779297</ele>
        <time>2021-06-10T06:09:32.687Z</time>
      </trkpt>
      <trkpt lat="44.54437" lon="6.22243">
        <ele>885.79998779297</ele>
        <time>2021-06-10T06:09:36.481Z</time>
      </trkpt>
      <trkpt lat="44.54413" lon="6.22253">
        <ele>885.79998779297</ele>
        <time>2021-06-10T06:09:40.283Z</time>
      </trkpt>
      <trkpt lat="44.54407" lon="6.22249">
        <ele>885.79998779297</ele>
        <time>2021-06-10T06:09:44.087Z</time>
      </trkpt>
      <trkpt lat="44.54395" lon="6.22247">
        <ele>896.20001220703</ele>
        <time>2021-06-10T06:09:47.895Z</time>
      </trkpt>
      <trkpt lat="44.5439" lon="6.22254">
        <ele>896.20001220703</ele>
        <time>2021-06-10T06:09:51.705Z</time>
      </trkpt>
      <trkpt lat="44.54369" lon="6.2229">
        <ele>892.20001220703</ele>
        <time>2021-06-10T06:09:55.526Z</time>
      </trkpt>
      <trkpt lat="44.54346" lon="6.22288">
        <ele>894.59997558594</ele>
        <time>2021-06-10T06:09:59.355Z</time>
      </trkpt>
      <trkpt lat="44.54334" lon="6.22299">
        <ele>898.40002441406</ele>
        <time>2021-06-10T06:10:03.188Z</time>
      </trkpt>
      <trkpt lat="44.54323" lon="6.22312">
        <ele>898.40002441406</ele>
        <time>2021-06-10T06:10:07.026Z</time>
      </trkpt>
      <trkpt lat="44.54312" lon="6.22344">
        <ele>898.40002441406</ele>
        <time>2021-06-10T06:10:10.873Z</time>
      </trkpt>
      <trkpt lat="44.543" lon="6.22363">
        <ele>908.79998779297</ele>
        <time>2021-06-10T06:10:14.725Z</time>
      </trkpt>
      <trkpt lat="44.54284" lon="6.22391">
        <ele>912</ele>
        <time>2021-06-10T06:10:18.586Z</time>
      </trkpt>
      <trkpt lat="44.54279" lon="6.22444">
        <ele>912</ele>
        <time>2021-06-10T06:10:22.459Z</time>
      </trkpt>
      <trkpt lat="44.5428" lon="6.22463">
        <ele>912</ele>
        <time>2021-06-10T06:10:26.337Z</time>
      </trkpt>
      <trkpt lat="44.54285" lon="6.22475">
        <ele>917.79998779297</ele>
        <time>2021-06-10T06:10:30.218Z</time>
      </trkpt>
      <trkpt lat="44.54293" lon="6.22488">
        <ele>918.79998779297</ele>
        <time>2021-06-10T06:10:34.103Z</time>
      </trkpt>
      <trkpt lat="44.54325" lon="6.22528">
        <ele>922.40002441406</ele>
        <time>2021-06-10T06:10:38.002Z</time>
      </trkpt>
      <trkpt lat="44.54328" lon="6.22543">
        <ele>922.40002441406</ele>
        <time>2021-06-10T06:10:41.905Z</time>
      </trkpt>
      <trkpt lat="44.5433" lon="6.22564">
        <ele>922.40002441406</ele>
        <time>2021-06-10T06:10:45.813Z</time>
      </trkpt>
      <trkpt lat="44.54333" lon="6.22584">
        <ele>922.40002441406</ele>
        <time>2021-06-10T06:10:49.725Z</time>
      </trkpt>
      <trkpt lat="44.54351" lon="6.22626">
        <ele>922.40002441406</ele>
        <time>2021-06-10T06:10:53.649Z</time>
      </trkpt>
      <trkpt lat="44.54366" lon="6.2269">
        <ele>922.40002441406</ele>
        <time>2021-06-10T06:10:57.589Z</time>
      </trkpt>
      <trkpt lat="44.54381" lon="6.22723">
        <ele>935.59997558594</ele>
        <time>2021-06-10T06:11:01.538Z</time>
      </trkpt>
      <trkpt lat="44.54381" lon="6.22737">
        <ele>935.59997558594</ele>
        <time>2021-06-10T06:11:05.490Z</time>
      </trkpt>
      <trkpt lat="44.54383" lon="6.2275">
        <ele>938.59997558594</ele>
        <time>2021-06-10T06:11:09.445Z</time>
      </trkpt>
      <trkpt lat="44.54384" lon="6.22748">
        <ele>938.59997558594</ele>
        <time>2021-06-10T06:11:13.401Z</time>
      </trkpt>
      <trkpt lat="44.54379" lon="6.22712">
        <ele>938.59997558594</ele>
        <time>2021-06-10T06:11:17.365Z</time>
      </trkpt>
      <trkpt lat="44.54358" lon="6.22655">
        <ele>938.59997558594</ele>
        <time>2021-06-10T06:11:21.344Z</time>
      </trkpt>
      <trkpt lat="44.54352" lon="6.22624">
        <ele>932</ele>
        <time>2021-06-10T06:11:25.331Z</time>
      </trkpt>
      <trkpt lat="44.54335" lon="6.22584">
        <ele>928</ele>
        <time>2021-06-10T06:11:29.329Z</time>
      </trkpt>
      <trkpt lat="44.54332" lon="6.22572">
        <ele>928</ele>
        <time>2021-06-10T06:11:33.330Z</time>
      </trkpt>
      <trkpt lat="44.54327" lon="6.22527">
        <ele>924.40002441406</ele>
        <time>2021-06-10T06:11:37.341Z</time>
      </trkpt>
      <trkpt lat="44.54319" lon="6.22514">
        <ele>924.40002441406</ele>
        <time>2021-06-10T06:11:41.356Z</time>
      </trkpt>
      <trkpt lat="44.5429" lon="6.22478">
        <ele>921.20001220703</ele>
        <time>2021-06-10T06:11:45.384Z</time>
      </trkpt>
      <trkpt lat="44.54286" lon="6.22469">
        <ele>921.20001220703</ele>
        <time>2021-06-10T06:11:49.414Z</time>
      </trkpt>
      <trkpt lat="44.54282" lon="6.22446">
        <ele>918.40002441406</ele>
        <time>2021-06-10T06:11:53.450Z</time>
      </trkpt>
      <trkpt lat="44.54285" lon="6.22393">
        <ele>918.40002441406</ele>
        <time>2021-06-10T06:11:57.499Z</time>
      </trkpt>
      <trkpt lat="44.54305" lon="6.22345">
        <ele>918.40002441406</ele>
        <time>2021-06-10T06:12:01.560Z</time>
      </trkpt>
      <trkpt lat="44.54317" lon="6.22321">
        <ele>918.40002441406</ele>
        <time>2021-06-10T06:12:05.628Z</time>
      </trkpt>
      <trkpt lat="44.54321" lon="6.22304">
        <ele>903.59997558594</ele>
        <time>2021-06-10T06:12:09.701Z</time>
      </trkpt>
      <trkpt lat="44.54318" lon="6.22293">
        <ele>903.59997558594</ele>
        <time>2021-06-10T06:12:13.776Z</time>
      </trkpt>
      <trkpt lat="44.54312" lon="6.2229">
        <ele>903.59997558594</ele>
        <time>2021-06-10T06:12:17.853Z</time>
      </trkpt>
      <trkpt lat="44.54293" lon="6.22286">
        <ele>903.59997558594</ele>
        <time>2021-06-10T06:12:21.937Z</time>
      </trkpt>
      <trkpt lat="44.54269" lon="6.22287">
        <ele>903.59997558594</ele>
        <time>2021-06-10T06:12:26.029Z</time>
      </trkpt>
      <trkpt lat="44.54259" lon="6.22285">
        <ele>893.59997558594</ele>
        <time>2021-06-10T06:12:30.124Z</time>
      </trkpt>
      <trkpt lat="44.54248" lon="6.22287">
        <ele>895.20001220703</ele>
        <time>2021-06-10T06:12:34.222Z</time>
      </trkpt>
      <trkpt lat="44.5424" lon="6.22292">
        <ele>895.20001220703</ele>
        <time>2021-06-10T06:12:38.323Z</time>
      </trkpt>
      <trkpt lat="44.54224" lon="6.22296">
        <ele>895.20001220703</ele>
        <time>2021-06-10T06:12:42.429Z</time>
      </trkpt>
      <trkpt lat="44.5422" lon="6.22297">
        <ele>896</ele>
        <time>2021-06-10T06:12:46.537Z</time>
      </trkpt>
      <trkpt lat="44.5421" lon="6.22295">
        <ele>896</ele>
        <time>2021-06-10T06:12:50.648Z</time>
      </trkpt>
      <trkpt lat="44.54196" lon="6.22285">
        <ele>896</ele>
        <time>2021-06-10T06:12:54.764Z</time>
      </trkpt>
      <trkpt lat="44.54178" lon="6.22264">
        <ele>896</ele>
        <time>2021-06-10T06:12:58.888Z</time>
      </trkpt>
      <trkpt lat="44.54167" lon="6.22245">
        <ele>896</ele>
        <time>2021-06-10T06:13:03.018Z</time>
      </trkpt>
      <trkpt lat="44.54157" lon="6.22237">
        <ele>896</ele>
        <time>2021-06-10T06:13:07.152Z</time>
      </trkpt>
      <trkpt lat="44.54151" lon="6.22235">
        <ele>889</ele>
        <time>2021-06-10T06:13:11.288Z</time>
      </trkpt>
      <trkpt lat="44.54124" lon="6.22236">
        <ele>886.40002441406</ele>
        <time>2021-06-10T06:13:15.433Z</time>
      </trkpt>
      <trkpt lat="44.54106" lon="6.22242">
        <ele>886.40002441406</ele>
        <time>2021-06-10T06:13:19.584Z</time>
      </trkpt>
      <trkpt lat="44.54092" lon="6.22251">
        <ele>884.59997558594</ele>
        <time>2021-06-10T06:13:23.740Z</time>
      </trkpt>
      <trkpt lat="44.54085" lon="6.22247">
        <ele>884</ele>
        <time>2021-06-10T06:13:27.898Z</time>
      </trkpt>
      <trkpt lat="44.5408" lon="6.22228">
        <ele>884</ele>
        <time>2021-06-10T06:13:32.061Z</time>
      </trkpt>
      <trkpt lat="44.54075" lon="6.22221">
        <ele>886.79998779297</ele>
        <time>2021-06-10T06:13:36.226Z</time>
      </trkpt>
      <trkpt lat="44.54068" lon="6.22221">
        <ele>886.79998779297</ele>
        <time>2021-06-10T06:13:40.393Z</time>
      </trkpt>
      <trkpt lat="44.54055" lon="6.22229">
        <ele>886.79998779297</ele>
        <time>2021-06-10T06:13:44.565Z</time>
      </trkpt>
      <trkpt lat="44.54047" lon="6.2223">
        <ele>886.79998779297</ele>
        <time>2021-06-10T06:13:48.740Z</time>
      </trkpt>
      <trkpt lat="44.54043" lon="6.22225">
        <ele>892.79998779297</ele>
        <time>2021-06-10T06:13:52.916Z</time>
      </trkpt>
      <trkpt lat="44.54044" lon="6.22206">
        <ele>895.20001220703</ele>
        <time>2021-06-10T06:13:57.097Z</time>
      </trkpt>
      <trkpt lat="44.54039" lon="6.22195">
        <ele>896</ele>
        <time>2021-06-10T06:14:01.281Z</time>
      </trkpt>
      <trkpt lat="44.54014" lon="6.22177">
        <ele>896</ele>
        <time>2021-06-10T06:14:05.474Z</time>
      </trkpt>
      <trkpt lat="44.54007" lon="6.22175">
        <ele>899.79998779297</ele>
        <time>2021-06-10T06:14:09.670Z</time>
      </trkpt>
      <trkpt lat="44.53999" lon="6.22176">
        <ele>900.79998779297</ele>
        <time>2021-06-10T06:14:13.868Z</time>
      </trkpt>
      <trkpt lat="44.53994" lon="6.22173">
        <ele>900.79998779297</ele>
        <time>2021-06-10T06:14:18.068Z</time>
      </trkpt>
      <trkpt lat="44.53983" lon="6.22159">
        <ele>900.79998779297</ele>
        <time>2021-06-10T06:14:22.273Z</time>
      </trkpt>
      <trkpt lat="44.53971" lon="6.22131">
        <ele>900.79998779297</ele>
        <time>2021-06-10T06:14:26.485Z</time>
      </trkpt>
      <trkpt lat="44.53965" lon="6.22126">
        <ele>904.40002441406</ele>
        <time>2021-06-10T06:14:30.700Z</time>
      </trkpt>
      <trkpt lat="44.53956" lon="6.22122">
        <ele>905.20001220703</ele>
        <time>2021-06-10T06:14:34.918Z</time>
      </trkpt>
      <trkpt lat="44.53948" lon="6.22109">
        <ele>907.40002441406</ele>
        <time>2021-06-10T06:14:39.140Z</time>
      </trkpt>
      <trkpt lat="44.53926" lon="6.22065">
        <ele>911.20001220703</ele>
        <time>2021-06-10T06:14:43.374Z</time>
      </trkpt>
      <trkpt lat="44.53924" lon="6.22031">
        <ele>911.20001220703</ele>
        <time>2021-06-10T06:14:47.616Z</time>
      </trkpt>
      <trkpt lat="44.53924" lon="6.21984">
        <ele>921.79998779297</ele>
        <time>2021-06-10T06:14:51.869Z</time>
      </trkpt>
      <trkpt lat="44.53921" lon="6.21977">
        <ele>921.79998779297</ele>
        <time>2021-06-10T06:14:56.124Z</time>
      </trkpt>
      <trkpt lat="44.53916" lon="6.21971">
        <ele>921.79998779297</ele>
        <time>2021-06-10T06:15:00.381Z</time>
      </trkpt>
      <trkpt lat="44.53888" lon="6.21952">
        <ele>921.79998779297</ele>
        <time>2021-06-10T06:15:04.648Z</time>
      </trkpt>
      <trkpt lat="44.5388" lon="6.21948">
        <ele>921.79998779297</ele>
        <time>2021-06-10T06:15:08.918Z</time>
      </trkpt>
      <trkpt lat="44.53853" lon="6.2195">
        <ele>921.79998779297</ele>
        <time>2021-06-10T06:15:13.197Z</time>
      </trkpt>
      <trkpt lat="44.53847" lon="6.21953">
        <ele>936.79998779297</ele>
        <time>2021-06-10T06:15:17.478Z</time>
      </trkpt>
      <trkpt lat="44.53838" lon="6.21966">
        <ele>937.20001220703</ele>
        <time>2021-06-10T06:15:21.763Z</time>
      </trkpt>
      <trkpt lat="44.5383" lon="6.21983">
        <ele>938</ele>
        <time>2021-06-10T06:15:26.053Z</time>
      </trkpt>
      <trkpt lat="44.53819" lon="6.22002">
        <ele>938</ele>
        <time>2021-06-10T06:15:30.349Z</time>
      </trkpt>
      <trkpt lat="44.53806" lon="6.22016">
        <ele>938.59997558594</ele>
        <time>2021-06-10T06:15:34.650Z</time>
      </trkpt>
      <trkpt lat="44.53787" lon="6.22028">
        <ele>938.59997558594</ele>
        <time>2021-06-10T06:15:38.958Z</time>
      </trkpt>
      <trkpt lat="44.53766" lon="6.22056">
        <ele>936.79998779297</ele>
        <time>2021-06-10T06:15:43.275Z</time>
      </trkpt>
      <trkpt lat="44.53728" lon="6.22099">
        <ele>936.79998779297</ele>
        <time>2021-06-10T06:15:47.608Z</time>
      </trkpt>
      <trkpt lat="44.53725" lon="6.22088">
        <ele>936.79998779297</ele>
        <time>2021-06-10T06:15:51.944Z</time>
      </trkpt>
      <trkpt lat="44.53725" lon="6.22065">
        <ele>933.59997558594</ele>
        <time>2021-06-10T06:15:56.286Z</time>
      </trkpt>
      <trkpt lat="44.53723" lon="6.2206">
        <ele>933.59997558594</ele>
        <time>2021-06-10T06:16:00.629Z</time>
      </trkpt>
      <trkpt lat="44.53701" lon="6.22053">
        <ele>931.59997558594</ele>
        <time>2021-06-10T06:16:04.979Z</time>
      </trkpt>
      <trkpt lat="44.53671" lon="6.22071">
        <ele>935.40002441406</ele>
        <time>2021-06-10T06:16:09.340Z</time>
      </trkpt>
      <trkpt lat="44.53658" lon="6.22087">
        <ele>935.40002441406</ele>
        <time>2021-06-10T06:16:13.707Z</time>
      </trkpt>
      <trkpt lat="44.53656" lon="6.22087">
        <ele>939.20001220703</ele>
        <time>2021-06-10T06:16:18.074Z</time>
      </trkpt>
      <trkpt lat="44.53652" lon="6.22082">
        <ele>940.40002441406</ele>
        <time>2021-06-10T06:16:22.443Z</time>
      </trkpt>
      <trkpt lat="44.53657" lon="6.22061">
        <ele>942.40002441406</ele>
        <time>2021-06-10T06:16:26.817Z</time>
      </trkpt>
      <trkpt lat="44.53651" lon="6.22032">
        <ele>942.40002441406</ele>
        <time>2021-06-10T06:16:31.198Z</time>
      </trkpt>
      <trkpt lat="44.53654" lon="6.22029">
        <ele>945.20001220703</ele>
        <time>2021-06-10T06:16:35.580Z</time>
      </trkpt>
      <trkpt lat="44.53664" lon="6.22025">
        <ele>945.20001220703</ele>
        <time>2021-06-10T06:16:39.966Z</time>
      </trkpt>
      <trkpt lat="44.53672" lon="6.22019">
        <ele>946.79998779297</ele>
        <time>2021-06-10T06:16:44.355Z</time>
      </trkpt>
      <trkpt lat="44.5368" lon="6.22009">
        <ele>947.79998779297</ele>
        <time>2021-06-10T06:16:48.747Z</time>
      </trkpt>
      <trkpt lat="44.53689" lon="6.21993">
        <ele>948.79998779297</ele>
        <time>2021-06-10T06:16:53.144Z</time>
      </trkpt>
      <trkpt lat="44.53693" lon="6.2198">
        <ele>948.79998779297</ele>
        <time>2021-06-10T06:16:57.544Z</time>
      </trkpt>
      <trkpt lat="44.53694" lon="6.2196">
        <ele>948.79998779297</ele>
        <time>2021-06-10T06:17:01.949Z</time>
      </trkpt>
      <trkpt lat="44.53694" lon="6.21947">
        <ele>952.20001220703</ele>
        <time>2021-06-10T06:17:06.357Z</time>
      </trkpt>
      <trkpt lat="44.53692" lon="6.21936">
        <ele>952.79998779297</ele>
        <time>2021-06-10T06:17:10.768Z</time>
      </trkpt>
      <trkpt lat="44.53687" lon="6.21934">
        <ele>952.79998779297</ele>
        <time>2021-06-10T06:17:15.181Z</time>
      </trkpt>
      <trkpt lat="44.53683" lon="6.21942">
        <ele>954.20001220703</ele>
        <time>2021-06-10T06:17:19.596Z</time>
      </trkpt>
      <trkpt lat="44.5368" lon="6.21962">
        <ele>954.20001220703</ele>
        <time>2021-06-10T06:17:24.016Z</time>
      </trkpt>
      <trkpt lat="44.53674" lon="6.21973">
        <ele>956.79998779297</ele>
        <time>2021-06-10T06:17:28.439Z</time>
      </trkpt>
      <trkpt lat="44.53668" lon="6.2198">
        <ele>958</ele>
        <time>2021-06-10T06:17:32.864Z</time>
      </trkpt>
      <trkpt lat="44.5366" lon="6.21983">
        <ele>958</ele>
        <time>2021-06-10T06:17:37.292Z</time>
      </trkpt>
      <trkpt lat="44.53651" lon="6.21983">
        <ele>959</ele>
        <time>2021-06-10T06:17:41.723Z</time>
      </trkpt>
      <trkpt lat="44.5361" lon="6.21985">
        <ele>959</ele>
        <time>2021-06-10T06:17:46.167Z</time>
      </trkpt>
      <trkpt lat="44.53601" lon="6.21983">
        <ele>962</ele>
        <time>2021-06-10T06:17:50.614Z</time>
      </trkpt>
      <trkpt lat="44.53587" lon="6.21974">
        <ele>962</ele>
        <time>2021-06-10T06:17:55.066Z</time>
      </trkpt>
      <trkpt lat="44.53568" lon="6.21942">
        <ele>962</ele>
        <time>2021-06-10T06:17:59.528Z</time>
      </trkpt>
      <trkpt lat="44.5355" lon="6.21922">
        <ele>967.79998779297</ele>
        <time>2021-06-10T06:18:03.998Z</time>
      </trkpt>
      <trkpt lat="44.53536" lon="6.21909">
        <ele>969</ele>
        <time>2021-06-10T06:18:08.473Z</time>
      </trkpt>
      <trkpt lat="44.53518" lon="6.21899">
        <ele>969</ele>
        <time>2021-06-10T06:18:12.955Z</time>
      </trkpt>
      <trkpt lat="44.53505" lon="6.21889">
        <ele>969</ele>
        <time>2021-06-10T06:18:17.441Z</time>
      </trkpt>
      <trkpt lat="44.53498" lon="6.21885">
        <ele>972</ele>
        <time>2021-06-10T06:18:21.930Z</time>
      </trkpt>
      <trkpt lat="44.53496" lon="6.21886">
        <ele>972</ele>
        <time>2021-06-10T06:18:26.420Z</time>
      </trkpt>
      <trkpt lat="44.53494" lon="6.21894">
        <ele>972.40002441406</ele>
        <time>2021-06-10T06:18:30.912Z</time>
      </trkpt>
      <trkpt lat="44.53495" lon="6.21897">
        <ele>972.40002441406</ele>
        <time>2021-06-10T06:18:35.404Z</time>
      </trkpt>
      <trkpt lat="44.53517" lon="6.21915">
        <ele>976</ele>
        <time>2021-06-10T06:18:39.905Z</time>
      </trkpt>
      <trkpt lat="44.53528" lon="6.21932">
        <ele>977</ele>
        <time>2021-06-10T06:18:44.411Z</time>
      </trkpt>
      <trkpt lat="44.53531" lon="6.21945">
        <ele>978</ele>
        <time>2021-06-10T06:18:48.920Z</time>
      </trkpt>
      <trkpt lat="44.53531" lon="6.21955">
        <ele>978.40002441406</ele>
        <time>2021-06-10T06:18:53.432Z</time>
      </trkpt>
      <trkpt lat="44.53528" lon="6.21974">
        <ele>979.59997558594</ele>
        <time>2021-06-10T06:18:57.948Z</time>
      </trkpt>
      <trkpt lat="44.53519" lon="6.22001">
        <ele>979.59997558594</ele>
        <time>2021-06-10T06:19:02.471Z</time>
      </trkpt>
      <trkpt lat="44.53513" lon="6.22013">
        <ele>983.20001220703</ele>
        <time>2021-06-10T06:19:06.998Z</time>
      </trkpt>
      <trkpt lat="44.53509" lon="6.22042">
        <ele>983.20001220703</ele>
        <time>2021-06-10T06:19:11.532Z</time>
      </trkpt>
      <trkpt lat="44.53503" lon="6.22059">
        <ele>986.59997558594</ele>
        <time>2021-06-10T06:19:16.070Z</time>
      </trkpt>
      <trkpt lat="44.535" lon="6.22075">
        <ele>986.59997558594</ele>
        <time>2021-06-10T06:19:20.612Z</time>
      </trkpt>
      <trkpt lat="44.53505" lon="6.22092">
        <ele>988.79998779297</ele>
        <time>2021-06-10T06:19:25.158Z</time>
      </trkpt>
      <trkpt lat="44.53505" lon="6.22108">
        <ele>988.79998779297</ele>
        <time>2021-06-10T06:19:29.708Z</time>
      </trkpt>
      <trkpt lat="44.5349" lon="6.22131">
        <ele>992.20001220703</ele>
        <time>2021-06-10T06:19:34.265Z</time>
      </trkpt>
      <trkpt lat="44.53482" lon="6.22148">
        <ele>992.20001220703</ele>
        <time>2021-06-10T06:19:38.827Z</time>
      </trkpt>
      <trkpt lat="44.53476" lon="6.22182">
        <ele>996</ele>
        <time>2021-06-10T06:19:43.397Z</time>
      </trkpt>
      <trkpt lat="44.53477" lon="6.22251">
        <ele>996</ele>
        <time>2021-06-10T06:19:47.983Z</time>
      </trkpt>
      <trkpt lat="44.53471" lon="6.22283">
        <ele>996</ele>
        <time>2021-06-10T06:19:52.577Z</time>
      </trkpt>
      <trkpt lat="44.53466" lon="6.22299">
        <ele>996</ele>
        <time>2021-06-10T06:19:57.175Z</time>
      </trkpt>
      <trkpt lat="44.53461" lon="6.22308">
        <ele>996</ele>
        <time>2021-06-10T06:20:01.776Z</time>
      </trkpt>
      <trkpt lat="44.53418" lon="6.22318">
        <ele>1007.200012207</ele>
        <time>2021-06-10T06:20:06.391Z</time>
      </trkpt>
      <trkpt lat="44.53384" lon="6.2233">
        <ele>1010.4000244141</ele>
        <time>2021-06-10T06:20:11.017Z</time>
      </trkpt>
      <trkpt lat="44.53376" lon="6.22332">
        <ele>1010.4000244141</ele>
        <time>2021-06-10T06:20:15.646Z</time>
      </trkpt>
      <trkpt lat="44.5337" lon="6.22331">
        <ele>1011.5999755859</ele>
        <time>2021-06-10T06:20:20.277Z</time>
      </trkpt>
      <trkpt lat="44.53362" lon="6.22326">
        <ele>1011.5999755859</ele>
        <time>2021-06-10T06:20:24.911Z</time>
      </trkpt>
      <trkpt lat="44.53357" lon="6.22321">
        <ele>1012.799987793</ele>
        <time>2021-06-10T06:20:29.547Z</time>
      </trkpt>
      <trkpt lat="44.53338" lon="6.22289">
        <ele>1012.799987793</ele>
        <time>2021-06-10T06:20:34.193Z</time>
      </trkpt>
      <trkpt lat="44.53333" lon="6.22285">
        <ele>1017</ele>
        <time>2021-06-10T06:20:38.841Z</time>
      </trkpt>
      <trkpt lat="44.53325" lon="6.22286">
        <ele>1017</ele>
        <time>2021-06-10T06:20:43.491Z</time>
      </trkpt>
      <trkpt lat="44.53323" lon="6.22288">
        <ele>1018.4000244141</ele>
        <time>2021-06-10T06:20:48.142Z</time>
      </trkpt>
      <trkpt lat="44.53325" lon="6.22292">
        <ele>1018.4000244141</ele>
        <time>2021-06-10T06:20:52.794Z</time>
      </trkpt>
      <trkpt lat="44.53324" lon="6.22295">
        <ele>1018.799987793</ele>
        <time>2021-06-10T06:20:57.447Z</time>
      </trkpt>
      <trkpt lat="44.53314" lon="6.2232">
        <ele>1018.799987793</ele>
        <time>2021-06-10T06:21:02.107Z</time>
      </trkpt>
      <trkpt lat="44.53295" lon="6.22339">
        <ele>1018.799987793</ele>
        <time>2021-06-10T06:21:06.774Z</time>
      </trkpt>
      <trkpt lat="44.53285" lon="6.22352">
        <ele>1018.799987793</ele>
        <time>2021-06-10T06:21:11.446Z</time>
      </trkpt>
      <trkpt lat="44.53268" lon="6.22382">
        <ele>1025.5999755859</ele>
        <time>2021-06-10T06:21:16.127Z</time>
      </trkpt>
      <trkpt lat="44.53264" lon="6.22394">
        <ele>1025.5999755859</ele>
        <time>2021-06-10T06:21:20.811Z</time>
      </trkpt>
      <trkpt lat="44.53267" lon="6.22415">
        <ele>1028.5999755859</ele>
        <time>2021-06-10T06:21:25.500Z</time>
      </trkpt>
      <trkpt lat="44.53276" lon="6.22457">
        <ele>1033</ele>
        <time>2021-06-10T06:21:30.199Z</time>
      </trkpt>
      <trkpt lat="44.5327" lon="6.22496">
        <ele>1033</ele>
        <time>2021-06-10T06:21:34.907Z</time>
      </trkpt>
      <trkpt lat="44.53262" lon="6.22522">
        <ele>1042.1999511719</ele>
        <time>2021-06-10T06:21:39.622Z</time>
      </trkpt>
      <trkpt lat="44.53263" lon="6.22531">
        <ele>1043.1999511719</ele>
        <time>2021-06-10T06:21:44.339Z</time>
      </trkpt>
      <trkpt lat="44.53299" lon="6.22603">
        <ele>1043.1999511719</ele>
        <time>2021-06-10T06:21:49.077Z</time>
      </trkpt>
      <trkpt lat="44.53315" lon="6.2262">
        <ele>1043.1999511719</ele>
        <time>2021-06-10T06:21:53.821Z</time>
      </trkpt>
      <trkpt lat="44.53338" lon="6.2264">
        <ele>1043.1999511719</ele>
        <time>2021-06-10T06:21:58.574Z</time>
      </trkpt>
      <trkpt lat="44.53345" lon="6.2267">
        <ele>1043.1999511719</ele>
        <time>2021-06-10T06:22:03.334Z</time>
      </trkpt>
      <trkpt lat="44.53352" lon="6.22687">
        <ele>1052.1999511719</ele>
        <time>2021-06-10T06:22:08.099Z</time>
      </trkpt>
      <trkpt lat="44.53357" lon="6.22709">
        <ele>1052.1999511719</ele>
        <time>2021-06-10T06:22:12.869Z</time>
      </trkpt>
      <trkpt lat="44.53369" lon="6.22767">
        <ele>1052.1999511719</ele>
        <time>2021-06-10T06:22:17.653Z</time>
      </trkpt>
      <trkpt lat="44.53371" lon="6.22795">
        <ele>1048.5999755859</ele>
        <time>2021-06-10T06:22:22.444Z</time>
      </trkpt>
      <trkpt lat="44.5338" lon="6.22847">
        <ele>1049</ele>
        <time>2021-06-10T06:22:27.248Z</time>
      </trkpt>
      <trkpt lat="44.53396" lon="6.229">
        <ele>1050.5999755859</ele>
        <time>2021-06-10T06:22:32.065Z</time>
      </trkpt>
      <trkpt lat="44.53407" lon="6.22914">
        <ele>1050.1999511719</ele>
        <time>2021-06-10T06:22:36.887Z</time>
      </trkpt>
      <trkpt lat="44.53423" lon="6.22943">
        <ele>1049.4000244141</ele>
        <time>2021-06-10T06:22:41.717Z</time>
      </trkpt>
      <trkpt lat="44.53442" lon="6.22968">
        <ele>1049.4000244141</ele>
        <time>2021-06-10T06:22:46.556Z</time>
      </trkpt>
      <trkpt lat="44.53448" lon="6.22982">
        <ele>1049.4000244141</ele>
        <time>2021-06-10T06:22:51.399Z</time>
      </trkpt>
      <trkpt lat="44.53457" lon="6.22993">
        <ele>1042.8000488281</ele>
        <time>2021-06-10T06:22:56.246Z</time>
      </trkpt>
      <trkpt lat="44.53471" lon="6.23004">
        <ele>1042.8000488281</ele>
        <time>2021-06-10T06:23:01.098Z</time>
      </trkpt>
      <trkpt lat="44.53495" lon="6.23041">
        <ele>1037</ele>
        <time>2021-06-10T06:23:05.962Z</time>
      </trkpt>
      <trkpt lat="44.53498" lon="6.23049">
        <ele>1037</ele>
        <time>2021-06-10T06:23:10.828Z</time>
      </trkpt>
      <trkpt lat="44.53501" lon="6.23066">
        <ele>1037</ele>
        <time>2021-06-10T06:23:15.698Z</time>
      </trkpt>
      <trkpt lat="44.53507" lon="6.23106">
        <ele>1037</ele>
        <time>2021-06-10T06:23:20.577Z</time>
      </trkpt>
      <trkpt lat="44.53512" lon="6.23117">
        <ele>1037</ele>
        <time>2021-06-10T06:23:25.459Z</time>
      </trkpt>
      <trkpt lat="44.53518" lon="6.23149">
        <ele>1016.200012207</ele>
        <time>2021-06-10T06:23:30.349Z</time>
      </trkpt>
      <trkpt lat="44.53527" lon="6.23163">
        <ele>1014.5999755859</ele>
        <time>2021-06-10T06:23:35.244Z</time>
      </trkpt>
      <trkpt lat="44.53541" lon="6.23194">
        <ele>1009.799987793</ele>
        <time>2021-06-10T06:23:40.147Z</time>
      </trkpt>
      <trkpt lat="44.53554" lon="6.23212">
        <ele>1007.5999755859</ele>
        <time>2021-06-10T06:23:45.056Z</time>
      </trkpt>
      <trkpt lat="44.53566" lon="6.23234">
        <ele>1005.5999755859</ele>
        <time>2021-06-10T06:23:49.972Z</time>
      </trkpt>
      <trkpt lat="44.53578" lon="6.23266">
        <ele>1005.5999755859</ele>
        <time>2021-06-10T06:23:54.896Z</time>
      </trkpt>
      <trkpt lat="44.53588" lon="6.23356">
        <ele>1002.4000244141</ele>
        <time>2021-06-10T06:23:59.842Z</time>
      </trkpt>
      <trkpt lat="44.53597" lon="6.2338">
        <ele>1002.200012207</ele>
        <time>2021-06-10T06:24:04.794Z</time>
      </trkpt>
      <trkpt lat="44.53612" lon="6.23433">
        <ele>1002.200012207</ele>
        <time>2021-06-10T06:24:09.759Z</time>
      </trkpt>
      <trkpt lat="44.53618" lon="6.23459">
        <ele>1002.200012207</ele>
        <time>2021-06-10T06:24:14.731Z</time>
      </trkpt>
      <trkpt lat="44.53621" lon="6.23487">
        <ele>1002.200012207</ele>
        <time>2021-06-10T06:24:19.709Z</time>
      </trkpt>
      <trkpt lat="44.53622" lon="6.23576">
        <ele>1002.200012207</ele>
        <time>2021-06-10T06:24:24.708Z</time>
      </trkpt>
      <trkpt lat="44.53624" lon="6.23651">
        <ele>1002.200012207</ele>
        <time>2021-06-10T06:24:29.725Z</time>
      </trkpt>
      <trkpt lat="44.53624" lon="6.23658">
        <ele>1008.5999755859</ele>
        <time>2021-06-10T06:24:34.743Z</time>
      </trkpt>
      <trkpt lat="44.53613" lon="6.23676">
        <ele>1006.4000244141</ele>
        <time>2021-06-10T06:24:39.767Z</time>
      </trkpt>
      <trkpt lat="44.53613" lon="6.23679">
        <ele>1006.4000244141</ele>
        <time>2021-06-10T06:24:44.791Z</time>
      </trkpt>
      <trkpt lat="44.53615" lon="6.23684">
        <ele>1005.200012207</ele>
        <time>2021-06-10T06:24:49.817Z</time>
      </trkpt>
      <trkpt lat="44.53621" lon="6.23685">
        <ele>1005.200012207</ele>
        <time>2021-06-10T06:24:54.845Z</time>
      </trkpt>
      <trkpt lat="44.53637" lon="6.23698">
        <ele>1000.799987793</ele>
        <time>2021-06-10T06:24:59.879Z</time>
      </trkpt>
      <trkpt lat="44.53649" lon="6.23713">
        <ele>1000.799987793</ele>
        <time>2021-06-10T06:25:04.918Z</time>
      </trkpt>
      <trkpt lat="44.53677" lon="6.23743">
        <ele>996</ele>
        <time>2021-06-10T06:25:09.969Z</time>
      </trkpt>
      <trkpt lat="44.53704" lon="6.23774">
        <ele>996</ele>
        <time>2021-06-10T06:25:15.031Z</time>
      </trkpt>
      <trkpt lat="44.53713" lon="6.23782">
        <ele>996</ele>
        <time>2021-06-10T06:25:20.097Z</time>
      </trkpt>
      <trkpt lat="44.5372" lon="6.23797">
        <ele>991</ele>
        <time>2021-06-10T06:25:25.167Z</time>
      </trkpt>
      <trkpt lat="44.53719" lon="6.23816">
        <ele>992.79998779297</ele>
        <time>2021-06-10T06:25:30.241Z</time>
      </trkpt>
      <trkpt lat="44.53722" lon="6.2384">
        <ele>992.79998779297</ele>
        <time>2021-06-10T06:25:35.321Z</time>
      </trkpt>
      <trkpt lat="44.53722" lon="6.2386">
        <ele>992.79998779297</ele>
        <time>2021-06-10T06:25:40.406Z</time>
      </trkpt>
      <trkpt lat="44.53716" lon="6.2391">
        <ele>995.40002441406</ele>
        <time>2021-06-10T06:25:45.503Z</time>
      </trkpt>
      <trkpt lat="44.53706" lon="6.23934">
        <ele>994.59997558594</ele>
        <time>2021-06-10T06:25:50.606Z</time>
      </trkpt>
      <trkpt lat="44.53701" lon="6.23952">
        <ele>995.79998779297</ele>
        <time>2021-06-10T06:25:55.713Z</time>
      </trkpt>
      <trkpt lat="44.53697" lon="6.24066">
        <ele>995.79998779297</ele>
        <time>2021-06-10T06:26:00.847Z</time>
      </trkpt>
      <trkpt lat="44.5369" lon="6.24092">
        <ele>995.79998779297</ele>
        <time>2021-06-10T06:26:05.988Z</time>
      </trkpt>
      <trkpt lat="44.53691" lon="6.24099">
        <ele>999.20001220703</ele>
        <time>2021-06-10T06:26:11.130Z</time>
      </trkpt>
      <trkpt lat="44.537" lon="6.24118">
        <ele>999.20001220703</ele>
        <time>2021-06-10T06:26:16.278Z</time>
      </trkpt>
      <trkpt lat="44.53703" lon="6.24152">
        <ele>999.20001220703</ele>
        <time>2021-06-10T06:26:21.434Z</time>
      </trkpt>
      <trkpt lat="44.53704" lon="6.24176">
        <ele>999.20001220703</ele>
        <time>2021-06-10T06:26:26.595Z</time>
      </trkpt>
      <trkpt lat="44.53701" lon="6.24179">
        <ele>999.40002441406</ele>
        <time>2021-06-10T06:26:31.757Z</time>
      </trkpt>
      <trkpt lat="44.53691" lon="6.24182">
        <ele>999.40002441406</ele>
        <time>2021-06-10T06:26:36.923Z</time>
      </trkpt>
      <trkpt lat="44.53667" lon="6.24185">
        <ele>1000.5999755859</ele>
        <time>2021-06-10T06:26:42.097Z</time>
      </trkpt>
      <trkpt lat="44.53658" lon="6.24188">
        <ele>1000.5999755859</ele>
        <time>2021-06-10T06:26:47.274Z</time>
      </trkpt>
      <trkpt lat="44.53654" lon="6.24201">
        <ele>1000.5999755859</ele>
        <time>2021-06-10T06:26:52.454Z</time>
      </trkpt>
      <trkpt lat="44.53653" lon="6.24238">
        <ele>1002.5999755859</ele>
        <time>2021-06-10T06:26:57.643Z</time>
      </trkpt>
      <trkpt lat="44.53656" lon="6.24267">
        <ele>1003.4000244141</ele>
        <time>2021-06-10T06:27:02.839Z</time>
      </trkpt>
      <trkpt lat="44.53665" lon="6.2429">
        <ele>1004.200012207</ele>
        <time>2021-06-10T06:27:08.041Z</time>
      </trkpt>
      <trkpt lat="44.53671" lon="6.24311">
        <ele>1004.200012207</ele>
        <time>2021-06-10T06:27:13.248Z</time>
      </trkpt>
      <trkpt lat="44.5366" lon="6.24457">
        <ele>1004.200012207</ele>
        <time>2021-06-10T06:27:18.489Z</time>
      </trkpt>
      <trkpt lat="44.53653" lon="6.24484">
        <ele>1014.200012207</ele>
        <time>2021-06-10T06:27:23.737Z</time>
      </trkpt>
      <trkpt lat="44.53646" lon="6.24506">
        <ele>1016</ele>
        <time>2021-06-10T06:27:28.991Z</time>
      </trkpt>
      <trkpt lat="44.5364" lon="6.24535">
        <ele>1017.799987793</ele>
        <time>2021-06-10T06:27:34.252Z</time>
      </trkpt>
      <trkpt lat="44.53632" lon="6.24565">
        <ele>1017.799987793</ele>
        <time>2021-06-10T06:27:39.520Z</time>
      </trkpt>
      <trkpt lat="44.53622" lon="6.24583">
        <ele>1021.200012207</ele>
        <time>2021-06-10T06:27:44.794Z</time>
      </trkpt>
      <trkpt lat="44.53605" lon="6.24602">
        <ele>1021.4000244141</ele>
        <time>2021-06-10T06:27:50.075Z</time>
      </trkpt>
      <trkpt lat="44.53578" lon="6.24639">
        <ele>1019.200012207</ele>
        <time>2021-06-10T06:27:55.368Z</time>
      </trkpt>
      <trkpt lat="44.53567" lon="6.24677">
        <ele>1019.200012207</ele>
        <time>2021-06-10T06:28:00.671Z</time>
      </trkpt>
      <trkpt lat="44.53545" lon="6.24734">
        <ele>1015.200012207</ele>
        <time>2021-06-10T06:28:05.989Z</time>
      </trkpt>
      <trkpt lat="44.53546" lon="6.24763">
        <ele>1015.200012207</ele>
        <time>2021-06-10T06:28:11.314Z</time>
      </trkpt>
      <trkpt lat="44.5353" lon="6.24827">
        <ele>1015.200012207</ele>
        <time>2021-06-10T06:28:16.654Z</time>
      </trkpt>
      <trkpt lat="44.5353" lon="6.24859">
        <ele>1015.200012207</ele>
        <time>2021-06-10T06:28:22.002Z</time>
      </trkpt>
      <trkpt lat="44.53528" lon="6.24877">
        <ele>1014.200012207</ele>
        <time>2021-06-10T06:28:27.354Z</time>
      </trkpt>
      <trkpt lat="44.53518" lon="6.24915">
        <ele>1014.200012207</ele>
        <time>2021-06-10T06:28:32.715Z</time>
      </trkpt>
      <trkpt lat="44.53511" lon="6.2493">
        <ele>1015.5999755859</ele>
        <time>2021-06-10T06:28:38.081Z</time>
      </trkpt>
      <trkpt lat="44.5349" lon="6.24962">
        <ele>1016.4000244141</ele>
        <time>2021-06-10T06:28:43.457Z</time>
      </trkpt>
      <trkpt lat="44.53484" lon="6.24987">
        <ele>1016.4000244141</ele>
        <time>2021-06-10T06:28:48.839Z</time>
      </trkpt>
      <trkpt lat="44.53464" lon="6.25021">
        <ele>1019.5999755859</ele>
        <time>2021-06-10T06:28:54.231Z</time>
      </trkpt>
      <trkpt lat="44.53452" lon="6.25035">
        <ele>1019.5999755859</ele>
        <time>2021-06-10T06:28:59.629Z</time>
      </trkpt>
      <trkpt lat="44.53419" lon="6.25052">
        <ele>1024.4000244141</ele>
        <time>2021-06-10T06:29:05.038Z</time>
      </trkpt>
      <trkpt lat="44.53393" lon="6.2507">
        <ele>1026.8000488281</ele>
        <time>2021-06-10T06:29:10.457Z</time>
      </trkpt>
      <trkpt lat="44.53382" lon="6.25087">
        <ele>1026.4000244141</ele>
        <time>2021-06-10T06:29:15.881Z</time>
      </trkpt>
      <trkpt lat="44.53372" lon="6.25096">
        <ele>1026.4000244141</ele>
        <time>2021-06-10T06:29:21.309Z</time>
      </trkpt>
      <trkpt lat="44.53354" lon="6.25122">
        <ele>1026.4000244141</ele>
        <time>2021-06-10T06:29:26.745Z</time>
      </trkpt>
      <trkpt lat="44.53336" lon="6.25158">
        <ele>1026.4000244141</ele>
        <time>2021-06-10T06:29:32.192Z</time>
      </trkpt>
      <trkpt lat="44.53329" lon="6.25164">
        <ele>1038.1999511719</ele>
        <time>2021-06-10T06:29:37.641Z</time>
      </trkpt>
      <trkpt lat="44.53324" lon="6.25165">
        <ele>1038.1999511719</ele>
        <time>2021-06-10T06:29:43.092Z</time>
      </trkpt>
      <trkpt lat="44.5331" lon="6.25162">
        <ele>1038.1999511719</ele>
        <time>2021-06-10T06:29:48.548Z</time>
      </trkpt>
      <trkpt lat="44.53295" lon="6.25167">
        <ele>1038.1999511719</ele>
        <time>2021-06-10T06:29:54.009Z</time>
      </trkpt>
      <trkpt lat="44.5328" lon="6.25169">
        <ele>1045.8000488281</ele>
        <time>2021-06-10T06:29:59.475Z</time>
      </trkpt>
      <trkpt lat="44.53266" lon="6.25162">
        <ele>1048</ele>
        <time>2021-06-10T06:30:04.945Z</time>
      </trkpt>
      <trkpt lat="44.53257" lon="6.25167">
        <ele>1048.8000488281</ele>
        <time>2021-06-10T06:30:10.419Z</time>
      </trkpt>
      <trkpt lat="44.5323" lon="6.25194">
        <ele>1054.1999511719</ele>
        <time>2021-06-10T06:30:15.903Z</time>
      </trkpt>
      <trkpt lat="44.53212" lon="6.25209">
        <ele>1054.1999511719</ele>
        <time>2021-06-10T06:30:21.394Z</time>
      </trkpt>
      <trkpt lat="44.53203" lon="6.25224">
        <ele>1060</ele>
        <time>2021-06-10T06:30:26.890Z</time>
      </trkpt>
      <trkpt lat="44.5319" lon="6.25235">
        <ele>1062.4000244141</ele>
        <time>2021-06-10T06:30:32.391Z</time>
      </trkpt>
      <trkpt lat="44.53185" lon="6.2525">
        <ele>1062.8000488281</ele>
        <time>2021-06-10T06:30:37.896Z</time>
      </trkpt>
      <trkpt lat="44.53186" lon="6.25269">
        <ele>1061.4000244141</ele>
        <time>2021-06-10T06:30:43.405Z</time>
      </trkpt>
      <trkpt lat="44.53185" lon="6.2528">
        <ele>1061.4000244141</ele>
        <time>2021-06-10T06:30:48.917Z</time>
      </trkpt>
      <trkpt lat="44.53193" lon="6.25292">
        <ele>1057.4000244141</ele>
        <time>2021-06-10T06:30:54.433Z</time>
      </trkpt>
      <trkpt lat="44.53194" lon="6.25297">
        <ele>1057.4000244141</ele>
        <time>2021-06-10T06:30:59.950Z</time>
      </trkpt>
      <trkpt lat="44.532" lon="6.25337">
        <ele>1052.1999511719</ele>
        <time>2021-06-10T06:31:05.476Z</time>
      </trkpt>
      <trkpt lat="44.532" lon="6.25352">
        <ele>1052.1999511719</ele>
        <time>2021-06-10T06:31:11.006Z</time>
      </trkpt>
      <trkpt lat="44.53182" lon="6.25416">
        <ele>1038.4000244141</ele>
        <time>2021-06-10T06:31:16.552Z</time>
      </trkpt>
      <trkpt lat="44.53182" lon="6.25427">
        <ele>1038.4000244141</ele>
        <time>2021-06-10T06:31:22.101Z</time>
      </trkpt>
      <trkpt lat="44.53187" lon="6.25441">
        <ele>1036.8000488281</ele>
        <time>2021-06-10T06:31:27.653Z</time>
      </trkpt>
      <trkpt lat="44.5322" lon="6.25502">
        <ele>1036.8000488281</ele>
        <time>2021-06-10T06:31:33.223Z</time>
      </trkpt>
      <trkpt lat="44.53231" lon="6.25527">
        <ele>1036.8000488281</ele>
        <time>2021-06-10T06:31:38.800Z</time>
      </trkpt>
      <trkpt lat="44.53239" lon="6.25547">
        <ele>1036.8000488281</ele>
        <time>2021-06-10T06:31:44.382Z</time>
      </trkpt>
      <trkpt lat="44.53239" lon="6.25558">
        <ele>1028.5999755859</ele>
        <time>2021-06-10T06:31:49.967Z</time>
      </trkpt>
      <trkpt lat="44.53254" lon="6.2559">
        <ele>1028.5999755859</ele>
        <time>2021-06-10T06:31:55.561Z</time>
      </trkpt>
      <trkpt lat="44.53268" lon="6.25618">
        <ele>1027.5999755859</ele>
        <time>2021-06-10T06:32:01.163Z</time>
      </trkpt>
      <trkpt lat="44.53298" lon="6.25663">
        <ele>1027.5999755859</ele>
        <time>2021-06-10T06:32:06.779Z</time>
      </trkpt>
      <trkpt lat="44.53303" lon="6.25686">
        <ele>1027.5999755859</ele>
        <time>2021-06-10T06:32:12.401Z</time>
      </trkpt>
      <trkpt lat="44.53302" lon="6.25738">
        <ele>1027.5999755859</ele>
        <time>2021-06-10T06:32:18.035Z</time>
      </trkpt>
      <trkpt lat="44.53298" lon="6.25776">
        <ele>1026.1999511719</ele>
        <time>2021-06-10T06:32:23.678Z</time>
      </trkpt>
      <trkpt lat="44.53295" lon="6.25807">
        <ele>1026.1999511719</ele>
        <time>2021-06-10T06:32:29.329Z</time>
      </trkpt>
      <trkpt lat="44.53284" lon="6.25851">
        <ele>1026.1999511719</ele>
        <time>2021-06-10T06:32:34.990Z</time>
      </trkpt>
      <trkpt lat="44.53279" lon="6.2588">
        <ele>1027.4000244141</ele>
        <time>2021-06-10T06:32:40.658Z</time>
      </trkpt>
      <trkpt lat="44.5328" lon="6.25913">
        <ele>1027.4000244141</ele>
        <time>2021-06-10T06:32:46.334Z</time>
      </trkpt>
      <trkpt lat="44.53283" lon="6.25949">
        <ele>1027.4000244141</ele>
        <time>2021-06-10T06:32:52.018Z</time>
      </trkpt>
      <trkpt lat="44.53291" lon="6.26033">
        <ele>1033.4000244141</ele>
        <time>2021-06-10T06:32:57.722Z</time>
      </trkpt>
      <trkpt lat="44.533" lon="6.26081">
        <ele>1033.4000244141</ele>
        <time>2021-06-10T06:33:03.438Z</time>
      </trkpt>
      <trkpt lat="44.5331" lon="6.2611">
        <ele>1038.4000244141</ele>
        <time>2021-06-10T06:33:09.161Z</time>
      </trkpt>
      <trkpt lat="44.53339" lon="6.2618">
        <ele>1035</ele>
        <time>2021-06-10T06:33:14.903Z</time>
      </trkpt>
      <trkpt lat="44.53352" lon="6.26207">
        <ele>1033</ele>
        <time>2021-06-10T06:33:20.653Z</time>
      </trkpt>
      <trkpt lat="44.53383" lon="6.26253">
        <ele>1030.5999755859</ele>
        <time>2021-06-10T06:33:26.418Z</time>
      </trkpt>
      <trkpt lat="44.53387" lon="6.2627">
        <ele>1029.8000488281</ele>
        <time>2021-06-10T06:33:32.187Z</time>
      </trkpt>
      <trkpt lat="44.53392" lon="6.2627">
        <ele>1029.8000488281</ele>
        <time>2021-06-10T06:33:37.957Z</time>
      </trkpt>
      <trkpt lat="44.53396" lon="6.26267">
        <ele>1030</ele>
        <time>2021-06-10T06:33:43.729Z</time>
      </trkpt>
      <trkpt lat="44.53402" lon="6.26258">
        <ele>1030</ele>
        <time>2021-06-10T06:33:49.504Z</time>
      </trkpt>
      <trkpt lat="44.53412" lon="6.26238">
        <ele>1030</ele>
        <time>2021-06-10T06:33:55.285Z</time>
      </trkpt>
      <trkpt lat="44.5344" lon="6.26144">
        <ele>1037.8000488281</ele>
        <time>2021-06-10T06:34:01.089Z</time>
      </trkpt>
      <trkpt lat="44.53457" lon="6.26073">
        <ele>1046.4000244141</ele>
        <time>2021-06-10T06:34:06.911Z</time>
      </trkpt>
      <trkpt lat="44.53467" lon="6.26048">
        <ele>1046.4000244141</ele>
        <time>2021-06-10T06:34:12.740Z</time>
      </trkpt>
      <trkpt lat="44.53478" lon="6.26034">
        <ele>1046.4000244141</ele>
        <time>2021-06-10T06:34:18.573Z</time>
      </trkpt>
      <trkpt lat="44.53497" lon="6.26018">
        <ele>1046.4000244141</ele>
        <time>2021-06-10T06:34:24.414Z</time>
      </trkpt>
      <trkpt lat="44.5351" lon="6.2601">
        <ele>1061.1999511719</ele>
        <time>2021-06-10T06:34:30.259Z</time>
      </trkpt>
      <trkpt lat="44.53545" lon="6.25994">
        <ele>1061.1999511719</ele>
        <time>2021-06-10T06:34:36.117Z</time>
      </trkpt>
      <trkpt lat="44.53578" lon="6.26008">
        <ele>1066.4000244141</ele>
        <time>2021-06-10T06:34:41.986Z</time>
      </trkpt>
      <trkpt lat="44.53589" lon="6.26021">
        <ele>1062.5999755859</ele>
        <time>2021-06-10T06:34:47.859Z</time>
      </trkpt>
      <trkpt lat="44.53613" lon="6.26038">
        <ele>1054.4000244141</ele>
        <time>2021-06-10T06:34:53.741Z</time>
      </trkpt>
      <trkpt lat="44.53617" lon="6.26038">
        <ele>1054.4000244141</ele>
        <time>2021-06-10T06:34:59.625Z</time>
      </trkpt>
      <trkpt lat="44.5362" lon="6.26035">
        <ele>1051.8000488281</ele>
        <time>2021-06-10T06:35:05.510Z</time>
      </trkpt>
      <trkpt lat="44.53631" lon="6.26009">
        <ele>1048.1999511719</ele>
        <time>2021-06-10T06:35:11.402Z</time>
      </trkpt>
      <trkpt lat="44.53635" lon="6.26003">
        <ele>1048.1999511719</ele>
        <time>2021-06-10T06:35:17.296Z</time>
      </trkpt>
      <trkpt lat="44.53652" lon="6.25993">
        <ele>1039.4000244141</ele>
        <time>2021-06-10T06:35:23.196Z</time>
      </trkpt>
      <trkpt lat="44.53667" lon="6.2599">
        <ele>1037.1999511719</ele>
        <time>2021-06-10T06:35:29.101Z</time>
      </trkpt>
      <trkpt lat="44.53673" lon="6.25992">
        <ele>1037.1999511719</ele>
        <time>2021-06-10T06:35:35.008Z</time>
      </trkpt>
      <trkpt lat="44.53679" lon="6.25998">
        <ele>1037.1999511719</ele>
        <time>2021-06-10T06:35:40.917Z</time>
      </trkpt>
      <trkpt lat="44.53682" lon="6.25999">
        <ele>1032.5999755859</ele>
        <time>2021-06-10T06:35:46.827Z</time>
      </trkpt>
      <trkpt lat="44.53689" lon="6.25995">
        <ele>1030.4000244141</ele>
        <time>2021-06-10T06:35:52.740Z</time>
      </trkpt>
      <trkpt lat="44.53697" lon="6.25999">
        <ele>1030.4000244141</ele>
        <time>2021-06-10T06:35:58.655Z</time>
      </trkpt>
      <trkpt lat="44.53711" lon="6.25999">
        <ele>1030.4000244141</ele>
        <time>2021-06-10T06:36:04.575Z</time>
      </trkpt>
      <trkpt lat="44.5372" lon="6.26001">
        <ele>1030.4000244141</ele>
        <time>2021-06-10T06:36:10.498Z</time>
      </trkpt>
      <trkpt lat="44.53724" lon="6.26005">
        <ele>1024.1999511719</ele>
        <time>2021-06-10T06:36:16.423Z</time>
      </trkpt>
      <trkpt lat="44.53728" lon="6.2602">
        <ele>1021.200012207</ele>
        <time>2021-06-10T06:36:22.351Z</time>
      </trkpt>
      <trkpt lat="44.53728" lon="6.26031">
        <ele>1021.200012207</ele>
        <time>2021-06-10T06:36:28.282Z</time>
      </trkpt>
      <trkpt lat="44.53735" lon="6.26041">
        <ele>1021.200012207</ele>
        <time>2021-06-10T06:36:34.216Z</time>
      </trkpt>
      <trkpt lat="44.53738" lon="6.26052">
        <ele>1021.200012207</ele>
        <time>2021-06-10T06:36:40.153Z</time>
      </trkpt>
      <trkpt lat="44.53738" lon="6.26078">
        <ele>1021.200012207</ele>
        <time>2021-06-10T06:36:46.096Z</time>
      </trkpt>
      <trkpt lat="44.53766" lon="6.26113">
        <ele>1011.200012207</ele>
        <time>2021-06-10T06:36:52.051Z</time>
      </trkpt>
      <trkpt lat="44.53794" lon="6.26137">
        <ele>1008.200012207</ele>
        <time>2021-06-10T06:36:58.017Z</time>
      </trkpt>
      <trkpt lat="44.5381" lon="6.26153">
        <ele>1008.200012207</ele>
        <time>2021-06-10T06:37:03.989Z</time>
      </trkpt>
      <trkpt lat="44.53814" lon="6.26155">
        <ele>1003.5999755859</ele>
        <time>2021-06-10T06:37:09.963Z</time>
      </trkpt>
      <trkpt lat="44.53846" lon="6.26154">
        <ele>992</ele>
        <time>2021-06-10T06:37:15.947Z</time>
      </trkpt>
      <trkpt lat="44.53856" lon="6.26151">
        <ele>986.79998779297</ele>
        <time>2021-06-10T06:37:21.934Z</time>
      </trkpt>
      <trkpt lat="44.53872" lon="6.26142">
        <ele>982.20001220703</ele>
        <time>2021-06-10T06:37:27.927Z</time>
      </trkpt>
      <trkpt lat="44.5388" lon="6.26142">
        <ele>982.20001220703</ele>
        <time>2021-06-10T06:37:33.923Z</time>
      </trkpt>
      <trkpt lat="44.53894" lon="6.26153">
        <ele>982.20001220703</ele>
        <time>2021-06-10T06:37:39.924Z</time>
      </trkpt>
      <trkpt lat="44.5391" lon="6.26173">
        <ele>974.79998779297</ele>
        <time>2021-06-10T06:37:45.932Z</time>
      </trkpt>
      <trkpt lat="44.53925" lon="6.26208">
        <ele>969</ele>
        <time>2021-06-10T06:37:51.949Z</time>
      </trkpt>
      <trkpt lat="44.53931" lon="6.26215">
        <ele>966.40002441406</ele>
        <time>2021-06-10T06:37:57.969Z</time>
      </trkpt>
      <trkpt lat="44.53952" lon="6.26211">
        <ele>966.40002441406</ele>
        <time>2021-06-10T06:38:03.996Z</time>
      </trkpt>
      <trkpt lat="44.53958" lon="6.26205">
        <ele>962.79998779297</ele>
        <time>2021-06-10T06:38:10.025Z</time>
      </trkpt>
      <trkpt lat="44.5397" lon="6.26179">
        <ele>962.79998779297</ele>
        <time>2021-06-10T06:38:16.061Z</time>
      </trkpt>
      <trkpt lat="44.53978" lon="6.26174">
        <ele>962.79998779297</ele>
        <time>2021-06-10T06:38:22.101Z</time>
      </trkpt>
      <trkpt lat="44.53981" lon="6.26174">
        <ele>957.79998779297</ele>
        <time>2021-06-10T06:38:28.141Z</time>
      </trkpt>
      <trkpt lat="44.53984" lon="6.26179">
        <ele>956.40002441406</ele>
        <time>2021-06-10T06:38:34.183Z</time>
      </trkpt>
      <trkpt lat="44.53994" lon="6.26187">
        <ele>953.20001220703</ele>
        <time>2021-06-10T06:38:40.229Z</time>
      </trkpt>
      <trkpt lat="44.54004" lon="6.26189">
        <ele>953.20001220703</ele>
        <time>2021-06-10T06:38:46.278Z</time>
      </trkpt>
      <trkpt lat="44.54015" lon="6.26195">
        <ele>947.20001220703</ele>
        <time>2021-06-10T06:38:52.331Z</time>
      </trkpt>
      <trkpt lat="44.54025" lon="6.26191">
        <ele>947.20001220703</ele>
        <time>2021-06-10T06:38:58.387Z</time>
      </trkpt>
      <trkpt lat="44.54031" lon="6.26191">
        <ele>942.59997558594</ele>
        <time>2021-06-10T06:39:04.445Z</time>
      </trkpt>
      <trkpt lat="44.54036" lon="6.26185">
        <ele>942.59997558594</ele>
        <time>2021-06-10T06:39:10.505Z</time>
      </trkpt>
      <trkpt lat="44.5404" lon="6.26175">
        <ele>939.79998779297</ele>
        <time>2021-06-10T06:39:16.568Z</time>
      </trkpt>
      <trkpt lat="44.54043" lon="6.26161">
        <ele>939.79998779297</ele>
        <time>2021-06-10T06:39:22.634Z</time>
      </trkpt>
      <trkpt lat="44.54043" lon="6.26141">
        <ele>932.40002441406</ele>
        <time>2021-06-10T06:39:28.705Z</time>
      </trkpt>
      <trkpt lat="44.54047" lon="6.26137">
        <ele>929.40002441406</ele>
        <time>2021-06-10T06:39:34.778Z</time>
      </trkpt>
      <trkpt lat="44.54049" lon="6.26139">
        <ele>929.40002441406</ele>
        <time>2021-06-10T06:39:40.851Z</time>
      </trkpt>
      <trkpt lat="44.54063" lon="6.26156">
        <ele>929.40002441406</ele>
        <time>2021-06-10T06:39:46.930Z</time>
      </trkpt>
      <trkpt lat="44.54072" lon="6.26182">
        <ele>929.40002441406</ele>
        <time>2021-06-10T06:39:53.016Z</time>
      </trkpt>
      <trkpt lat="44.5408" lon="6.26211">
        <ele>929.40002441406</ele>
        <time>2021-06-10T06:39:59.110Z</time>
      </trkpt>
      <trkpt lat="44.54085" lon="6.26243">
        <ele>929.40002441406</ele>
        <time>2021-06-10T06:40:05.211Z</time>
      </trkpt>
      <trkpt lat="44.54085" lon="6.26255">
        <ele>919.59997558594</ele>
        <time>2021-06-10T06:40:11.315Z</time>
      </trkpt>
      <trkpt lat="44.54079" lon="6.26293">
        <ele>919.59997558594</ele>
        <time>2021-06-10T06:40:17.428Z</time>
      </trkpt>
      <trkpt lat="44.54082" lon="6.2632">
        <ele>914</ele>
        <time>2021-06-10T06:40:23.548Z</time>
      </trkpt>
      <trkpt lat="44.54085" lon="6.26332">
        <ele>914</ele>
        <time>2021-06-10T06:40:29.670Z</time>
      </trkpt>
      <trkpt lat="44.54101" lon="6.26362">
        <ele>909.79998779297</ele>
        <time>2021-06-10T06:40:35.801Z</time>
      </trkpt>
      <trkpt lat="44.54112" lon="6.26372">
        <ele>909.79998779297</ele>
        <time>2021-06-10T06:40:41.937Z</time>
      </trkpt>
      <trkpt lat="44.54126" lon="6.2638">
        <ele>906.79998779297</ele>
        <time>2021-06-10T06:40:48.078Z</time>
      </trkpt>
      <trkpt lat="44.54128" lon="6.26382">
        <ele>906.79998779297</ele>
        <time>2021-06-10T06:40:54.219Z</time>
      </trkpt>
      <trkpt lat="44.54126" lon="6.26412">
        <ele>906.79998779297</ele>
        <time>2021-06-10T06:41:00.367Z</time>
      </trkpt>
      <trkpt lat="44.54118" lon="6.26423">
        <ele>900.40002441406</ele>
        <time>2021-06-10T06:41:06.519Z</time>
      </trkpt>
      <trkpt lat="44.5411" lon="6.26442">
        <ele>896.79998779297</ele>
        <time>2021-06-10T06:41:12.676Z</time>
      </trkpt>
      <trkpt lat="44.54109" lon="6.26452">
        <ele>896.79998779297</ele>
        <time>2021-06-10T06:41:18.836Z</time>
      </trkpt>
      <trkpt lat="44.54118" lon="6.26459">
        <ele>894.20001220703</ele>
        <time>2021-06-10T06:41:24.999Z</time>
      </trkpt>
      <trkpt lat="44.54131" lon="6.26464">
        <ele>894.20001220703</ele>
        <time>2021-06-10T06:41:31.167Z</time>
      </trkpt>
      <trkpt lat="44.54142" lon="6.26477">
        <ele>894.20001220703</ele>
        <time>2021-06-10T06:41:37.339Z</time>
      </trkpt>
      <trkpt lat="44.5415" lon="6.2649">
        <ele>890</ele>
        <time>2021-06-10T06:41:43.515Z</time>
      </trkpt>
      <trkpt lat="44.54153" lon="6.26501">
        <ele>890</ele>
        <time>2021-06-10T06:41:49.694Z</time>
      </trkpt>
      <trkpt lat="44.54171" lon="6.26516">
        <ele>883.59997558594</ele>
        <time>2021-06-10T06:41:55.880Z</time>
      </trkpt>
      <trkpt lat="44.5417" lon="6.26521">
        <ele>883.59997558594</ele>
        <time>2021-06-10T06:42:02.067Z</time>
      </trkpt>
      <trkpt lat="44.54165" lon="6.26528">
        <ele>883.59997558594</ele>
        <time>2021-06-10T06:42:08.256Z</time>
      </trkpt>
      <trkpt lat="44.54155" lon="6.26518">
        <ele>883.59997558594</ele>
        <time>2021-06-10T06:42:14.449Z</time>
      </trkpt>
      <trkpt lat="44.54148" lon="6.26515">
        <ele>886</ele>
        <time>2021-06-10T06:42:20.645Z</time>
      </trkpt>
      <trkpt lat="44.54154" lon="6.26516">
        <ele>889.79998779297</ele>
        <time>2021-06-10T06:42:26.843Z</time>
      </trkpt>
      <trkpt lat="44.54171" lon="6.26556">
        <ele>889.79998779297</ele>
        <time>2021-06-10T06:42:33.052Z</time>
      </trkpt>
      <trkpt lat="44.54181" lon="6.26603">
        <ele>889.79998779297</ele>
        <time>2021-06-10T06:42:39.272Z</time>
      </trkpt>
      <trkpt lat="44.54185" lon="6.26628">
        <ele>889.79998779297</ele>
        <time>2021-06-10T06:42:45.498Z</time>
      </trkpt>
      <trkpt lat="44.54183" lon="6.26662">
        <ele>876.79998779297</ele>
        <time>2021-06-10T06:42:51.732Z</time>
      </trkpt>
      <trkpt lat="44.54188" lon="6.26699">
        <ele>876.79998779297</ele>
        <time>2021-06-10T06:42:57.975Z</time>
      </trkpt>
      <trkpt lat="44.54225" lon="6.26888">
        <ele>876.79998779297</ele>
        <time>2021-06-10T06:43:04.264Z</time>
      </trkpt>
      <trkpt lat="44.54226" lon="6.26922">
        <ele>869.40002441406</ele>
        <time>2021-06-10T06:43:10.561Z</time>
      </trkpt>
      <trkpt lat="44.54222" lon="6.26993">
        <ele>869.40002441406</ele>
        <time>2021-06-10T06:43:16.875Z</time>
      </trkpt>
      <trkpt lat="44.54222" lon="6.27019">
        <ele>867.79998779297</ele>
        <time>2021-06-10T06:43:23.195Z</time>
      </trkpt>
      <trkpt lat="44.54227" lon="6.27065">
        <ele>866.79998779297</ele>
        <time>2021-06-10T06:43:29.526Z</time>
      </trkpt>
      <trkpt lat="44.54232" lon="6.27164">
        <ele>865.20001220703</ele>
        <time>2021-06-10T06:43:35.880Z</time>
      </trkpt>
      <trkpt lat="44.54226" lon="6.27229">
        <ele>865</ele>
        <time>2021-06-10T06:43:42.249Z</time>
      </trkpt>
      <trkpt lat="44.54227" lon="6.27233">
        <ele>865</ele>
        <time>2021-06-10T06:43:48.619Z</time>
      </trkpt>
      <trkpt lat="44.54257" lon="6.27284">
        <ele>864.40002441406</ele>
        <time>2021-06-10T06:43:55.005Z</time>
      </trkpt>
      <trkpt lat="44.54279" lon="6.27327">
        <ele>864.40002441406</ele>
        <time>2021-06-10T06:44:01.403Z</time>
      </trkpt>
      <trkpt lat="44.54296" lon="6.27351">
        <ele>864.40002441406</ele>
        <time>2021-06-10T06:44:07.809Z</time>
      </trkpt>
      <trkpt lat="44.54311" lon="6.27373">
        <ele>861.79998779297</ele>
        <time>2021-06-10T06:44:14.222Z</time>
      </trkpt>
      <trkpt lat="44.54342" lon="6.27431">
        <ele>860.59997558594</ele>
        <time>2021-06-10T06:44:20.652Z</time>
      </trkpt>
      <trkpt lat="44.54344" lon="6.27433">
        <ele>860.59997558594</ele>
        <time>2021-06-10T06:44:27.083Z</time>
      </trkpt>
      <trkpt lat="44.54351" lon="6.27432">
        <ele>860.40002441406</ele>
        <time>2021-06-10T06:44:33.516Z</time>
      </trkpt>
      <trkpt lat="44.54364" lon="6.27415">
        <ele>860.59997558594</ele>
        <time>2021-06-10T06:44:39.955Z</time>
      </trkpt>
      <trkpt lat="44.54372" lon="6.27403">
        <ele>860.59997558594</ele>
        <time>2021-06-10T06:44:46.398Z</time>
      </trkpt>
      <trkpt lat="44.54377" lon="6.27401">
        <ele>860.59997558594</ele>
        <time>2021-06-10T06:44:52.842Z</time>
      </trkpt>
      <trkpt lat="44.54377" lon="6.27389">
        <ele>860.59997558594</ele>
        <time>2021-06-10T06:44:59.289Z</time>
      </trkpt>
      <trkpt lat="44.54366" lon="6.27366">
        <ele>860.79998779297</ele>
        <time>2021-06-10T06:45:05.743Z</time>
      </trkpt>
      <trkpt lat="44.54359" lon="6.27359">
        <ele>860.79998779297</ele>
        <time>2021-06-10T06:45:12.200Z</time>
      </trkpt>
      <trkpt lat="44.54355" lon="6.27347">
        <ele>860.79998779297</ele>
        <time>2021-06-10T06:45:18.660Z</time>
      </trkpt>
      <trkpt lat="44.54354" lon="6.2734">
        <ele>861.40002441406</ele>
        <time>2021-06-10T06:45:25.121Z</time>
      </trkpt>
      <trkpt lat="44.54352" lon="6.27343">
        <ele>861.40002441406</ele>
        <time>2021-06-10T06:45:31.583Z</time>
      </trkpt>
      <trkpt lat="44.54353" lon="6.27344">
        <ele>861.40002441406</ele>
        <time>2021-06-10T06:45:38.046Z</time>
      </trkpt>
      <trkpt lat="44.54358" lon="6.27341">
        <ele>861.59997558594</ele>
        <time>2021-06-10T06:45:44.510Z</time>
      </trkpt>
      <trkpt lat="44.54357" lon="6.27338">
        <ele>861.59997558594</ele>
        <time>2021-06-10T06:45:50.975Z</time>
      </trkpt>
      <trkpt lat="44.54348" lon="6.27345">
        <ele>861.59997558594</ele>
        <time>2021-06-10T06:45:57.444Z</time>
      </trkpt>
      <trkpt lat="44.54342" lon="6.27347">
        <ele>861.59997558594</ele>
        <time>2021-06-10T06:46:03.915Z</time>
      </trkpt>
      <trkpt lat="44.54342" lon="6.27349">
        <ele>863</ele>
        <time>2021-06-10T06:46:10.386Z</time>
      </trkpt>
      <trkpt lat="44.54345" lon="6.27349">
        <ele>863</ele>
        <time>2021-06-10T06:46:16.858Z</time>
      </trkpt>
      <trkpt lat="44.54346" lon="6.27347">
        <ele>863</ele>
        <time>2021-06-10T06:46:23.331Z</time>
      </trkpt>
      <trkpt lat="44.54345" lon="6.27346">
        <ele>863</ele>
        <time>2021-06-10T06:46:29.804Z</time>
      </trkpt>
      <trkpt lat="44.54342" lon="6.2735">
        <ele>863.20001220703</ele>
        <time>2021-06-10T06:46:36.279Z</time>
      </trkpt>
      <trkpt lat="44.54349" lon="6.27365">
        <ele>864</ele>
        <time>2021-06-10T06:46:42.758Z</time>
      </trkpt>
      <trkpt lat="44.54345" lon="6.27375">
        <ele>864</ele>
        <time>2021-06-10T06:46:49.240Z</time>
      </trkpt>
      <trkpt lat="44.54342" lon="6.27376">
        <ele>863.79998779297</ele>
        <time>2021-06-10T06:46:55.722Z</time>
      </trkpt>
      <trkpt lat="44.54338" lon="6.2737">
        <ele>863.59997558594</ele>
        <time>2021-06-10T06:47:02.207Z</time>
      </trkpt>
      <trkpt lat="44.54338" lon="6.27368">
        <ele>863.59997558594</ele>
        <time>2021-06-10T06:47:08.692Z</time>
      </trkpt>
      <trkpt lat="44.54344" lon="6.27357">
        <ele>863.40002441406</ele>
        <time>2021-06-10T06:47:15.181Z</time>
      </trkpt>
      <trkpt lat="44.54343" lon="6.27353">
        <ele>863.40002441406</ele>
        <time>2021-06-10T06:47:21.671Z</time>
      </trkpt>
      <trkpt lat="44.54363" lon="6.27336">
        <ele>863.40002441406</ele>
        <time>2021-06-10T06:47:28.168Z</time>
      </trkpt>
      <trkpt lat="44.54378" lon="6.27321">
        <ele>862.20001220703</ele>
        <time>2021-06-10T06:47:34.671Z</time>
      </trkpt>
      <trkpt lat="44.54399" lon="6.27305">
        <ele>861.79998779297</ele>
        <time>2021-06-10T06:47:41.182Z</time>
      </trkpt>
      <trkpt lat="44.54375" lon="6.27327">
        <ele>861.59997558594</ele>
        <time>2021-06-10T06:47:47.702Z</time>
      </trkpt>
      <trkpt lat="44.54374" lon="6.27341">
        <ele>861.59997558594</ele>
        <time>2021-06-10T06:47:54.226Z</time>
      </trkpt>
      <trkpt lat="44.54385" lon="6.27374">
        <ele>861.40002441406</ele>
        <time>2021-06-10T06:48:00.758Z</time>
      </trkpt>
      <trkpt lat="44.54385" lon="6.27377">
        <ele>861.40002441406</ele>
        <time>2021-06-10T06:48:07.291Z</time>
      </trkpt>
      <trkpt lat="44.54379" lon="6.27386">
        <ele>861.40002441406</ele>
        <time>2021-06-10T06:48:13.827Z</time>
      </trkpt>
      <trkpt lat="44.54381" lon="6.27405">
        <ele>861.40002441406</ele>
        <time>2021-06-10T06:48:20.367Z</time>
      </trkpt>
      <trkpt lat="44.54315" lon="6.27472">
        <ele>860.20001220703</ele>
        <time>2021-06-10T06:48:26.934Z</time>
      </trkpt>
      <trkpt lat="44.54271" lon="6.27509">
        <ele>860.20001220703</ele>
        <time>2021-06-10T06:48:33.518Z</time>
      </trkpt>
      <trkpt lat="44.54262" lon="6.27518">
        <ele>858.79998779297</ele>
        <time>2021-06-10T06:48:40.105Z</time>
      </trkpt>
      <trkpt lat="44.54257" lon="6.2753">
        <ele>859.20001220703</ele>
        <time>2021-06-10T06:48:46.696Z</time>
      </trkpt>
      <trkpt lat="44.54259" lon="6.27553">
        <ele>859.59997558594</ele>
        <time>2021-06-10T06:48:53.292Z</time>
      </trkpt>
      <trkpt lat="44.54253" lon="6.27569">
        <ele>859.59997558594</ele>
        <time>2021-06-10T06:48:59.892Z</time>
      </trkpt>
      <trkpt lat="44.54249" lon="6.27574">
        <ele>858.40002441406</ele>
        <time>2021-06-10T06:49:06.494Z</time>
      </trkpt>
      <trkpt lat="44.54232" lon="6.27581">
        <ele>857.40002441406</ele>
        <time>2021-06-10T06:49:13.102Z</time>
      </trkpt>
      <trkpt lat="44.54218" lon="6.2759">
        <ele>855.20001220703</ele>
        <time>2021-06-10T06:49:19.715Z</time>
      </trkpt>
      <trkpt lat="44.54167" lon="6.27629">
        <ele>853.20001220703</ele>
        <time>2021-06-10T06:49:26.347Z</time>
      </trkpt>
      <trkpt lat="44.5414" lon="6.27653">
        <ele>852.40002441406</ele>
        <time>2021-06-10T06:49:32.989Z</time>
      </trkpt>
      <trkpt lat="44.54134" lon="6.27661">
        <ele>852.40002441406</ele>
        <time>2021-06-10T06:49:39.634Z</time>
      </trkpt>
      <trkpt lat="44.54086" lon="6.27695">
        <ele>850.59997558594</ele>
        <time>2021-06-10T06:49:46.297Z</time>
      </trkpt>
      <trkpt lat="44.54072" lon="6.27701">
        <ele>850.79998779297</ele>
        <time>2021-06-10T06:49:52.965Z</time>
      </trkpt>
      <trkpt lat="44.54052" lon="6.27716">
        <ele>850.79998779297</ele>
        <time>2021-06-10T06:49:59.640Z</time>
      </trkpt>
      <trkpt lat="44.54022" lon="6.27742">
        <ele>850.79998779297</ele>
        <time>2021-06-10T06:50:06.327Z</time>
      </trkpt>
      <trkpt lat="44.54017" lon="6.27752">
        <ele>850.79998779297</ele>
        <time>2021-06-10T06:50:13.016Z</time>
      </trkpt>
      <trkpt lat="44.5401" lon="6.27761">
        <ele>850.79998779297</ele>
        <time>2021-06-10T06:50:19.709Z</time>
      </trkpt>
      <trkpt lat="44.53962" lon="6.27787">
        <ele>847.59997558594</ele>
        <time>2021-06-10T06:50:26.419Z</time>
      </trkpt>
      <trkpt lat="44.53942" lon="6.27801">
        <ele>847.59997558594</ele>
        <time>2021-06-10T06:50:33.136Z</time>
      </trkpt>
      <trkpt lat="44.53923" lon="6.27809">
        <ele>846.79998779297</ele>
        <time>2021-06-10T06:50:39.859Z</time>
      </trkpt>
      <trkpt lat="44.53905" lon="6.27829">
        <ele>846.40002441406</ele>
        <time>2021-06-10T06:50:46.590Z</time>
      </trkpt>
      <trkpt lat="44.53897" lon="6.27834">
        <ele>846.20001220703</ele>
        <time>2021-06-10T06:50:53.324Z</time>
      </trkpt>
      <trkpt lat="44.53875" lon="6.27838">
        <ele>845.79998779297</ele>
        <time>2021-06-10T06:51:00.065Z</time>
      </trkpt>
      <trkpt lat="44.5381" lon="6.27864">
        <ele>845.79998779297</ele>
        <time>2021-06-10T06:51:06.828Z</time>
      </trkpt>
      <trkpt lat="44.53799" lon="6.27869">
        <ele>844.40002441406</ele>
        <time>2021-06-10T06:51:13.595Z</time>
      </trkpt>
      <trkpt lat="44.5378" lon="6.27889">
        <ele>843</ele>
        <time>2021-06-10T06:51:20.370Z</time>
      </trkpt>
      <trkpt lat="44.53766" lon="6.27891">
        <ele>843</ele>
        <time>2021-06-10T06:51:27.149Z</time>
      </trkpt>
      <trkpt lat="44.5376" lon="6.27894">
        <ele>842.20001220703</ele>
        <time>2021-06-10T06:51:33.930Z</time>
      </trkpt>
      <trkpt lat="44.53753" lon="6.27891">
        <ele>842.20001220703</ele>
        <time>2021-06-10T06:51:40.714Z</time>
      </trkpt>
      <trkpt lat="44.53735" lon="6.2788">
        <ele>842.20001220703</ele>
        <time>2021-06-10T06:51:47.504Z</time>
      </trkpt>
      <trkpt lat="44.53718" lon="6.27884">
        <ele>842.20001220703</ele>
        <time>2021-06-10T06:51:54.300Z</time>
      </trkpt>
      <trkpt lat="44.53692" lon="6.27901">
        <ele>841.79998779297</ele>
        <time>2021-06-10T06:52:01.105Z</time>
      </trkpt>
      <trkpt lat="44.53676" lon="6.27909">
        <ele>841.79998779297</ele>
        <time>2021-06-10T06:52:07.916Z</time>
      </trkpt>
      <trkpt lat="44.53671" lon="6.27908">
        <ele>841.79998779297</ele>
        <time>2021-06-10T06:52:14.728Z</time>
      </trkpt>
      <trkpt lat="44.53633" lon="6.27889">
        <ele>841.79998779297</ele>
        <time>2021-06-10T06:52:21.554Z</time>
      </trkpt>
      <trkpt lat="44.53614" lon="6.27884">
        <ele>841.79998779297</ele>
        <time>2021-06-10T06:52:28.386Z</time>
      </trkpt>
      <trkpt lat="44.53599" lon="6.27887">
        <ele>841.79998779297</ele>
        <time>2021-06-10T06:52:35.223Z</time>
      </trkpt>
      <trkpt lat="44.53582" lon="6.27904">
        <ele>841</ele>
        <time>2021-06-10T06:52:42.067Z</time>
      </trkpt>
      <trkpt lat="44.53574" lon="6.27913">
        <ele>841</ele>
        <time>2021-06-10T06:52:48.914Z</time>
      </trkpt>
      <trkpt lat="44.53561" lon="6.27935">
        <ele>841</ele>
        <time>2021-06-10T06:52:55.768Z</time>
      </trkpt>
      <trkpt lat="44.53525" lon="6.27974">
        <ele>840.40002441406</ele>
        <time>2021-06-10T06:53:02.637Z</time>
      </trkpt>
      <trkpt lat="44.53496" lon="6.27995">
        <ele>840.40002441406</ele>
        <time>2021-06-10T06:53:09.516Z</time>
      </trkpt>
      <trkpt lat="44.53439" lon="6.28027">
        <ele>840.40002441406</ele>
        <time>2021-06-10T06:53:16.415Z</time>
      </trkpt>
      <trkpt lat="44.53427" lon="6.28037">
        <ele>838</ele>
        <time>2021-06-10T06:53:23.319Z</time>
      </trkpt>
      <trkpt lat="44.53405" lon="6.28059">
        <ele>838</ele>
        <time>2021-06-10T06:53:30.232Z</time>
      </trkpt>
      <trkpt lat="44.53358" lon="6.28098">
        <ele>838</ele>
        <time>2021-06-10T06:53:37.163Z</time>
      </trkpt>
      <trkpt lat="44.53309" lon="6.28156">
        <ele>838.40002441406</ele>
        <time>2021-06-10T06:53:44.115Z</time>
      </trkpt>
      <trkpt lat="44.53256" lon="6.2821">
        <ele>838.40002441406</ele>
        <time>2021-06-10T06:53:51.088Z</time>
      </trkpt>
      <trkpt lat="44.53228" lon="6.2823">
        <ele>833.79998779297</ele>
        <time>2021-06-10T06:53:58.072Z</time>
      </trkpt>
      <trkpt lat="44.53187" lon="6.28266">
        <ele>833.40002441406</ele>
        <time>2021-06-10T06:54:05.071Z</time>
      </trkpt>
      <trkpt lat="44.5315" lon="6.28313">
        <ele>833.40002441406</ele>
        <time>2021-06-10T06:54:12.087Z</time>
      </trkpt>
      <trkpt lat="44.5313" lon="6.28329">
        <ele>835</ele>
        <time>2021-06-10T06:54:19.110Z</time>
      </trkpt>
      <trkpt lat="44.5308" lon="6.28347">
        <ele>835</ele>
        <time>2021-06-10T06:54:26.150Z</time>
      </trkpt>
      <trkpt lat="44.53072" lon="6.28358">
        <ele>832.79998779297</ele>
        <time>2021-06-10T06:54:33.194Z</time>
      </trkpt>
      <trkpt lat="44.53053" lon="6.28422">
        <ele>840.59997558594</ele>
        <time>2021-06-10T06:54:40.254Z</time>
      </trkpt>
      <trkpt lat="44.53048" lon="6.28436">
        <ele>842.20001220703</ele>
        <time>2021-06-10T06:54:47.318Z</time>
      </trkpt>
      <trkpt lat="44.53045" lon="6.28474">
        <ele>842.20001220703</ele>
        <time>2021-06-10T06:54:54.391Z</time>
      </trkpt>
      <trkpt lat="44.53045" lon="6.28491">
        <ele>842.20001220703</ele>
        <time>2021-06-10T06:55:01.468Z</time>
      </trkpt>
      <trkpt lat="44.53043" lon="6.28492">
        <ele>847.79998779297</ele>
        <time>2021-06-10T06:55:08.546Z</time>
      </trkpt>
      <trkpt lat="44.53037" lon="6.28453">
        <ele>847.79998779297</ele>
        <time>2021-06-10T06:55:15.633Z</time>
      </trkpt>
      <trkpt lat="44.53045" lon="6.28404">
        <ele>847.20001220703</ele>
        <time>2021-06-10T06:55:22.732Z</time>
      </trkpt>
      <trkpt lat="44.53038" lon="6.28391">
        <ele>847.20001220703</ele>
        <time>2021-06-10T06:55:29.835Z</time>
      </trkpt>
      <trkpt lat="44.53018" lon="6.28383">
        <ele>847.20001220703</ele>
        <time>2021-06-10T06:55:36.945Z</time>
      </trkpt>
      <trkpt lat="44.53007" lon="6.28383">
        <ele>847.40002441406</ele>
        <time>2021-06-10T06:55:44.058Z</time>
      </trkpt>
      <trkpt lat="44.52979" lon="6.28388">
        <ele>847.79998779297</ele>
        <time>2021-06-10T06:55:51.180Z</time>
      </trkpt>
      <trkpt lat="44.52973" lon="6.28392">
        <ele>847.79998779297</ele>
        <time>2021-06-10T06:55:58.305Z</time>
      </trkpt>
      <trkpt lat="44.52959" lon="6.28406">
        <ele>847.79998779297</ele>
        <time>2021-06-10T06:56:05.435Z</time>
      </trkpt>
      <trkpt lat="44.52948" lon="6.28412">
        <ele>848.20001220703</ele>
        <time>2021-06-10T06:56:12.569Z</time>
      </trkpt>
      <trkpt lat="44.52941" lon="6.28413">
        <ele>848.20001220703</ele>
        <time>2021-06-10T06:56:19.705Z</time>
      </trkpt>
      <trkpt lat="44.52956" lon="6.28392">
        <ele>848.20001220703</ele>
        <time>2021-06-10T06:56:26.848Z</time>
      </trkpt>
      <trkpt lat="44.52971" lon="6.28377">
        <ele>848.59997558594</ele>
        <time>2021-06-10T06:56:33.997Z</time>
      </trkpt>
      <trkpt lat="44.52979" lon="6.28356">
        <ele>849</ele>
        <time>2021-06-10T06:56:41.152Z</time>
      </trkpt>
      <trkpt lat="44.52977" lon="6.28337">
        <ele>849</ele>
        <time>2021-06-10T06:56:48.311Z</time>
      </trkpt>
      <trkpt lat="44.52973" lon="6.28331">
        <ele>849.20001220703</ele>
        <time>2021-06-10T06:56:55.472Z</time>
      </trkpt>
      <trkpt lat="44.52965" lon="6.28325">
        <ele>849.40002441406</ele>
        <time>2021-06-10T06:57:02.636Z</time>
      </trkpt>
      <trkpt lat="44.5296" lon="6.28315">
        <ele>849.40002441406</ele>
        <time>2021-06-10T06:57:09.803Z</time>
      </trkpt>
      <trkpt lat="44.52965" lon="6.2831">
        <ele>849.59997558594</ele>
        <time>2021-06-10T06:57:16.972Z</time>
      </trkpt>
      <trkpt lat="44.5297" lon="6.2831">
        <ele>849.79998779297</ele>
        <time>2021-06-10T06:57:24.143Z</time>
      </trkpt>
      <trkpt lat="44.52977" lon="6.28306">
        <ele>850</ele>
        <time>2021-06-10T06:57:31.316Z</time>
      </trkpt>
      <trkpt lat="44.52998" lon="6.28299">
        <ele>850.20001220703</ele>
        <time>2021-06-10T06:57:38.496Z</time>
      </trkpt>
      <trkpt lat="44.53024" lon="6.28281">
        <ele>850.79998779297</ele>
        <time>2021-06-10T06:57:45.686Z</time>
      </trkpt>
      <trkpt lat="44.53033" lon="6.28268">
        <ele>850.79998779297</ele>
        <time>2021-06-10T06:57:52.880Z</time>
      </trkpt>
      <trkpt lat="44.53043" lon="6.28238">
        <ele>850.79998779297</ele>
        <time>2021-06-10T06:58:00.082Z</time>
      </trkpt>
      <trkpt lat="44.53045" lon="6.28221">
        <ele>850.79998779297</ele>
        <time>2021-06-10T06:58:07.288Z</time>
      </trkpt>
      <trkpt lat="44.53068" lon="6.28212">
        <ele>850.79998779297</ele>
        <time>2021-06-10T06:58:14.502Z</time>
      </trkpt>
      <trkpt lat="44.53132" lon="6.28163">
        <ele>851.79998779297</ele>
        <time>2021-06-10T06:58:21.740Z</time>
      </trkpt>
      <trkpt lat="44.53153" lon="6.28146">
        <ele>852.20001220703</ele>
        <time>2021-06-10T06:58:28.985Z</time>
      </trkpt>
      <trkpt lat="44.53174" lon="6.28107">
        <ele>852.20001220703</ele>
        <time>2021-06-10T06:58:36.242Z</time>
      </trkpt>
      <trkpt lat="44.53179" lon="6.28104">
        <ele>853.40002441406</ele>
        <time>2021-06-10T06:58:43.501Z</time>
      </trkpt>
      <trkpt lat="44.53195" lon="6.28099">
        <ele>853.40002441406</ele>
        <time>2021-06-10T06:58:50.765Z</time>
      </trkpt>
      <trkpt lat="44.53204" lon="6.28092">
        <ele>852.59997558594</ele>
        <time>2021-06-10T06:58:58.032Z</time>
      </trkpt>
      <trkpt lat="44.5322" lon="6.28072">
        <ele>852.59997558594</ele>
        <time>2021-06-10T06:59:05.307Z</time>
      </trkpt>
      <trkpt lat="44.53226" lon="6.2805">
        <ele>852.59997558594</ele>
        <time>2021-06-10T06:59:12.587Z</time>
      </trkpt>
      <trkpt lat="44.53224" lon="6.28039">
        <ele>852.79998779297</ele>
        <time>2021-06-10T06:59:19.870Z</time>
      </trkpt>
      <trkpt lat="44.53213" lon="6.28021">
        <ele>852.79998779297</ele>
        <time>2021-06-10T06:59:27.158Z</time>
      </trkpt>
      <trkpt lat="44.5321" lon="6.28019">
        <ele>853</ele>
        <time>2021-06-10T06:59:34.447Z</time>
      </trkpt>
      <trkpt lat="44.53207" lon="6.28013">
        <ele>853</ele>
        <time>2021-06-10T06:59:41.738Z</time>
      </trkpt>
      <trkpt lat="44.53207" lon="6.2801">
        <ele>852.20001220703</ele>
        <time>2021-06-10T06:59:49.030Z</time>
      </trkpt>
      <trkpt lat="44.53215" lon="6.28004">
        <ele>852.20001220703</ele>
        <time>2021-06-10T06:59:56.325Z</time>
      </trkpt>
      <trkpt lat="44.53225" lon="6.27992">
        <ele>852.20001220703</ele>
        <time>2021-06-10T07:00:03.624Z</time>
      </trkpt>
      <trkpt lat="44.53227" lon="6.2799">
        <ele>854</ele>
        <time>2021-06-10T07:00:10.924Z</time>
      </trkpt>
      <trkpt lat="44.53242" lon="6.27993">
        <ele>855.20001220703</ele>
        <time>2021-06-10T07:00:18.229Z</time>
      </trkpt>
      <trkpt lat="44.53254" lon="6.27984">
        <ele>855.20001220703</ele>
        <time>2021-06-10T07:00:25.538Z</time>
      </trkpt>
      <trkpt lat="44.53262" lon="6.27981">
        <ele>855.20001220703</ele>
        <time>2021-06-10T07:00:32.850Z</time>
      </trkpt>
      <trkpt lat="44.53277" lon="6.27989">
        <ele>855.20001220703</ele>
        <time>2021-06-10T07:00:40.167Z</time>
      </trkpt>
      <trkpt lat="44.53311" lon="6.27991">
        <ele>855.20001220703</ele>
        <time>2021-06-10T07:00:47.495Z</time>
      </trkpt>
      <trkpt lat="44.53327" lon="6.27989">
        <ele>854.59997558594</ele>
        <time>2021-06-10T07:00:54.829Z</time>
      </trkpt>
      <trkpt lat="44.53337" lon="6.27986">
        <ele>854.59997558594</ele>
        <time>2021-06-10T07:01:02.166Z</time>
      </trkpt>
      <trkpt lat="44.53379" lon="6.27961">
        <ele>855.20001220703</ele>
        <time>2021-06-10T07:01:09.518Z</time>
      </trkpt>
      <trkpt lat="44.53414" lon="6.27921">
        <ele>855.20001220703</ele>
        <time>2021-06-10T07:01:16.885Z</time>
      </trkpt>
      <trkpt lat="44.53426" lon="6.27904">
        <ele>855.79998779297</ele>
        <time>2021-06-10T07:01:24.257Z</time>
      </trkpt>
      <trkpt lat="44.53432" lon="6.27891">
        <ele>856.59997558594</ele>
        <time>2021-06-10T07:01:31.633Z</time>
      </trkpt>
      <trkpt lat="44.53438" lon="6.27869">
        <ele>856.59997558594</ele>
        <time>2021-06-10T07:01:39.014Z</time>
      </trkpt>
      <trkpt lat="44.53434" lon="6.27835">
        <ele>860.40002441406</ele>
        <time>2021-06-10T07:01:46.404Z</time>
      </trkpt>
      <trkpt lat="44.53436" lon="6.27813">
        <ele>858.59997558594</ele>
        <time>2021-06-10T07:01:53.799Z</time>
      </trkpt>
      <trkpt lat="44.53438" lon="6.2781">
        <ele>858.59997558594</ele>
        <time>2021-06-10T07:02:01.195Z</time>
      </trkpt>
      <trkpt lat="44.53464" lon="6.27797">
        <ele>857</ele>
        <time>2021-06-10T07:02:08.600Z</time>
      </trkpt>
      <trkpt lat="44.53474" lon="6.27796">
        <ele>857.79998779297</ele>
        <time>2021-06-10T07:02:16.008Z</time>
      </trkpt>
      <trkpt lat="44.53523" lon="6.2776">
        <ele>858.40002441406</ele>
        <time>2021-06-10T07:02:23.434Z</time>
      </trkpt>
      <trkpt lat="44.53554" lon="6.27757">
        <ele>858.79998779297</ele>
        <time>2021-06-10T07:02:30.870Z</time>
      </trkpt>
      <trkpt lat="44.53568" lon="6.2775">
        <ele>858.79998779297</ele>
        <time>2021-06-10T07:02:38.311Z</time>
      </trkpt>
      <trkpt lat="44.53592" lon="6.27753">
        <ele>858.79998779297</ele>
        <time>2021-06-10T07:02:45.760Z</time>
      </trkpt>
      <trkpt lat="44.53607" lon="6.27743">
        <ele>858.79998779297</ele>
        <time>2021-06-10T07:02:53.214Z</time>
      </trkpt>
      <trkpt lat="44.53629" lon="6.27736">
        <ele>858</ele>
        <time>2021-06-10T07:03:00.676Z</time>
      </trkpt>
      <trkpt lat="44.5365" lon="6.27736">
        <ele>858</ele>
        <time>2021-06-10T07:03:08.145Z</time>
      </trkpt>
      <trkpt lat="44.53661" lon="6.27739">
        <ele>858</ele>
        <time>2021-06-10T07:03:15.617Z</time>
      </trkpt>
      <trkpt lat="44.53687" lon="6.27732">
        <ele>858</ele>
        <time>2021-06-10T07:03:23.098Z</time>
      </trkpt>
      <trkpt lat="44.53694" lon="6.27736">
        <ele>858.40002441406</ele>
        <time>2021-06-10T07:03:30.582Z</time>
      </trkpt>
      <trkpt lat="44.53703" lon="6.27736">
        <ele>858.40002441406</ele>
        <time>2021-06-10T07:03:38.068Z</time>
      </trkpt>
      <trkpt lat="44.53723" lon="6.27743">
        <ele>858.40002441406</ele>
        <time>2021-06-10T07:03:45.561Z</time>
      </trkpt>
      <trkpt lat="44.53741" lon="6.27753">
        <ele>858.40002441406</ele>
        <time>2021-06-10T07:03:53.061Z</time>
      </trkpt>
      <trkpt lat="44.53749" lon="6.27755">
        <ele>858</ele>
        <time>2021-06-10T07:04:00.563Z</time>
      </trkpt>
      <trkpt lat="44.53781" lon="6.27752">
        <ele>858</ele>
        <time>2021-06-10T07:04:08.075Z</time>
      </trkpt>
      <trkpt lat="44.53808" lon="6.27752">
        <ele>858</ele>
        <time>2021-06-10T07:04:15.596Z</time>
      </trkpt>
      <trkpt lat="44.53812" lon="6.27755">
        <ele>858.59997558594</ele>
        <time>2021-06-10T07:04:23.119Z</time>
      </trkpt>
      <trkpt lat="44.53827" lon="6.2776">
        <ele>859.20001220703</ele>
        <time>2021-06-10T07:04:30.647Z</time>
      </trkpt>
      <trkpt lat="44.53842" lon="6.27767">
        <ele>859.20001220703</ele>
        <time>2021-06-10T07:04:38.180Z</time>
      </trkpt>
      <trkpt lat="44.53861" lon="6.27768">
        <ele>859.20001220703</ele>
        <time>2021-06-10T07:04:45.719Z</time>
      </trkpt>
      <trkpt lat="44.53863" lon="6.27772">
        <ele>859.40002441406</ele>
        <time>2021-06-10T07:04:53.260Z</time>
      </trkpt>
      <trkpt lat="44.53867" lon="6.27773">
        <ele>859.40002441406</ele>
        <time>2021-06-10T07:05:00.802Z</time>
      </trkpt>
      <trkpt lat="44.53874" lon="6.27765">
        <ele>857.79998779297</ele>
        <time>2021-06-10T07:05:08.347Z</time>
      </trkpt>
      <trkpt lat="44.53879" lon="6.27762">
        <ele>857.79998779297</ele>
        <time>2021-06-10T07:05:15.894Z</time>
      </trkpt>
      <trkpt lat="44.53903" lon="6.27756">
        <ele>857.79998779297</ele>
        <time>2021-06-10T07:05:23.449Z</time>
      </trkpt>
      <trkpt lat="44.53927" lon="6.27747">
        <ele>859.79998779297</ele>
        <time>2021-06-10T07:05:31.012Z</time>
      </trkpt>
      <trkpt lat="44.53987" lon="6.27731">
        <ele>859.59997558594</ele>
        <time>2021-06-10T07:05:38.595Z</time>
      </trkpt>
      <trkpt lat="44.53998" lon="6.27726">
        <ele>859.59997558594</ele>
        <time>2021-06-10T07:05:46.182Z</time>
      </trkpt>
      <trkpt lat="44.54043" lon="6.27696">
        <ele>859.40002441406</ele>
        <time>2021-06-10T07:05:53.785Z</time>
      </trkpt>
      <trkpt lat="44.54054" lon="6.27688">
        <ele>859.20001220703</ele>
        <time>2021-06-10T07:06:01.392Z</time>
      </trkpt>
      <trkpt lat="44.54067" lon="6.27675">
        <ele>859.20001220703</ele>
        <time>2021-06-10T07:06:09.004Z</time>
      </trkpt>
      <trkpt lat="44.54095" lon="6.27639">
        <ele>859.79998779297</ele>
        <time>2021-06-10T07:06:16.629Z</time>
      </trkpt>
      <trkpt lat="44.54125" lon="6.27606">
        <ele>859.59997558594</ele>
        <time>2021-06-10T07:06:24.266Z</time>
      </trkpt>
      <trkpt lat="44.5414" lon="6.27585">
        <ele>859.59997558594</ele>
        <time>2021-06-10T07:06:31.910Z</time>
      </trkpt>
      <trkpt lat="44.54147" lon="6.27573">
        <ele>859.59997558594</ele>
        <time>2021-06-10T07:06:39.558Z</time>
      </trkpt>
      <trkpt lat="44.54157" lon="6.27565">
        <ele>859.59997558594</ele>
        <time>2021-06-10T07:06:47.209Z</time>
      </trkpt>
      <trkpt lat="44.54164" lon="6.27553">
        <ele>860</ele>
        <time>2021-06-10T07:06:54.864Z</time>
      </trkpt>
      <trkpt lat="44.54179" lon="6.27534">
        <ele>860.20001220703</ele>
        <time>2021-06-10T07:07:02.526Z</time>
      </trkpt>
      <trkpt lat="44.54183" lon="6.27526">
        <ele>860.20001220703</ele>
        <time>2021-06-10T07:07:10.190Z</time>
      </trkpt>
      <trkpt lat="44.54203" lon="6.27502">
        <ele>860</ele>
        <time>2021-06-10T07:07:17.863Z</time>
      </trkpt>
      <trkpt lat="44.54203" lon="6.27498">
        <ele>859.79998779297</ele>
        <time>2021-06-10T07:07:25.537Z</time>
      </trkpt>
      <trkpt lat="44.54203" lon="6.27501">
        <ele>859.79998779297</ele>
        <time>2021-06-10T07:07:33.211Z</time>
      </trkpt>
      <trkpt lat="44.54186" lon="6.27518">
        <ele>859.79998779297</ele>
        <time>2021-06-10T07:07:40.892Z</time>
      </trkpt>
      <trkpt lat="44.54174" lon="6.27537">
        <ele>859.79998779297</ele>
        <time>2021-06-10T07:07:48.579Z</time>
      </trkpt>
      <trkpt lat="44.54168" lon="6.27541">
        <ele>859.79998779297</ele>
        <time>2021-06-10T07:07:56.268Z</time>
      </trkpt>
      <trkpt lat="44.54172" lon="6.27542">
        <ele>860</ele>
        <time>2021-06-10T07:08:03.959Z</time>
      </trkpt>
      <trkpt lat="44.54178" lon="6.27533">
        <ele>860</ele>
        <time>2021-06-10T07:08:11.653Z</time>
      </trkpt>
      <trkpt lat="44.542" lon="6.2751">
        <ele>860.40002441406</ele>
        <time>2021-06-10T07:08:19.356Z</time>
      </trkpt>
      <trkpt lat="44.54203" lon="6.27503">
        <ele>860.59997558594</ele>
        <time>2021-06-10T07:08:27.061Z</time>
      </trkpt>
      <trkpt lat="44.5421" lon="6.27513">
        <ele>860.59997558594</ele>
        <time>2021-06-10T07:08:34.769Z</time>
      </trkpt>
      <trkpt lat="44.54239" lon="6.2753">
        <ele>859.40002441406</ele>
        <time>2021-06-10T07:08:42.487Z</time>
      </trkpt>
      <trkpt lat="44.54256" lon="6.27526">
        <ele>859.20001220703</ele>
        <time>2021-06-10T07:08:50.211Z</time>
      </trkpt>
      <trkpt lat="44.54269" lon="6.27519">
        <ele>859.20001220703</ele>
        <time>2021-06-10T07:08:57.940Z</time>
      </trkpt>
      <trkpt lat="44.54289" lon="6.27504">
        <ele>859.59997558594</ele>
        <time>2021-06-10T07:09:05.676Z</time>
      </trkpt>
      <trkpt lat="44.5432" lon="6.27474">
        <ele>860.79998779297</ele>
        <time>2021-06-10T07:09:13.424Z</time>
      </trkpt>
      <trkpt lat="44.54335" lon="6.27458">
        <ele>860.79998779297</ele>
        <time>2021-06-10T07:09:21.178Z</time>
      </trkpt>
      <trkpt lat="44.54356" lon="6.2743">
        <ele>860.79998779297</ele>
        <time>2021-06-10T07:09:28.942Z</time>
      </trkpt>
      <trkpt lat="44.54418" lon="6.27365">
        <ele>862.79998779297</ele>
        <time>2021-06-10T07:09:36.731Z</time>
      </trkpt>
      <trkpt lat="44.54474" lon="6.27299">
        <ele>862.79998779297</ele>
        <time>2021-06-10T07:09:44.544Z</time>
      </trkpt>
      <trkpt lat="44.54492" lon="6.27274">
        <ele>863.59997558594</ele>
        <time>2021-06-10T07:09:52.366Z</time>
      </trkpt>
      <trkpt lat="44.54507" lon="6.27249">
        <ele>863.59997558594</ele>
        <time>2021-06-10T07:10:00.195Z</time>
      </trkpt>
      <trkpt lat="44.54534" lon="6.27199">
        <ele>864.20001220703</ele>
        <time>2021-06-10T07:10:08.039Z</time>
      </trkpt>
      <trkpt lat="44.54562" lon="6.27141">
        <ele>863.59997558594</ele>
        <time>2021-06-10T07:10:15.899Z</time>
      </trkpt>
      <trkpt lat="44.5459" lon="6.27074">
        <ele>863.59997558594</ele>
        <time>2021-06-10T07:10:23.777Z</time>
      </trkpt>
      <trkpt lat="44.5462" lon="6.27011">
        <ele>862.40002441406</ele>
        <time>2021-06-10T07:10:31.673Z</time>
      </trkpt>
      <trkpt lat="44.54629" lon="6.26987">
        <ele>862.40002441406</ele>
        <time>2021-06-10T07:10:39.576Z</time>
      </trkpt>
      <trkpt lat="44.54638" lon="6.26957">
        <ele>862.20001220703</ele>
        <time>2021-06-10T07:10:47.486Z</time>
      </trkpt>
      <trkpt lat="44.54645" lon="6.26917">
        <ele>862.20001220703</ele>
        <time>2021-06-10T07:10:55.406Z</time>
      </trkpt>
      <trkpt lat="44.54658" lon="6.26831">
        <ele>862.20001220703</ele>
        <time>2021-06-10T07:11:03.346Z</time>
      </trkpt>
      <trkpt lat="44.54663" lon="6.26788">
        <ele>862.20001220703</ele>
        <time>2021-06-10T07:11:11.297Z</time>
      </trkpt>
      <trkpt lat="44.54659" lon="6.2676">
        <ele>858.40002441406</ele>
        <time>2021-06-10T07:11:19.254Z</time>
      </trkpt>
      <trkpt lat="44.54648" lon="6.2675">
        <ele>858.40002441406</ele>
        <time>2021-06-10T07:11:27.215Z</time>
      </trkpt>
      <trkpt lat="44.54586" lon="6.26731">
        <ele>859.20001220703</ele>
        <time>2021-06-10T07:11:35.197Z</time>
      </trkpt>
      <trkpt lat="44.54567" lon="6.2672">
        <ele>859.20001220703</ele>
        <time>2021-06-10T07:11:43.186Z</time>
      </trkpt>
      <trkpt lat="44.54564" lon="6.26714">
        <ele>859</ele>
        <time>2021-06-10T07:11:51.177Z</time>
      </trkpt>
      <trkpt lat="44.54563" lon="6.26706">
        <ele>859</ele>
        <time>2021-06-10T07:11:59.170Z</time>
      </trkpt>
      <trkpt lat="44.54583" lon="6.26615">
        <ele>859</ele>
        <time>2021-06-10T07:12:07.185Z</time>
      </trkpt>
      <trkpt lat="44.54593" lon="6.2659">
        <ele>859.79998779297</ele>
        <time>2021-06-10T07:12:15.207Z</time>
      </trkpt>
      <trkpt lat="44.54609" lon="6.26566">
        <ele>859.79998779297</ele>
        <time>2021-06-10T07:12:23.236Z</time>
      </trkpt>
      <trkpt lat="44.54625" lon="6.26534">
        <ele>859.59997558594</ele>
        <time>2021-06-10T07:12:31.274Z</time>
      </trkpt>
      <trkpt lat="44.54645" lon="6.26474">
        <ele>859.59997558594</ele>
        <time>2021-06-10T07:12:39.328Z</time>
      </trkpt>
      <trkpt lat="44.54657" lon="6.26423">
        <ele>859.59997558594</ele>
        <time>2021-06-10T07:12:47.394Z</time>
      </trkpt>
      <trkpt lat="44.54665" lon="6.26375">
        <ele>859.59997558594</ele>
        <time>2021-06-10T07:12:55.472Z</time>
      </trkpt>
      <trkpt lat="44.54687" lon="6.26298">
        <ele>859.59997558594</ele>
        <time>2021-06-10T07:13:03.569Z</time>
      </trkpt>
      <trkpt lat="44.54697" lon="6.2623">
        <ele>861.59997558594</ele>
        <time>2021-06-10T07:13:11.683Z</time>
      </trkpt>
      <trkpt lat="44.54705" lon="6.26189">
        <ele>861.59997558594</ele>
        <time>2021-06-10T07:13:19.806Z</time>
      </trkpt>
      <trkpt lat="44.54706" lon="6.26163">
        <ele>862</ele>
        <time>2021-06-10T07:13:27.936Z</time>
      </trkpt>
      <trkpt lat="44.54694" lon="6.2615">
        <ele>862</ele>
        <time>2021-06-10T07:13:36.070Z</time>
      </trkpt>
      <trkpt lat="44.54677" lon="6.26142">
        <ele>862</ele>
        <time>2021-06-10T07:13:44.210Z</time>
      </trkpt>
      <trkpt lat="44.54666" lon="6.2613">
        <ele>863.40002441406</ele>
        <time>2021-06-10T07:13:52.355Z</time>
      </trkpt>
      <trkpt lat="44.54653" lon="6.26105">
        <ele>863.40002441406</ele>
        <time>2021-06-10T07:14:00.507Z</time>
      </trkpt>
      <trkpt lat="44.54648" lon="6.26099">
        <ele>865.79998779297</ele>
        <time>2021-06-10T07:14:08.661Z</time>
      </trkpt>
      <trkpt lat="44.54639" lon="6.26095">
        <ele>865.79998779297</ele>
        <time>2021-06-10T07:14:16.818Z</time>
      </trkpt>
      <trkpt lat="44.546" lon="6.26091">
        <ele>865.79998779297</ele>
        <time>2021-06-10T07:14:24.988Z</time>
      </trkpt>
      <trkpt lat="44.54534" lon="6.26102">
        <ele>880.59997558594</ele>
        <time>2021-06-10T07:14:33.180Z</time>
      </trkpt>
      <trkpt lat="44.54516" lon="6.26108">
        <ele>883</ele>
        <time>2021-06-10T07:14:41.378Z</time>
      </trkpt>
      <trkpt lat="44.54505" lon="6.26109">
        <ele>884.40002441406</ele>
        <time>2021-06-10T07:14:49.579Z</time>
      </trkpt>
      <trkpt lat="44.5448" lon="6.26102">
        <ele>887.79998779297</ele>
        <time>2021-06-10T07:14:57.789Z</time>
      </trkpt>
      <trkpt lat="44.54473" lon="6.26095">
        <ele>887.79998779297</ele>
        <time>2021-06-10T07:15:06.002Z</time>
      </trkpt>
      <trkpt lat="44.5446" lon="6.26061">
        <ele>887.79998779297</ele>
        <time>2021-06-10T07:15:14.224Z</time>
      </trkpt>
      <trkpt lat="44.5446" lon="6.26055">
        <ele>891.79998779297</ele>
        <time>2021-06-10T07:15:22.447Z</time>
      </trkpt>
      <trkpt lat="44.54461" lon="6.26049">
        <ele>891.79998779297</ele>
        <time>2021-06-10T07:15:30.671Z</time>
      </trkpt>
      <trkpt lat="44.54464" lon="6.26046">
        <ele>891.79998779297</ele>
        <time>2021-06-10T07:15:38.897Z</time>
      </trkpt>
      <trkpt lat="44.54486" lon="6.26038">
        <ele>891.79998779297</ele>
        <time>2021-06-10T07:15:47.130Z</time>
      </trkpt>
      <trkpt lat="44.54492" lon="6.26033">
        <ele>897</ele>
        <time>2021-06-10T07:15:55.366Z</time>
      </trkpt>
      <trkpt lat="44.54502" lon="6.26015">
        <ele>897</ele>
        <time>2021-06-10T07:16:03.607Z</time>
      </trkpt>
      <trkpt lat="44.54516" lon="6.25986">
        <ele>897</ele>
        <time>2021-06-10T07:16:11.856Z</time>
      </trkpt>
      <trkpt lat="44.54542" lon="6.25943">
        <ele>897</ele>
        <time>2021-06-10T07:16:20.118Z</time>
      </trkpt>
      <trkpt lat="44.54569" lon="6.25905">
        <ele>897</ele>
        <time>2021-06-10T07:16:28.393Z</time>
      </trkpt>
      <trkpt lat="44.54581" lon="6.25877">
        <ele>907</ele>
        <time>2021-06-10T07:16:36.675Z</time>
      </trkpt>
      <trkpt lat="44.54585" lon="6.25857">
        <ele>907</ele>
        <time>2021-06-10T07:16:44.962Z</time>
      </trkpt>
      <trkpt lat="44.54585" lon="6.25845">
        <ele>907.79998779297</ele>
        <time>2021-06-10T07:16:53.252Z</time>
      </trkpt>
      <trkpt lat="44.54582" lon="6.25788">
        <ele>907.79998779297</ele>
        <time>2021-06-10T07:17:01.555Z</time>
      </trkpt>
      <trkpt lat="44.54583" lon="6.25776">
        <ele>909.20001220703</ele>
        <time>2021-06-10T07:17:09.861Z</time>
      </trkpt>
      <trkpt lat="44.54588" lon="6.25756">
        <ele>909.20001220703</ele>
        <time>2021-06-10T07:17:18.172Z</time>
      </trkpt>
      <trkpt lat="44.54611" lon="6.25699">
        <ele>909.20001220703</ele>
        <time>2021-06-10T07:17:26.498Z</time>
      </trkpt>
      <trkpt lat="44.54635" lon="6.25623">
        <ele>909.20001220703</ele>
        <time>2021-06-10T07:17:34.844Z</time>
      </trkpt>
      <trkpt lat="44.54655" lon="6.25567">
        <ele>909.20001220703</ele>
        <time>2021-06-10T07:17:43.204Z</time>
      </trkpt>
      <trkpt lat="44.54669" lon="6.25533">
        <ele>919.40002441406</ele>
        <time>2021-06-10T07:17:51.574Z</time>
      </trkpt>
      <trkpt lat="44.5468" lon="6.255">
        <ele>919.40002441406</ele>
        <time>2021-06-10T07:17:59.952Z</time>
      </trkpt>
      <trkpt lat="44.54689" lon="6.25448">
        <ele>919.40002441406</ele>
        <time>2021-06-10T07:18:08.343Z</time>
      </trkpt>
      <trkpt lat="44.54704" lon="6.2538">
        <ele>924.20001220703</ele>
        <time>2021-06-10T07:18:16.750Z</time>
      </trkpt>
      <trkpt lat="44.54722" lon="6.25329">
        <ele>929.79998779297</ele>
        <time>2021-06-10T07:18:25.171Z</time>
      </trkpt>
      <trkpt lat="44.54743" lon="6.25246">
        <ele>937.20001220703</ele>
        <time>2021-06-10T07:18:33.612Z</time>
      </trkpt>
      <trkpt lat="44.54755" lon="6.25211">
        <ele>937.20001220703</ele>
        <time>2021-06-10T07:18:42.062Z</time>
      </trkpt>
      <trkpt lat="44.54764" lon="6.25181">
        <ele>941.79998779297</ele>
        <time>2021-06-10T07:18:50.520Z</time>
      </trkpt>
      <trkpt lat="44.5479" lon="6.25107">
        <ele>941.79998779297</ele>
        <time>2021-06-10T07:18:58.997Z</time>
      </trkpt>
      <trkpt lat="44.54798" lon="6.25082">
        <ele>948.59997558594</ele>
        <time>2021-06-10T07:19:07.481Z</time>
      </trkpt>
      <trkpt lat="44.54805" lon="6.25038">
        <ele>948.59997558594</ele>
        <time>2021-06-10T07:19:15.975Z</time>
      </trkpt>
      <trkpt lat="44.54811" lon="6.24975">
        <ele>948.59997558594</ele>
        <time>2021-06-10T07:19:24.484Z</time>
      </trkpt>
      <trkpt lat="44.54816" lon="6.24941">
        <ele>947</ele>
        <time>2021-06-10T07:19:33.001Z</time>
      </trkpt>
      <trkpt lat="44.54847" lon="6.24844">
        <ele>947</ele>
        <time>2021-06-10T07:19:41.543Z</time>
      </trkpt>
      <trkpt lat="44.54846" lon="6.24821">
        <ele>951</ele>
        <time>2021-06-10T07:19:50.090Z</time>
      </trkpt>
      <trkpt lat="44.54828" lon="6.24756">
        <ele>951</ele>
        <time>2021-06-10T07:19:58.654Z</time>
      </trkpt>
      <trkpt lat="44.54825" lon="6.2475">
        <ele>948.40002441406</ele>
        <time>2021-06-10T07:20:07.219Z</time>
      </trkpt>
      <trkpt lat="44.54823" lon="6.24749">
        <ele>948.40002441406</ele>
        <time>2021-06-10T07:20:15.785Z</time>
      </trkpt>
      <trkpt lat="44.54806" lon="6.24753">
        <ele>947.40002441406</ele>
        <time>2021-06-10T07:20:24.357Z</time>
      </trkpt>
      <trkpt lat="44.5479" lon="6.24745">
        <ele>947.40002441406</ele>
        <time>2021-06-10T07:20:32.934Z</time>
      </trkpt>
      <trkpt lat="44.54776" lon="6.24732">
        <ele>949.20001220703</ele>
        <time>2021-06-10T07:20:41.517Z</time>
      </trkpt>
      <trkpt lat="44.54761" lon="6.24726">
        <ele>949.20001220703</ele>
        <time>2021-06-10T07:20:50.105Z</time>
      </trkpt>
      <trkpt lat="44.54724" lon="6.24728">
        <ele>949.20001220703</ele>
        <time>2021-06-10T07:20:58.705Z</time>
      </trkpt>
      <trkpt lat="44.54707" lon="6.24726">
        <ele>949.20001220703</ele>
        <time>2021-06-10T07:21:07.311Z</time>
      </trkpt>
      <trkpt lat="44.54662" lon="6.24708">
        <ele>949.20001220703</ele>
        <time>2021-06-10T07:21:15.932Z</time>
      </trkpt>
      <trkpt lat="44.54653" lon="6.24708">
        <ele>958</ele>
        <time>2021-06-10T07:21:24.556Z</time>
      </trkpt>
      <trkpt lat="44.54647" lon="6.24711">
        <ele>958</ele>
        <time>2021-06-10T07:21:33.182Z</time>
      </trkpt>
      <trkpt lat="44.54636" lon="6.24723">
        <ele>958</ele>
        <time>2021-06-10T07:21:41.813Z</time>
      </trkpt>
      <trkpt lat="44.54624" lon="6.2473">
        <ele>961.20001220703</ele>
        <time>2021-06-10T07:21:50.448Z</time>
      </trkpt>
      <trkpt lat="44.54608" lon="6.24727">
        <ele>962.40002441406</ele>
        <time>2021-06-10T07:21:59.088Z</time>
      </trkpt>
      <trkpt lat="44.54599" lon="6.24722">
        <ele>962.40002441406</ele>
        <time>2021-06-10T07:22:07.731Z</time>
      </trkpt>
      <trkpt lat="44.54589" lon="6.24711">
        <ele>964.20001220703</ele>
        <time>2021-06-10T07:22:16.378Z</time>
      </trkpt>
      <trkpt lat="44.54579" lon="6.24695">
        <ele>965.59997558594</ele>
        <time>2021-06-10T07:22:25.030Z</time>
      </trkpt>
      <trkpt lat="44.54575" lon="6.24672">
        <ele>965.59997558594</ele>
        <time>2021-06-10T07:22:33.688Z</time>
      </trkpt>
      <trkpt lat="44.54575" lon="6.24652">
        <ele>965.59997558594</ele>
        <time>2021-06-10T07:22:42.351Z</time>
      </trkpt>
      <trkpt lat="44.54578" lon="6.24617">
        <ele>969.79998779297</ele>
        <time>2021-06-10T07:22:51.022Z</time>
      </trkpt>
      <trkpt lat="44.54577" lon="6.24607">
        <ele>969.79998779297</ele>
        <time>2021-06-10T07:22:59.695Z</time>
      </trkpt>
      <trkpt lat="44.54572" lon="6.24592">
        <ele>969.79998779297</ele>
        <time>2021-06-10T07:23:08.372Z</time>
      </trkpt>
      <trkpt lat="44.54561" lon="6.24578">
        <ele>972.20001220703</ele>
        <time>2021-06-10T07:23:17.054Z</time>
      </trkpt>
      <trkpt lat="44.54551" lon="6.24571">
        <ele>972.20001220703</ele>
        <time>2021-06-10T07:23:25.740Z</time>
      </trkpt>
      <trkpt lat="44.54526" lon="6.24561">
        <ele>975.20001220703</ele>
        <time>2021-06-10T07:23:34.434Z</time>
      </trkpt>
      <trkpt lat="44.54495" lon="6.24541">
        <ele>977.40002441406</ele>
        <time>2021-06-10T07:23:43.139Z</time>
      </trkpt>
      <trkpt lat="44.54473" lon="6.24533">
        <ele>978.40002441406</ele>
        <time>2021-06-10T07:23:51.852Z</time>
      </trkpt>
      <trkpt lat="44.5446" lon="6.24533">
        <ele>978.40002441406</ele>
        <time>2021-06-10T07:24:00.569Z</time>
      </trkpt>
      <trkpt lat="44.54407" lon="6.24552">
        <ele>978.40002441406</ele>
        <time>2021-06-10T07:24:09.304Z</time>
      </trkpt>
      <trkpt lat="44.54371" lon="6.24561">
        <ele>982.40002441406</ele>
        <time>2021-06-10T07:24:18.051Z</time>
      </trkpt>
      <trkpt lat="44.54349" lon="6.24557">
        <ele>982.40002441406</ele>
        <time>2021-06-10T07:24:26.805Z</time>
      </trkpt>
      <trkpt lat="44.54331" lon="6.24541">
        <ele>982</ele>
        <time>2021-06-10T07:24:35.566Z</time>
      </trkpt>
      <trkpt lat="44.54301" lon="6.24502">
        <ele>982.20001220703</ele>
        <time>2021-06-10T07:24:44.340Z</time>
      </trkpt>
      <trkpt lat="44.54275" lon="6.24483">
        <ele>982.20001220703</ele>
        <time>2021-06-10T07:24:53.124Z</time>
      </trkpt>
      <trkpt lat="44.54245" lon="6.2447">
        <ele>982.20001220703</ele>
        <time>2021-06-10T07:25:01.918Z</time>
      </trkpt>
      <trkpt lat="44.54221" lon="6.24464">
        <ele>982.20001220703</ele>
        <time>2021-06-10T07:25:10.720Z</time>
      </trkpt>
      <trkpt lat="44.5419" lon="6.24441">
        <ele>982.20001220703</ele>
        <time>2021-06-10T07:25:19.534Z</time>
      </trkpt>
      <trkpt lat="44.54175" lon="6.24432">
        <ele>977.79998779297</ele>
        <time>2021-06-10T07:25:28.353Z</time>
      </trkpt>
      <trkpt lat="44.54163" lon="6.24427">
        <ele>976.79998779297</ele>
        <time>2021-06-10T07:25:37.176Z</time>
      </trkpt>
      <trkpt lat="44.54132" lon="6.2442">
        <ele>974</ele>
        <time>2021-06-10T07:25:46.009Z</time>
      </trkpt>
      <trkpt lat="44.5411" lon="6.2441">
        <ele>974</ele>
        <time>2021-06-10T07:25:54.850Z</time>
      </trkpt>
      <trkpt lat="44.54081" lon="6.24393">
        <ele>968.40002441406</ele>
        <time>2021-06-10T07:26:03.701Z</time>
      </trkpt>
      <trkpt lat="44.54066" lon="6.24387">
        <ele>966.59997558594</ele>
        <time>2021-06-10T07:26:12.557Z</time>
      </trkpt>
      <trkpt lat="44.5406" lon="6.24382">
        <ele>966.59997558594</ele>
        <time>2021-06-10T07:26:21.416Z</time>
      </trkpt>
      <trkpt lat="44.54051" lon="6.24363">
        <ele>966.59997558594</ele>
        <time>2021-06-10T07:26:30.280Z</time>
      </trkpt>
      <trkpt lat="44.54047" lon="6.24318">
        <ele>966.59997558594</ele>
        <time>2021-06-10T07:26:39.155Z</time>
      </trkpt>
      <trkpt lat="44.54049" lon="6.24234">
        <ele>966.59997558594</ele>
        <time>2021-06-10T07:26:48.049Z</time>
      </trkpt>
      <trkpt lat="44.54046" lon="6.24204">
        <ele>966.59997558594</ele>
        <time>2021-06-10T07:26:56.950Z</time>
      </trkpt>
      <trkpt lat="44.54039" lon="6.24176">
        <ele>973.79998779297</ele>
        <time>2021-06-10T07:27:05.858Z</time>
      </trkpt>
      <trkpt lat="44.54029" lon="6.24163">
        <ele>973.79998779297</ele>
        <time>2021-06-10T07:27:14.771Z</time>
      </trkpt>
      <trkpt lat="44.54015" lon="6.24154">
        <ele>973.40002441406</ele>
        <time>2021-06-10T07:27:23.689Z</time>
      </trkpt>
      <trkpt lat="44.53998" lon="6.24141">
        <ele>972</ele>
        <time>2021-06-10T07:27:32.613Z</time>
      </trkpt>
      <trkpt lat="44.53988" lon="6.24121">
        <ele>971.20001220703</ele>
        <time>2021-06-10T07:27:41.543Z</time>
      </trkpt>
      <trkpt lat="44.53951" lon="6.23961">
        <ele>979.20001220703</ele>
        <time>2021-06-10T07:27:50.512Z</time>
      </trkpt>
      <trkpt lat="44.5395" lon="6.23941">
        <ele>979.20001220703</ele>
        <time>2021-06-10T07:27:59.486Z</time>
      </trkpt>
      <trkpt lat="44.53954" lon="6.23911">
        <ele>979.20001220703</ele>
        <time>2021-06-10T07:28:08.467Z</time>
      </trkpt>
      <trkpt lat="44.53953" lon="6.23905">
        <ele>984.40002441406</ele>
        <time>2021-06-10T07:28:17.450Z</time>
      </trkpt>
      <trkpt lat="44.53934" lon="6.23866">
        <ele>984.40002441406</ele>
        <time>2021-06-10T07:28:26.444Z</time>
      </trkpt>
      <trkpt lat="44.53929" lon="6.23852">
        <ele>984.40002441406</ele>
        <time>2021-06-10T07:28:35.441Z</time>
      </trkpt>
      <trkpt lat="44.53923" lon="6.23841">
        <ele>984.40002441406</ele>
        <time>2021-06-10T07:28:44.442Z</time>
      </trkpt>
      <trkpt lat="44.53913" lon="6.23829">
        <ele>984.40002441406</ele>
        <time>2021-06-10T07:28:53.447Z</time>
      </trkpt>
      <trkpt lat="44.53899" lon="6.23817">
        <ele>995.20001220703</ele>
        <time>2021-06-10T07:29:02.457Z</time>
      </trkpt>
      <trkpt lat="44.53882" lon="6.23797">
        <ele>995.20001220703</ele>
        <time>2021-06-10T07:29:11.475Z</time>
      </trkpt>
      <trkpt lat="44.53862" lon="6.23789">
        <ele>995.20001220703</ele>
        <time>2021-06-10T07:29:20.499Z</time>
      </trkpt>
      <trkpt lat="44.53849" lon="6.23771">
        <ele>995.20001220703</ele>
        <time>2021-06-10T07:29:29.529Z</time>
      </trkpt>
      <trkpt lat="44.5384" lon="6.23766">
        <ele>995.20001220703</ele>
        <time>2021-06-10T07:29:38.562Z</time>
      </trkpt>
      <trkpt lat="44.53837" lon="6.23753">
        <ele>1004.5999755859</ele>
        <time>2021-06-10T07:29:47.599Z</time>
      </trkpt>
      <trkpt lat="44.53831" lon="6.23742">
        <ele>1004.5999755859</ele>
        <time>2021-06-10T07:29:56.639Z</time>
      </trkpt>
      <trkpt lat="44.53828" lon="6.23732">
        <ele>1004.5999755859</ele>
        <time>2021-06-10T07:30:05.682Z</time>
      </trkpt>
      <trkpt lat="44.5383" lon="6.23712">
        <ele>1009.200012207</ele>
        <time>2021-06-10T07:30:14.729Z</time>
      </trkpt>
      <trkpt lat="44.53828" lon="6.23695">
        <ele>1010.200012207</ele>
        <time>2021-06-10T07:30:23.780Z</time>
      </trkpt>
      <trkpt lat="44.53831" lon="6.23687">
        <ele>1010.200012207</ele>
        <time>2021-06-10T07:30:32.833Z</time>
      </trkpt>
      <trkpt lat="44.53841" lon="6.23692">
        <ele>1010.200012207</ele>
        <time>2021-06-10T07:30:41.890Z</time>
      </trkpt>
      <trkpt lat="44.53877" lon="6.23721">
        <ele>1010.200012207</ele>
        <time>2021-06-10T07:30:50.960Z</time>
      </trkpt>
      <trkpt lat="44.53897" lon="6.23726">
        <ele>1021.5999755859</ele>
        <time>2021-06-10T07:31:00.037Z</time>
      </trkpt>
      <trkpt lat="44.53915" lon="6.23722">
        <ele>1021.5999755859</ele>
        <time>2021-06-10T07:31:09.120Z</time>
      </trkpt>
      <trkpt lat="44.53926" lon="6.23714">
        <ele>1027</ele>
        <time>2021-06-10T07:31:18.207Z</time>
      </trkpt>
      <trkpt lat="44.53933" lon="6.23706">
        <ele>1029</ele>
        <time>2021-06-10T07:31:27.297Z</time>
      </trkpt>
      <trkpt lat="44.53945" lon="6.2368">
        <ele>1032.4000244141</ele>
        <time>2021-06-10T07:31:36.394Z</time>
      </trkpt>
      <trkpt lat="44.53957" lon="6.23676">
        <ele>1032.4000244141</ele>
        <time>2021-06-10T07:31:45.495Z</time>
      </trkpt>
      <trkpt lat="44.53965" lon="6.23679">
        <ele>1035.4000244141</ele>
        <time>2021-06-10T07:31:54.599Z</time>
      </trkpt>
      <trkpt lat="44.53973" lon="6.23686">
        <ele>1037.1999511719</ele>
        <time>2021-06-10T07:32:03.706Z</time>
      </trkpt>
      <trkpt lat="44.53975" lon="6.23685">
        <ele>1037.1999511719</ele>
        <time>2021-06-10T07:32:12.814Z</time>
      </trkpt>
      <trkpt lat="44.53979" lon="6.2368">
        <ele>1038.1999511719</ele>
        <time>2021-06-10T07:32:21.924Z</time>
      </trkpt>
      <trkpt lat="44.5398" lon="6.23671">
        <ele>1038.1999511719</ele>
        <time>2021-06-10T07:32:31.036Z</time>
      </trkpt>
      <trkpt lat="44.53978" lon="6.23632">
        <ele>1038.1999511719</ele>
        <time>2021-06-10T07:32:40.157Z</time>
      </trkpt>
      <trkpt lat="44.53983" lon="6.23602">
        <ele>1038.1999511719</ele>
        <time>2021-06-10T07:32:49.285Z</time>
      </trkpt>
      <trkpt lat="44.53983" lon="6.23556">
        <ele>1038.1999511719</ele>
        <time>2021-06-10T07:32:58.424Z</time>
      </trkpt>
      <trkpt lat="44.53983" lon="6.23554">
        <ele>1052</ele>
        <time>2021-06-10T07:33:07.563Z</time>
      </trkpt>
      <trkpt lat="44.53979" lon="6.23552">
        <ele>1052</ele>
        <time>2021-06-10T07:33:16.704Z</time>
      </trkpt>
      <trkpt lat="44.53946" lon="6.23539">
        <ele>1059.8000488281</ele>
        <time>2021-06-10T07:33:25.856Z</time>
      </trkpt>
      <trkpt lat="44.53932" lon="6.23531">
        <ele>1059.8000488281</ele>
        <time>2021-06-10T07:33:35.013Z</time>
      </trkpt>
      <trkpt lat="44.53927" lon="6.23526">
        <ele>1064.1999511719</ele>
        <time>2021-06-10T07:33:44.172Z</time>
      </trkpt>
      <trkpt lat="44.53914" lon="6.23505">
        <ele>1064.1999511719</ele>
        <time>2021-06-10T07:33:53.337Z</time>
      </trkpt>
      <trkpt lat="44.53904" lon="6.23492">
        <ele>1069</ele>
        <time>2021-06-10T07:34:02.507Z</time>
      </trkpt>
      <trkpt lat="44.53899" lon="6.23487">
        <ele>1069</ele>
        <time>2021-06-10T07:34:11.679Z</time>
      </trkpt>
      <trkpt lat="44.53883" lon="6.23479">
        <ele>1069</ele>
        <time>2021-06-10T07:34:20.856Z</time>
      </trkpt>
      <trkpt lat="44.53879" lon="6.23474">
        <ele>1072.4000244141</ele>
        <time>2021-06-10T07:34:30.035Z</time>
      </trkpt>
      <trkpt lat="44.53868" lon="6.2346">
        <ele>1072.4000244141</ele>
        <time>2021-06-10T07:34:39.219Z</time>
      </trkpt>
      <trkpt lat="44.53863" lon="6.2344">
        <ele>1072.4000244141</ele>
        <time>2021-06-10T07:34:48.408Z</time>
      </trkpt>
      <trkpt lat="44.5386" lon="6.23411">
        <ele>1072.4000244141</ele>
        <time>2021-06-10T07:34:57.604Z</time>
      </trkpt>
      <trkpt lat="44.53848" lon="6.23323">
        <ele>1084.8000488281</ele>
        <time>2021-06-10T07:35:06.821Z</time>
      </trkpt>
      <trkpt lat="44.53849" lon="6.23302">
        <ele>1086.1999511719</ele>
        <time>2021-06-10T07:35:16.043Z</time>
      </trkpt>
      <trkpt lat="44.5384" lon="6.23278">
        <ele>1087.4000244141</ele>
        <time>2021-06-10T07:35:25.271Z</time>
      </trkpt>
      <trkpt lat="44.53839" lon="6.23251">
        <ele>1087.8000488281</ele>
        <time>2021-06-10T07:35:34.505Z</time>
      </trkpt>
      <trkpt lat="44.5383" lon="6.23204">
        <ele>1086.5999755859</ele>
        <time>2021-06-10T07:35:43.751Z</time>
      </trkpt>
      <trkpt lat="44.5383" lon="6.23175">
        <ele>1088.8000488281</ele>
        <time>2021-06-10T07:35:53.004Z</time>
      </trkpt>
      <trkpt lat="44.53828" lon="6.23158">
        <ele>1088.8000488281</ele>
        <time>2021-06-10T07:36:02.261Z</time>
      </trkpt>
      <trkpt lat="44.53825" lon="6.23151">
        <ele>1089.4000244141</ele>
        <time>2021-06-10T07:36:11.520Z</time>
      </trkpt>
      <trkpt lat="44.53819" lon="6.23126">
        <ele>1089.4000244141</ele>
        <time>2021-06-10T07:36:20.785Z</time>
      </trkpt>
      <trkpt lat="44.53816" lon="6.23088">
        <ele>1088</ele>
        <time>2021-06-10T07:36:30.059Z</time>
      </trkpt>
      <trkpt lat="44.53803" lon="6.23031">
        <ele>1088.5999755859</ele>
        <time>2021-06-10T07:36:39.347Z</time>
      </trkpt>
      <trkpt lat="44.53799" lon="6.2299">
        <ele>1089</ele>
        <time>2021-06-10T07:36:48.645Z</time>
      </trkpt>
      <trkpt lat="44.53799" lon="6.22982">
        <ele>1089</ele>
        <time>2021-06-10T07:36:57.944Z</time>
      </trkpt>
      <trkpt lat="44.53804" lon="6.22968">
        <ele>1089.1999511719</ele>
        <time>2021-06-10T07:37:07.247Z</time>
      </trkpt>
      <trkpt lat="44.53804" lon="6.22944">
        <ele>1089.1999511719</ele>
        <time>2021-06-10T07:37:16.556Z</time>
      </trkpt>
      <trkpt lat="44.5379" lon="6.22802">
        <ele>1089.1999511719</ele>
        <time>2021-06-10T07:37:25.898Z</time>
      </trkpt>
      <trkpt lat="44.53787" lon="6.22784">
        <ele>1089.1999511719</ele>
        <time>2021-06-10T07:37:35.245Z</time>
      </trkpt>
      <trkpt lat="44.53785" lon="6.22781">
        <ele>1094.5999755859</ele>
        <time>2021-06-10T07:37:44.593Z</time>
      </trkpt>
      <trkpt lat="44.53778" lon="6.22686">
        <ele>1088.8000488281</ele>
        <time>2021-06-10T07:37:53.963Z</time>
      </trkpt>
      <trkpt lat="44.53761" lon="6.22611">
        <ele>1084</ele>
        <time>2021-06-10T07:38:03.351Z</time>
      </trkpt>
      <trkpt lat="44.53748" lon="6.22573">
        <ele>1077.8000488281</ele>
        <time>2021-06-10T07:38:12.749Z</time>
      </trkpt>
      <trkpt lat="44.53749" lon="6.22543">
        <ele>1073.8000488281</ele>
        <time>2021-06-10T07:38:22.154Z</time>
      </trkpt>
      <trkpt lat="44.53749" lon="6.2254">
        <ele>1073.8000488281</ele>
        <time>2021-06-10T07:38:31.560Z</time>
      </trkpt>
      <trkpt lat="44.53753" lon="6.2254">
        <ele>1071.4000244141</ele>
        <time>2021-06-10T07:38:40.967Z</time>
      </trkpt>
      <trkpt lat="44.53768" lon="6.22555">
        <ele>1067.4000244141</ele>
        <time>2021-06-10T07:38:50.380Z</time>
      </trkpt>
      <trkpt lat="44.53778" lon="6.2256">
        <ele>1067.4000244141</ele>
        <time>2021-06-10T07:38:59.797Z</time>
      </trkpt>
      <trkpt lat="44.53821" lon="6.22571">
        <ele>1067.4000244141</ele>
        <time>2021-06-10T07:39:09.228Z</time>
      </trkpt>
      <trkpt lat="44.53831" lon="6.22577">
        <ele>1059</ele>
        <time>2021-06-10T07:39:18.663Z</time>
      </trkpt>
      <trkpt lat="44.53847" lon="6.22594">
        <ele>1059</ele>
        <time>2021-06-10T07:39:28.104Z</time>
      </trkpt>
      <trkpt lat="44.5386" lon="6.22617">
        <ele>1054.5999755859</ele>
        <time>2021-06-10T07:39:37.552Z</time>
      </trkpt>
      <trkpt lat="44.53874" lon="6.22637">
        <ele>1054.5999755859</ele>
        <time>2021-06-10T07:39:47.007Z</time>
      </trkpt>
      <trkpt lat="44.53876" lon="6.22636">
        <ele>1050.8000488281</ele>
        <time>2021-06-10T07:39:56.462Z</time>
      </trkpt>
      <trkpt lat="44.53881" lon="6.2263">
        <ele>1050.8000488281</ele>
        <time>2021-06-10T07:40:05.919Z</time>
      </trkpt>
      <trkpt lat="44.53889" lon="6.22605">
        <ele>1046.1999511719</ele>
        <time>2021-06-10T07:40:15.383Z</time>
      </trkpt>
      <trkpt lat="44.5389" lon="6.2259">
        <ele>1044.4000244141</ele>
        <time>2021-06-10T07:40:24.850Z</time>
      </trkpt>
      <trkpt lat="44.53887" lon="6.22567">
        <ele>1041.8000488281</ele>
        <time>2021-06-10T07:40:34.323Z</time>
      </trkpt>
      <trkpt lat="44.53859" lon="6.22488">
        <ele>1041.8000488281</ele>
        <time>2021-06-10T07:40:43.817Z</time>
      </trkpt>
      <trkpt lat="44.53844" lon="6.22402">
        <ele>1041.8000488281</ele>
        <time>2021-06-10T07:40:53.331Z</time>
      </trkpt>
      <trkpt lat="44.53838" lon="6.22382">
        <ele>1041.8000488281</ele>
        <time>2021-06-10T07:41:02.850Z</time>
      </trkpt>
      <trkpt lat="44.53831" lon="6.22366">
        <ele>1041.8000488281</ele>
        <time>2021-06-10T07:41:12.374Z</time>
      </trkpt>
      <trkpt lat="44.53811" lon="6.22334">
        <ele>1006.200012207</ele>
        <time>2021-06-10T07:41:21.908Z</time>
      </trkpt>
      <trkpt lat="44.53791" lon="6.22314">
        <ele>1001</ele>
        <time>2021-06-10T07:41:31.450Z</time>
      </trkpt>
      <trkpt lat="44.53777" lon="6.22294">
        <ele>1001</ele>
        <time>2021-06-10T07:41:40.998Z</time>
      </trkpt>
      <trkpt lat="44.53759" lon="6.22277">
        <ele>994.40002441406</ele>
        <time>2021-06-10T07:41:50.553Z</time>
      </trkpt>
      <trkpt lat="44.53726" lon="6.2224">
        <ele>989.20001220703</ele>
        <time>2021-06-10T07:42:00.122Z</time>
      </trkpt>
      <trkpt lat="44.53716" lon="6.22232">
        <ele>986.40002441406</ele>
        <time>2021-06-10T07:42:09.695Z</time>
      </trkpt>
      <trkpt lat="44.53709" lon="6.22223">
        <ele>983.79998779297</ele>
        <time>2021-06-10T07:42:19.271Z</time>
      </trkpt>
      <trkpt lat="44.53709" lon="6.22219">
        <ele>983.79998779297</ele>
        <time>2021-06-10T07:42:28.848Z</time>
      </trkpt>
      <trkpt lat="44.53718" lon="6.22223">
        <ele>981.59997558594</ele>
        <time>2021-06-10T07:42:38.428Z</time>
      </trkpt>
      <trkpt lat="44.53726" lon="6.22225">
        <ele>981.59997558594</ele>
        <time>2021-06-10T07:42:48.011Z</time>
      </trkpt>
      <trkpt lat="44.53749" lon="6.22224">
        <ele>979.20001220703</ele>
        <time>2021-06-10T07:42:57.601Z</time>
      </trkpt>
      <trkpt lat="44.5376" lon="6.22227">
        <ele>979.20001220703</ele>
        <time>2021-06-10T07:43:07.195Z</time>
      </trkpt>
      <trkpt lat="44.53765" lon="6.22226">
        <ele>976.59997558594</ele>
        <time>2021-06-10T07:43:16.790Z</time>
      </trkpt>
      <trkpt lat="44.53768" lon="6.22221">
        <ele>976.59997558594</ele>
        <time>2021-06-10T07:43:26.387Z</time>
      </trkpt>
      <trkpt lat="44.53764" lon="6.22203">
        <ele>971.59997558594</ele>
        <time>2021-06-10T07:43:35.988Z</time>
      </trkpt>
      <trkpt lat="44.53766" lon="6.22185">
        <ele>969.79998779297</ele>
        <time>2021-06-10T07:43:45.594Z</time>
      </trkpt>
      <trkpt lat="44.53762" lon="6.22174">
        <ele>969</ele>
        <time>2021-06-10T07:43:55.203Z</time>
      </trkpt>
      <trkpt lat="44.53757" lon="6.22165">
        <ele>969</ele>
        <time>2021-06-10T07:44:04.814Z</time>
      </trkpt>
      <trkpt lat="44.53746" lon="6.22159">
        <ele>967.59997558594</ele>
        <time>2021-06-10T07:44:14.429Z</time>
      </trkpt>
      <trkpt lat="44.53742" lon="6.22159">
        <ele>967.59997558594</ele>
        <time>2021-06-10T07:44:24.045Z</time>
      </trkpt>
      <trkpt lat="44.53734" lon="6.22157">
        <ele>966</ele>
        <time>2021-06-10T07:44:33.664Z</time>
      </trkpt>
      <trkpt lat="44.5373" lon="6.22154">
        <ele>966</ele>
        <time>2021-06-10T07:44:43.285Z</time>
      </trkpt>
      <trkpt lat="44.53714" lon="6.22133">
        <ele>962.40002441406</ele>
        <time>2021-06-10T07:44:52.913Z</time>
      </trkpt>
      <trkpt lat="44.53711" lon="6.22132">
        <ele>962.40002441406</ele>
        <time>2021-06-10T07:45:02.542Z</time>
      </trkpt>
      <trkpt lat="44.53692" lon="6.22133">
        <ele>962.40002441406</ele>
        <time>2021-06-10T07:45:12.177Z</time>
      </trkpt>
      <trkpt lat="44.53689" lon="6.22132">
        <ele>957.40002441406</ele>
        <time>2021-06-10T07:45:21.813Z</time>
      </trkpt>
      <trkpt lat="44.53685" lon="6.22129">
        <ele>955.79998779297</ele>
        <time>2021-06-10T07:45:31.450Z</time>
      </trkpt>
      <trkpt lat="44.53687" lon="6.22125">
        <ele>955.79998779297</ele>
        <time>2021-06-10T07:45:41.088Z</time>
      </trkpt>
      <trkpt lat="44.53714" lon="6.22107">
        <ele>955.79998779297</ele>
        <time>2021-06-10T07:45:50.736Z</time>
      </trkpt>
      <trkpt lat="44.53731" lon="6.22091">
        <ele>955.79998779297</ele>
        <time>2021-06-10T07:46:00.391Z</time>
      </trkpt>
      <trkpt lat="44.5375" lon="6.22071">
        <ele>955.79998779297</ele>
        <time>2021-06-10T07:46:10.054Z</time>
      </trkpt>
      <trkpt lat="44.53787" lon="6.22025">
        <ele>955.79998779297</ele>
        <time>2021-06-10T07:46:19.733Z</time>
      </trkpt>
      <trkpt lat="44.53803" lon="6.22015">
        <ele>952.59997558594</ele>
        <time>2021-06-10T07:46:29.418Z</time>
      </trkpt>
      <trkpt lat="44.53819" lon="6.21997">
        <ele>952.59997558594</ele>
        <time>2021-06-10T07:46:39.109Z</time>
      </trkpt>
      <trkpt lat="44.53831" lon="6.21979">
        <ele>953.20001220703</ele>
        <time>2021-06-10T07:46:48.806Z</time>
      </trkpt>
      <trkpt lat="44.53839" lon="6.21962">
        <ele>953</ele>
        <time>2021-06-10T07:46:58.508Z</time>
      </trkpt>
      <trkpt lat="44.53868" lon="6.21925">
        <ele>953</ele>
        <time>2021-06-10T07:47:08.223Z</time>
      </trkpt>
      <trkpt lat="44.53873" lon="6.2191">
        <ele>951.20001220703</ele>
        <time>2021-06-10T07:47:17.942Z</time>
      </trkpt>
      <trkpt lat="44.53874" lon="6.21892">
        <ele>950.20001220703</ele>
        <time>2021-06-10T07:47:27.665Z</time>
      </trkpt>
      <trkpt lat="44.53871" lon="6.21864">
        <ele>950.20001220703</ele>
        <time>2021-06-10T07:47:37.395Z</time>
      </trkpt>
      <trkpt lat="44.53856" lon="6.21781">
        <ele>950.20001220703</ele>
        <time>2021-06-10T07:47:47.145Z</time>
      </trkpt>
      <trkpt lat="44.53856" lon="6.21768">
        <ele>940</ele>
        <time>2021-06-10T07:47:56.897Z</time>
      </trkpt>
      <trkpt lat="44.53869" lon="6.21721">
        <ele>935.40002441406</ele>
        <time>2021-06-10T07:48:06.661Z</time>
      </trkpt>
      <trkpt lat="44.5387" lon="6.2171">
        <ele>935.40002441406</ele>
        <time>2021-06-10T07:48:16.428Z</time>
      </trkpt>
      <trkpt lat="44.53868" lon="6.21677">
        <ele>931.40002441406</ele>
        <time>2021-06-10T07:48:26.203Z</time>
      </trkpt>
      <trkpt lat="44.53876" lon="6.21625">
        <ele>928.40002441406</ele>
        <time>2021-06-10T07:48:35.990Z</time>
      </trkpt>
      <trkpt lat="44.53879" lon="6.2159">
        <ele>927.79998779297</ele>
        <time>2021-06-10T07:48:45.785Z</time>
      </trkpt>
      <trkpt lat="44.53866" lon="6.2154">
        <ele>926.79998779297</ele>
        <time>2021-06-10T07:48:55.593Z</time>
      </trkpt>
      <trkpt lat="44.53859" lon="6.21496">
        <ele>926.79998779297</ele>
        <time>2021-06-10T07:49:05.411Z</time>
      </trkpt>
      <trkpt lat="44.53859" lon="6.21485">
        <ele>922</ele>
        <time>2021-06-10T07:49:15.232Z</time>
      </trkpt>
      <trkpt lat="44.53863" lon="6.21464">
        <ele>919.20001220703</ele>
        <time>2021-06-10T07:49:25.058Z</time>
      </trkpt>
      <trkpt lat="44.53881" lon="6.21432">
        <ele>913.20001220703</ele>
        <time>2021-06-10T07:49:34.894Z</time>
      </trkpt>
      <trkpt lat="44.53885" lon="6.21417">
        <ele>910.20001220703</ele>
        <time>2021-06-10T07:49:44.733Z</time>
      </trkpt>
      <trkpt lat="44.53884" lon="6.21411">
        <ele>910.20001220703</ele>
        <time>2021-06-10T07:49:54.574Z</time>
      </trkpt>
      <trkpt lat="44.53879" lon="6.21402">
        <ele>907</ele>
        <time>2021-06-10T07:50:04.417Z</time>
      </trkpt>
      <trkpt lat="44.53865" lon="6.21402">
        <ele>907</ele>
        <time>2021-06-10T07:50:14.265Z</time>
      </trkpt>
      <trkpt lat="44.53858" lon="6.21403">
        <ele>903.20001220703</ele>
        <time>2021-06-10T07:50:24.115Z</time>
      </trkpt>
      <trkpt lat="44.5383" lon="6.21417">
        <ele>903.20001220703</ele>
        <time>2021-06-10T07:50:33.975Z</time>
      </trkpt>
      <trkpt lat="44.53812" lon="6.21422">
        <ele>896</ele>
        <time>2021-06-10T07:50:43.841Z</time>
      </trkpt>
      <trkpt lat="44.53807" lon="6.21427">
        <ele>896</ele>
        <time>2021-06-10T07:50:53.709Z</time>
      </trkpt>
      <trkpt lat="44.53805" lon="6.21427">
        <ele>893.59997558594</ele>
        <time>2021-06-10T07:51:03.578Z</time>
      </trkpt>
      <trkpt lat="44.53802" lon="6.21422">
        <ele>893.59997558594</ele>
        <time>2021-06-10T07:51:13.448Z</time>
      </trkpt>
      <trkpt lat="44.53801" lon="6.21409">
        <ele>893.59997558594</ele>
        <time>2021-06-10T07:51:23.321Z</time>
      </trkpt>
      <trkpt lat="44.53799" lon="6.21402">
        <ele>893.59997558594</ele>
        <time>2021-06-10T07:51:33.196Z</time>
      </trkpt>
      <trkpt lat="44.53794" lon="6.21397">
        <ele>895.40002441406</ele>
        <time>2021-06-10T07:51:43.073Z</time>
      </trkpt>
      <trkpt lat="44.53788" lon="6.21395">
        <ele>895.40002441406</ele>
        <time>2021-06-10T07:51:52.952Z</time>
      </trkpt>
      <trkpt lat="44.53771" lon="6.21394">
        <ele>897.40002441406</ele>
        <time>2021-06-10T07:52:02.836Z</time>
      </trkpt>
      <trkpt lat="44.53758" lon="6.21389">
        <ele>898.40002441406</ele>
        <time>2021-06-10T07:52:12.725Z</time>
      </trkpt>
      <trkpt lat="44.53733" lon="6.2139">
        <ele>898.40002441406</ele>
        <time>2021-06-10T07:52:22.622Z</time>
      </trkpt>
      <trkpt lat="44.53719" lon="6.21386">
        <ele>898.40002441406</ele>
        <time>2021-06-10T07:52:32.524Z</time>
      </trkpt>
      <trkpt lat="44.53694" lon="6.21384">
        <ele>898.20001220703</ele>
        <time>2021-06-10T07:52:42.434Z</time>
      </trkpt>
      <trkpt lat="44.53685" lon="6.2138">
        <ele>898.20001220703</ele>
        <time>2021-06-10T07:52:52.347Z</time>
      </trkpt>
      <trkpt lat="44.53675" lon="6.21369">
        <ele>897</ele>
        <time>2021-06-10T07:53:02.264Z</time>
      </trkpt>
      <trkpt lat="44.53665" lon="6.21356">
        <ele>896</ele>
        <time>2021-06-10T07:53:12.186Z</time>
      </trkpt>
      <trkpt lat="44.53658" lon="6.21353">
        <ele>896</ele>
        <time>2021-06-10T07:53:22.110Z</time>
      </trkpt>
      <trkpt lat="44.53656" lon="6.21351">
        <ele>894.59997558594</ele>
        <time>2021-06-10T07:53:32.035Z</time>
      </trkpt>
      <trkpt lat="44.53657" lon="6.21338">
        <ele>893.40002441406</ele>
        <time>2021-06-10T07:53:41.963Z</time>
      </trkpt>
      <trkpt lat="44.53662" lon="6.21332">
        <ele>893.40002441406</ele>
        <time>2021-06-10T07:53:51.893Z</time>
      </trkpt>
      <trkpt lat="44.53676" lon="6.21324">
        <ele>895.40002441406</ele>
        <time>2021-06-10T07:54:01.828Z</time>
      </trkpt>
      <trkpt lat="44.53681" lon="6.21324">
        <ele>895.40002441406</ele>
        <time>2021-06-10T07:54:11.764Z</time>
      </trkpt>
      <trkpt lat="44.53688" lon="6.21333">
        <ele>895.40002441406</ele>
        <time>2021-06-10T07:54:21.704Z</time>
      </trkpt>
      <trkpt lat="44.53697" lon="6.21337">
        <ele>896.59997558594</ele>
        <time>2021-06-10T07:54:31.647Z</time>
      </trkpt>
      <trkpt lat="44.53712" lon="6.21332">
        <ele>899</ele>
        <time>2021-06-10T07:54:41.595Z</time>
      </trkpt>
      <trkpt lat="44.53726" lon="6.21324">
        <ele>901.20001220703</ele>
        <time>2021-06-10T07:54:51.548Z</time>
      </trkpt>
      <trkpt lat="44.53735" lon="6.21317">
        <ele>901.20001220703</ele>
        <time>2021-06-10T07:55:01.504Z</time>
      </trkpt>
      <trkpt lat="44.53738" lon="6.21316">
        <ele>904.20001220703</ele>
        <time>2021-06-10T07:55:11.461Z</time>
      </trkpt>
      <trkpt lat="44.53758" lon="6.21318">
        <ele>904.20001220703</ele>
        <time>2021-06-10T07:55:21.425Z</time>
      </trkpt>
      <trkpt lat="44.53764" lon="6.21314">
        <ele>901.40002441406</ele>
        <time>2021-06-10T07:55:31.391Z</time>
      </trkpt>
      <trkpt lat="44.53781" lon="6.21282">
        <ele>899.20001220703</ele>
        <time>2021-06-10T07:55:41.366Z</time>
      </trkpt>
      <trkpt lat="44.538" lon="6.21235">
        <ele>898.20001220703</ele>
        <time>2021-06-10T07:55:51.354Z</time>
      </trkpt>
      <trkpt lat="44.53806" lon="6.21211">
        <ele>898.20001220703</ele>
        <time>2021-06-10T07:56:01.348Z</time>
      </trkpt>
      <trkpt lat="44.53809" lon="6.21192">
        <ele>900</ele>
        <time>2021-06-10T07:56:11.346Z</time>
      </trkpt>
      <trkpt lat="44.5381" lon="6.21141">
        <ele>900</ele>
        <time>2021-06-10T07:56:21.356Z</time>
      </trkpt>
      <trkpt lat="44.53819" lon="6.21121">
        <ele>901</ele>
        <time>2021-06-10T07:56:31.372Z</time>
      </trkpt>
      <trkpt lat="44.53829" lon="6.21108">
        <ele>901.40002441406</ele>
        <time>2021-06-10T07:56:41.392Z</time>
      </trkpt>
      <trkpt lat="44.53853" lon="6.21099">
        <ele>901.40002441406</ele>
        <time>2021-06-10T07:56:51.420Z</time>
      </trkpt>
      <trkpt lat="44.53865" lon="6.21075">
        <ele>896.20001220703</ele>
        <time>2021-06-10T07:57:01.455Z</time>
      </trkpt>
      <trkpt lat="44.53878" lon="6.21068">
        <ele>895</ele>
        <time>2021-06-10T07:57:11.495Z</time>
      </trkpt>
      <trkpt lat="44.53894" lon="6.21064">
        <ele>895</ele>
        <time>2021-06-10T07:57:21.540Z</time>
      </trkpt>
      <trkpt lat="44.5391" lon="6.21069">
        <ele>895</ele>
        <time>2021-06-10T07:57:31.590Z</time>
      </trkpt>
      <trkpt lat="44.5392" lon="6.21051">
        <ele>895</ele>
        <time>2021-06-10T07:57:41.646Z</time>
      </trkpt>
      <trkpt lat="44.53926" lon="6.21059">
        <ele>895</ele>
        <time>2021-06-10T07:57:51.704Z</time>
      </trkpt>
      <trkpt lat="44.53938" lon="6.21048">
        <ele>895</ele>
        <time>2021-06-10T07:58:01.767Z</time>
      </trkpt>
      <trkpt lat="44.53959" lon="6.21045">
        <ele>884.20001220703</ele>
        <time>2021-06-10T07:58:11.837Z</time>
      </trkpt>
      <trkpt lat="44.5397" lon="6.21038">
        <ele>884.20001220703</ele>
        <time>2021-06-10T07:58:21.911Z</time>
      </trkpt>
      <trkpt lat="44.53975" lon="6.21027">
        <ele>876</ele>
        <time>2021-06-10T07:58:31.988Z</time>
      </trkpt>
      <trkpt lat="44.53975" lon="6.21019">
        <ele>873.59997558594</ele>
        <time>2021-06-10T07:58:42.067Z</time>
      </trkpt>
      <trkpt lat="44.53958" lon="6.20993">
        <ele>872.79998779297</ele>
        <time>2021-06-10T07:58:52.154Z</time>
      </trkpt>
      <trkpt lat="44.53956" lon="6.20986">
        <ele>872.79998779297</ele>
        <time>2021-06-10T07:59:02.243Z</time>
      </trkpt>
      <trkpt lat="44.53958" lon="6.20971">
        <ele>871</ele>
        <time>2021-06-10T07:59:12.335Z</time>
      </trkpt>
      <trkpt lat="44.53976" lon="6.20963">
        <ele>867.79998779297</ele>
        <time>2021-06-10T07:59:22.434Z</time>
      </trkpt>
      <trkpt lat="44.53981" lon="6.20963">
        <ele>867.79998779297</ele>
        <time>2021-06-10T07:59:32.534Z</time>
      </trkpt>
      <trkpt lat="44.53985" lon="6.20965">
        <ele>865.59997558594</ele>
        <time>2021-06-10T07:59:42.636Z</time>
      </trkpt>
      <trkpt lat="44.54016" lon="6.21009">
        <ele>858.40002441406</ele>
        <time>2021-06-10T07:59:52.752Z</time>
      </trkpt>
      <trkpt lat="44.54025" lon="6.2101">
        <ele>858.40002441406</ele>
        <time>2021-06-10T08:00:02.871Z</time>
      </trkpt>
      <trkpt lat="44.54046" lon="6.21008">
        <ele>851.40002441406</ele>
        <time>2021-06-10T08:00:12.997Z</time>
      </trkpt>
      <trkpt lat="44.54059" lon="6.21024">
        <ele>847</ele>
        <time>2021-06-10T08:00:23.129Z</time>
      </trkpt>
      <trkpt lat="44.54061" lon="6.21025">
        <ele>847</ele>
        <time>2021-06-10T08:00:33.261Z</time>
      </trkpt>
      <trkpt lat="44.54066" lon="6.21019">
        <ele>847</ele>
        <time>2021-06-10T08:00:43.395Z</time>
      </trkpt>
      <trkpt lat="44.54067" lon="6.20999">
        <ele>847</ele>
        <time>2021-06-10T08:00:53.534Z</time>
      </trkpt>
      <trkpt lat="44.5407" lon="6.2099">
        <ele>847</ele>
        <time>2021-06-10T08:01:03.675Z</time>
      </trkpt>
      <trkpt lat="44.54076" lon="6.20992">
        <ele>839.79998779297</ele>
        <time>2021-06-10T08:01:13.818Z</time>
      </trkpt>
      <trkpt lat="44.54085" lon="6.20988">
        <ele>839.79998779297</ele>
        <time>2021-06-10T08:01:23.964Z</time>
      </trkpt>
      <trkpt lat="44.54094" lon="6.20986">
        <ele>836.79998779297</ele>
        <time>2021-06-10T08:01:34.113Z</time>
      </trkpt>
      <trkpt lat="44.54097" lon="6.20987">
        <ele>836.79998779297</ele>
        <time>2021-06-10T08:01:44.263Z</time>
      </trkpt>
      <trkpt lat="44.54103" lon="6.21013">
        <ele>835.20001220703</ele>
        <time>2021-06-10T08:01:54.420Z</time>
      </trkpt>
      <trkpt lat="44.54104" lon="6.21015">
        <ele>835.20001220703</ele>
        <time>2021-06-10T08:02:04.577Z</time>
      </trkpt>
      <trkpt lat="44.5411" lon="6.21011">
        <ele>836.40002441406</ele>
        <time>2021-06-10T08:02:14.736Z</time>
      </trkpt>
      <trkpt lat="44.54114" lon="6.20988">
        <ele>834.20001220703</ele>
        <time>2021-06-10T08:02:24.901Z</time>
      </trkpt>
      <trkpt lat="44.54121" lon="6.20982">
        <ele>834.20001220703</ele>
        <time>2021-06-10T08:02:35.069Z</time>
      </trkpt>
      <trkpt lat="44.54132" lon="6.20977">
        <ele>834.20001220703</ele>
        <time>2021-06-10T08:02:45.240Z</time>
      </trkpt>
      <trkpt lat="44.54138" lon="6.20972">
        <ele>828</ele>
        <time>2021-06-10T08:02:55.414Z</time>
      </trkpt>
      <trkpt lat="44.54141" lon="6.2096">
        <ele>825</ele>
        <time>2021-06-10T08:03:05.591Z</time>
      </trkpt>
      <trkpt lat="44.54145" lon="6.20949">
        <ele>822</ele>
        <time>2021-06-10T08:03:15.771Z</time>
      </trkpt>
      <trkpt lat="44.54151" lon="6.20943">
        <ele>819.79998779297</ele>
        <time>2021-06-10T08:03:25.953Z</time>
      </trkpt>
      <trkpt lat="44.54158" lon="6.20939">
        <ele>816.79998779297</ele>
        <time>2021-06-10T08:03:36.137Z</time>
      </trkpt>
      <trkpt lat="44.54166" lon="6.20945">
        <ele>816.79998779297</ele>
        <time>2021-06-10T08:03:46.324Z</time>
      </trkpt>
      <trkpt lat="44.54171" lon="6.2097">
        <ele>811.20001220703</ele>
        <time>2021-06-10T08:03:56.517Z</time>
      </trkpt>
      <trkpt lat="44.5417" lon="6.20985">
        <ele>808.79998779297</ele>
        <time>2021-06-10T08:04:06.714Z</time>
      </trkpt>
      <trkpt lat="44.54165" lon="6.21017">
        <ele>805.20001220703</ele>
        <time>2021-06-10T08:04:16.918Z</time>
      </trkpt>
      <trkpt lat="44.54167" lon="6.21024">
        <ele>805.20001220703</ele>
        <time>2021-06-10T08:04:27.124Z</time>
      </trkpt>
      <trkpt lat="44.54168" lon="6.21026">
        <ele>803.79998779297</ele>
        <time>2021-06-10T08:04:37.331Z</time>
      </trkpt>
      <trkpt lat="44.54171" lon="6.21024">
        <ele>803.79998779297</ele>
        <time>2021-06-10T08:04:47.539Z</time>
      </trkpt>
      <trkpt lat="44.54179" lon="6.21012">
        <ele>801.40002441406</ele>
        <time>2021-06-10T08:04:57.751Z</time>
      </trkpt>
      <trkpt lat="44.54187" lon="6.21003">
        <ele>800</ele>
        <time>2021-06-10T08:05:07.966Z</time>
      </trkpt>
      <trkpt lat="44.54202" lon="6.20997">
        <ele>800</ele>
        <time>2021-06-10T08:05:18.186Z</time>
      </trkpt>
      <trkpt lat="44.54213" lon="6.20988">
        <ele>797.79998779297</ele>
        <time>2021-06-10T08:05:28.410Z</time>
      </trkpt>
      <trkpt lat="44.54245" lon="6.20956">
        <ele>795.79998779297</ele>
        <time>2021-06-10T08:05:38.647Z</time>
      </trkpt>
      <trkpt lat="44.54269" lon="6.20949">
        <ele>795.59997558594</ele>
        <time>2021-06-10T08:05:48.892Z</time>
      </trkpt>
      <trkpt lat="44.54275" lon="6.20945">
        <ele>795.59997558594</ele>
        <time>2021-06-10T08:05:59.139Z</time>
      </trkpt>
      <trkpt lat="44.54291" lon="6.20926">
        <ele>794.79998779297</ele>
        <time>2021-06-10T08:06:09.393Z</time>
      </trkpt>
      <trkpt lat="44.543" lon="6.20909">
        <ele>794.20001220703</ele>
        <time>2021-06-10T08:06:19.652Z</time>
      </trkpt>
      <trkpt lat="44.54318" lon="6.20863">
        <ele>792.20001220703</ele>
        <time>2021-06-10T08:06:29.924Z</time>
      </trkpt>
      <trkpt lat="44.54329" lon="6.2085">
        <ele>792.20001220703</ele>
        <time>2021-06-10T08:06:40.200Z</time>
      </trkpt>
      <trkpt lat="44.54338" lon="6.20834">
        <ele>789.79998779297</ele>
        <time>2021-06-10T08:06:50.481Z</time>
      </trkpt>
      <trkpt lat="44.54352" lon="6.20802">
        <ele>788.59997558594</ele>
        <time>2021-06-10T08:07:00.771Z</time>
      </trkpt>
      <trkpt lat="44.54362" lon="6.20786">
        <ele>787.59997558594</ele>
        <time>2021-06-10T08:07:11.066Z</time>
      </trkpt>
      <trkpt lat="44.54365" lon="6.20785">
        <ele>787.59997558594</ele>
        <time>2021-06-10T08:07:21.362Z</time>
      </trkpt>
      <trkpt lat="44.54378" lon="6.20791">
        <ele>787.59997558594</ele>
        <time>2021-06-10T08:07:31.662Z</time>
      </trkpt>
      <trkpt lat="44.54414" lon="6.20816">
        <ele>787.59997558594</ele>
        <time>2021-06-10T08:07:41.975Z</time>
      </trkpt>
      <trkpt lat="44.54442" lon="6.20839">
        <ele>787.59997558594</ele>
        <time>2021-06-10T08:07:52.299Z</time>
      </trkpt>
      <trkpt lat="44.5447" lon="6.20869">
        <ele>785.40002441406</ele>
        <time>2021-06-10T08:08:02.635Z</time>
      </trkpt>
      <trkpt lat="44.5449" lon="6.20883">
        <ele>785.40002441406</ele>
        <time>2021-06-10T08:08:12.978Z</time>
      </trkpt>
      <trkpt lat="44.54498" lon="6.20885">
        <ele>785.40002441406</ele>
        <time>2021-06-10T08:08:23.323Z</time>
      </trkpt>
      <trkpt lat="44.54527" lon="6.20885">
        <ele>785.40002441406</ele>
        <time>2021-06-10T08:08:33.678Z</time>
      </trkpt>
      <trkpt lat="44.5454" lon="6.20887">
        <ele>783.59997558594</ele>
        <time>2021-06-10T08:08:44.037Z</time>
      </trkpt>
      <trkpt lat="44.54563" lon="6.20895">
        <ele>783.59997558594</ele>
        <time>2021-06-10T08:08:54.404Z</time>
      </trkpt>
      <trkpt lat="44.54572" lon="6.20896">
        <ele>783</ele>
        <time>2021-06-10T08:09:04.774Z</time>
      </trkpt>
      <trkpt lat="44.54639" lon="6.20888">
        <ele>783</ele>
        <time>2021-06-10T08:09:15.166Z</time>
      </trkpt>
      <trkpt lat="44.54676" lon="6.20878">
        <ele>783</ele>
        <time>2021-06-10T08:09:25.570Z</time>
      </trkpt>
      <trkpt lat="44.54699" lon="6.20881">
        <ele>784</ele>
        <time>2021-06-10T08:09:35.982Z</time>
      </trkpt>
      <trkpt lat="44.54708" lon="6.20885">
        <ele>784</ele>
        <time>2021-06-10T08:09:46.397Z</time>
      </trkpt>
      <trkpt lat="44.54728" lon="6.20891">
        <ele>785</ele>
        <time>2021-06-10T08:09:56.819Z</time>
      </trkpt>
      <trkpt lat="44.54745" lon="6.20887">
        <ele>785</ele>
        <time>2021-06-10T08:10:07.246Z</time>
      </trkpt>
      <trkpt lat="44.54764" lon="6.20872">
        <ele>785.79998779297</ele>
        <time>2021-06-10T08:10:17.680Z</time>
      </trkpt>
      <trkpt lat="44.54782" lon="6.20862">
        <ele>785.79998779297</ele>
        <time>2021-06-10T08:10:28.121Z</time>
      </trkpt>
      <trkpt lat="44.54811" lon="6.20852">
        <ele>787.40002441406</ele>
        <time>2021-06-10T08:10:38.571Z</time>
      </trkpt>
      <trkpt lat="44.54834" lon="6.20849">
        <ele>787.40002441406</ele>
        <time>2021-06-10T08:10:49.029Z</time>
      </trkpt>
      <trkpt lat="44.5488" lon="6.20854">
        <ele>787.40002441406</ele>
        <time>2021-06-10T08:10:59.502Z</time>
      </trkpt>
      <trkpt lat="44.54889" lon="6.20851">
        <ele>789.20001220703</ele>
        <time>2021-06-10T08:11:09.978Z</time>
      </trkpt>
      <trkpt lat="44.54907" lon="6.2084">
        <ele>789.59997558594</ele>
        <time>2021-06-10T08:11:20.461Z</time>
      </trkpt>
      <trkpt lat="44.54925" lon="6.20836">
        <ele>789.59997558594</ele>
        <time>2021-06-10T08:11:30.950Z</time>
      </trkpt>
      <trkpt lat="44.54972" lon="6.20836">
        <ele>789.59997558594</ele>
        <time>2021-06-10T08:11:41.454Z</time>
      </trkpt>
      <trkpt lat="44.54992" lon="6.20826">
        <ele>791.79998779297</ele>
        <time>2021-06-10T08:11:51.965Z</time>
      </trkpt>
      <trkpt lat="44.55012" lon="6.20805">
        <ele>791.79998779297</ele>
        <time>2021-06-10T08:12:02.484Z</time>
      </trkpt>
      <trkpt lat="44.55034" lon="6.20789">
        <ele>792.79998779297</ele>
        <time>2021-06-10T08:12:13.011Z</time>
      </trkpt>
      <trkpt lat="44.55066" lon="6.20776">
        <ele>792.79998779297</ele>
        <time>2021-06-10T08:12:23.549Z</time>
      </trkpt>
      <trkpt lat="44.55075" lon="6.20768">
        <ele>794.20001220703</ele>
        <time>2021-06-10T08:12:34.091Z</time>
      </trkpt>
      <trkpt lat="44.55094" lon="6.2074">
        <ele>794.20001220703</ele>
        <time>2021-06-10T08:12:44.642Z</time>
      </trkpt>
      <trkpt lat="44.55111" lon="6.20729">
        <ele>794.79998779297</ele>
        <time>2021-06-10T08:12:55.199Z</time>
      </trkpt>
      <trkpt lat="44.55149" lon="6.20718">
        <ele>796.40002441406</ele>
        <time>2021-06-10T08:13:05.768Z</time>
      </trkpt>
      <trkpt lat="44.55162" lon="6.20716">
        <ele>796.40002441406</ele>
        <time>2021-06-10T08:13:16.342Z</time>
      </trkpt>
      <trkpt lat="44.55183" lon="6.20715">
        <ele>796.40002441406</ele>
        <time>2021-06-10T08:13:26.923Z</time>
      </trkpt>
      <trkpt lat="44.55211" lon="6.20705">
        <ele>796.40002441406</ele>
        <time>2021-06-10T08:13:37.513Z</time>
      </trkpt>
      <trkpt lat="44.5524" lon="6.20692">
        <ele>799.40002441406</ele>
        <time>2021-06-10T08:13:48.113Z</time>
      </trkpt>
      <trkpt lat="44.55248" lon="6.20687">
        <ele>799.40002441406</ele>
        <time>2021-06-10T08:13:58.716Z</time>
      </trkpt>
      <trkpt lat="44.55265" lon="6.20671">
        <ele>800.59997558594</ele>
        <time>2021-06-10T08:14:09.326Z</time>
      </trkpt>
      <trkpt lat="44.55283" lon="6.20662">
        <ele>800.59997558594</ele>
        <time>2021-06-10T08:14:19.942Z</time>
      </trkpt>
      <trkpt lat="44.55305" lon="6.2066">
        <ele>801.59997558594</ele>
        <time>2021-06-10T08:14:30.565Z</time>
      </trkpt>
      <trkpt lat="44.55346" lon="6.20664">
        <ele>803</ele>
        <time>2021-06-10T08:14:41.202Z</time>
      </trkpt>
      <trkpt lat="44.55401" lon="6.20675">
        <ele>803</ele>
        <time>2021-06-10T08:14:51.857Z</time>
      </trkpt>
      <trkpt lat="44.55438" lon="6.20669">
        <ele>803</ele>
        <time>2021-06-10T08:15:02.524Z</time>
      </trkpt>
      <trkpt lat="44.55462" lon="6.20669">
        <ele>803</ele>
        <time>2021-06-10T08:15:13.199Z</time>
      </trkpt>
      <trkpt lat="44.55479" lon="6.20675">
        <ele>806.79998779297</ele>
        <time>2021-06-10T08:15:23.879Z</time>
      </trkpt>
      <trkpt lat="44.55491" lon="6.20684">
        <ele>806.79998779297</ele>
        <time>2021-06-10T08:15:34.564Z</time>
      </trkpt>
      <trkpt lat="44.555" lon="6.20696">
        <ele>806.79998779297</ele>
        <time>2021-06-10T08:15:45.253Z</time>
      </trkpt>
      <trkpt lat="44.55581" lon="6.20754">
        <ele>806.79998779297</ele>
        <time>2021-06-10T08:15:55.972Z</time>
      </trkpt>
      <trkpt lat="44.55601" lon="6.20772">
        <ele>806.79998779297</ele>
        <time>2021-06-10T08:16:06.698Z</time>
      </trkpt>
      <trkpt lat="44.5562" lon="6.20784">
        <ele>806.79998779297</ele>
        <time>2021-06-10T08:16:17.431Z</time>
      </trkpt>
      <trkpt lat="44.5566" lon="6.20817">
        <ele>806.79998779297</ele>
        <time>2021-06-10T08:16:28.179Z</time>
      </trkpt>
      <trkpt lat="44.55669" lon="6.20827">
        <ele>817.40002441406</ele>
        <time>2021-06-10T08:16:38.931Z</time>
      </trkpt>
      <trkpt lat="44.55674" lon="6.20835">
        <ele>817.40002441406</ele>
        <time>2021-06-10T08:16:49.686Z</time>
      </trkpt>
      <trkpt lat="44.5568" lon="6.20845">
        <ele>818.40002441406</ele>
        <time>2021-06-10T08:17:00.444Z</time>
      </trkpt>
      <trkpt lat="44.55683" lon="6.20857">
        <ele>818.40002441406</ele>
        <time>2021-06-10T08:17:11.205Z</time>
      </trkpt>
      <trkpt lat="44.55693" lon="6.20943">
        <ele>818.40002441406</ele>
        <time>2021-06-10T08:17:21.986Z</time>
      </trkpt>
      <trkpt lat="44.557" lon="6.20954">
        <ele>818.40002441406</ele>
        <time>2021-06-10T08:17:32.771Z</time>
      </trkpt>
      <trkpt lat="44.55726" lon="6.20984">
        <ele>823.20001220703</ele>
        <time>2021-06-10T08:17:43.567Z</time>
      </trkpt>
      <trkpt lat="44.55737" lon="6.21009">
        <ele>823.20001220703</ele>
        <time>2021-06-10T08:17:54.369Z</time>
      </trkpt>
      <trkpt lat="44.55743" lon="6.21017">
        <ele>824</ele>
        <time>2021-06-10T08:18:05.174Z</time>
      </trkpt>
      <trkpt lat="44.55776" lon="6.21033">
        <ele>824</ele>
        <time>2021-06-10T08:18:15.991Z</time>
      </trkpt>
      <trkpt lat="44.55815" lon="6.21042">
        <ele>827.20001220703</ele>
        <time>2021-06-10T08:18:26.821Z</time>
      </trkpt>
      <trkpt lat="44.55827" lon="6.21061">
        <ele>827.20001220703</ele>
        <time>2021-06-10T08:18:37.657Z</time>
      </trkpt>
      <trkpt lat="44.55844" lon="6.21078">
        <ele>829.59997558594</ele>
        <time>2021-06-10T08:18:48.500Z</time>
      </trkpt>
      <trkpt lat="44.55869" lon="6.2109">
        <ele>829.59997558594</ele>
        <time>2021-06-10T08:18:59.351Z</time>
      </trkpt>
      <trkpt lat="44.55896" lon="6.21096">
        <ele>831.79998779297</ele>
        <time>2021-06-10T08:19:10.211Z</time>
      </trkpt>
      <trkpt lat="44.55917" lon="6.21097">
        <ele>831.79998779297</ele>
        <time>2021-06-10T08:19:21.078Z</time>
      </trkpt>
      <trkpt lat="44.5593" lon="6.21101">
        <ele>832.79998779297</ele>
        <time>2021-06-10T08:19:31.949Z</time>
      </trkpt>
      <trkpt lat="44.55956" lon="6.21114">
        <ele>832.79998779297</ele>
        <time>2021-06-10T08:19:42.829Z</time>
      </trkpt>
      <trkpt lat="44.5597" lon="6.21115">
        <ele>834.79998779297</ele>
        <time>2021-06-10T08:19:53.714Z</time>
      </trkpt>
      <trkpt lat="44.55988" lon="6.21106">
        <ele>834.79998779297</ele>
        <time>2021-06-10T08:20:04.605Z</time>
      </trkpt>
      <trkpt lat="44.56002" lon="6.21103">
        <ele>836.79998779297</ele>
        <time>2021-06-10T08:20:15.501Z</time>
      </trkpt>
      <trkpt lat="44.56032" lon="6.21113">
        <ele>836.79998779297</ele>
        <time>2021-06-10T08:20:26.407Z</time>
      </trkpt>
      <trkpt lat="44.56056" lon="6.21109">
        <ele>840.20001220703</ele>
        <time>2021-06-10T08:20:37.321Z</time>
      </trkpt>
      <trkpt lat="44.56104" lon="6.21105">
        <ele>840.20001220703</ele>
        <time>2021-06-10T08:20:48.250Z</time>
      </trkpt>
      <trkpt lat="44.56119" lon="6.21108">
        <ele>840.79998779297</ele>
        <time>2021-06-10T08:20:59.185Z</time>
      </trkpt>
      <trkpt lat="44.56132" lon="6.21116">
        <ele>840.79998779297</ele>
        <time>2021-06-10T08:21:10.124Z</time>
      </trkpt>
      <trkpt lat="44.56143" lon="6.2112">
        <ele>840.79998779297</ele>
        <time>2021-06-10T08:21:21.067Z</time>
      </trkpt>
      <trkpt lat="44.56157" lon="6.21118">
        <ele>847.40002441406</ele>
        <time>2021-06-10T08:21:32.015Z</time>
      </trkpt>
      <trkpt lat="44.56162" lon="6.21115">
        <ele>847.40002441406</ele>
        <time>2021-06-10T08:21:42.964Z</time>
      </trkpt>
      <trkpt lat="44.56179" lon="6.211">
        <ele>847.79998779297</ele>
        <time>2021-06-10T08:21:53.920Z</time>
      </trkpt>
      <trkpt lat="44.56197" lon="6.21077">
        <ele>847.79998779297</ele>
        <time>2021-06-10T08:22:04.884Z</time>
      </trkpt>
      <trkpt lat="44.56274" lon="6.2096">
        <ele>847.79998779297</ele>
        <time>2021-06-10T08:22:15.885Z</time>
      </trkpt>
      <trkpt lat="44.56336" lon="6.20875">
        <ele>858.59997558594</ele>
        <time>2021-06-10T08:22:26.914Z</time>
      </trkpt>
      <trkpt lat="44.56359" lon="6.20836">
        <ele>862</ele>
        <time>2021-06-10T08:22:37.955Z</time>
      </trkpt>
      <trkpt lat="44.56366" lon="6.20813">
        <ele>862</ele>
        <time>2021-06-10T08:22:49.002Z</time>
      </trkpt>
      <trkpt lat="44.56372" lon="6.20785">
        <ele>862</ele>
        <time>2021-06-10T08:23:00.056Z</time>
      </trkpt>
      <trkpt lat="44.56421" lon="6.20361">
        <ele>862</ele>
        <time>2021-06-10T08:23:11.210Z</time>
      </trkpt>
      <trkpt lat="44.56426" lon="6.2036">
        <ele>866.40002441406</ele>
        <time>2021-06-10T08:23:22.366Z</time>
      </trkpt>
      <trkpt lat="44.56427" lon="6.20391">
        <ele>866</ele>
        <time>2021-06-10T08:23:33.529Z</time>
      </trkpt>
      <trkpt lat="44.56439" lon="6.20401">
        <ele>866</ele>
        <time>2021-06-10T08:23:44.697Z</time>
      </trkpt>
      <trkpt lat="44.56465" lon="6.2041">
        <ele>866</ele>
        <time>2021-06-10T08:23:55.873Z</time>
      </trkpt>
      <trkpt lat="44.56501" lon="6.2042">
        <ele>866.59997558594</ele>
        <time>2021-06-10T08:24:07.062Z</time>
      </trkpt>
      <trkpt lat="44.56514" lon="6.20415">
        <ele>866.59997558594</ele>
        <time>2021-06-10T08:24:18.255Z</time>
      </trkpt>
      <trkpt lat="44.56533" lon="6.20394">
        <ele>866.59997558594</ele>
        <time>2021-06-10T08:24:29.456Z</time>
      </trkpt>
      <trkpt lat="44.56545" lon="6.20396">
        <ele>867.59997558594</ele>
        <time>2021-06-10T08:24:40.661Z</time>
      </trkpt>
      <trkpt lat="44.56576" lon="6.20409">
        <ele>868</ele>
        <time>2021-06-10T08:24:51.876Z</time>
      </trkpt>
      <trkpt lat="44.56602" lon="6.20421">
        <ele>868</ele>
        <time>2021-06-10T08:25:03.100Z</time>
      </trkpt>
      <trkpt lat="44.56611" lon="6.20428">
        <ele>869.20001220703</ele>
        <time>2021-06-10T08:25:14.328Z</time>
      </trkpt>
      <trkpt lat="44.56625" lon="6.20435">
        <ele>869.20001220703</ele>
        <time>2021-06-10T08:25:25.561Z</time>
      </trkpt>
      <trkpt lat="44.56655" lon="6.20437">
        <ele>871.20001220703</ele>
        <time>2021-06-10T08:25:36.803Z</time>
      </trkpt>
      <trkpt lat="44.56667" lon="6.20437">
        <ele>871.20001220703</ele>
        <time>2021-06-10T08:25:48.049Z</time>
      </trkpt>
      <trkpt lat="44.56676" lon="6.20436">
        <ele>872.59997558594</ele>
        <time>2021-06-10T08:25:59.298Z</time>
      </trkpt>
      <trkpt lat="44.56679" lon="6.20437">
        <ele>872.59997558594</ele>
        <time>2021-06-10T08:26:10.548Z</time>
      </trkpt>
      <trkpt lat="44.56682" lon="6.20444">
        <ele>872.59997558594</ele>
        <time>2021-06-10T08:26:21.800Z</time>
      </trkpt>
      <trkpt lat="44.56691" lon="6.20482">
        <ele>872.59997558594</ele>
        <time>2021-06-10T08:26:33.062Z</time>
      </trkpt>
      <trkpt lat="44.56687" lon="6.20488">
        <ele>874.59997558594</ele>
        <time>2021-06-10T08:26:44.326Z</time>
      </trkpt>
      <trkpt lat="44.56646" lon="6.20506">
        <ele>874.59997558594</ele>
        <time>2021-06-10T08:26:55.604Z</time>
      </trkpt>
      <trkpt lat="44.56633" lon="6.20509">
        <ele>871.79998779297</ele>
        <time>2021-06-10T08:27:06.886Z</time>
      </trkpt>
      <trkpt lat="44.56626" lon="6.20509">
        <ele>871.79998779297</ele>
        <time>2021-06-10T08:27:18.170Z</time>
      </trkpt>
      <trkpt lat="44.56591" lon="6.20499">
        <ele>869.40002441406</ele>
        <time>2021-06-10T08:27:29.466Z</time>
      </trkpt>
      <trkpt lat="44.56577" lon="6.20498">
        <ele>869.40002441406</ele>
        <time>2021-06-10T08:27:40.767Z</time>
      </trkpt>
      <trkpt lat="44.56535" lon="6.20501">
        <ele>867.79998779297</ele>
        <time>2021-06-10T08:27:52.081Z</time>
      </trkpt>
      <trkpt lat="44.56526" lon="6.20488">
        <ele>867.79998779297</ele>
        <time>2021-06-10T08:28:03.400Z</time>
      </trkpt>
      <trkpt lat="44.56528" lon="6.20474">
        <ele>867</ele>
        <time>2021-06-10T08:28:14.722Z</time>
      </trkpt>
      <trkpt lat="44.56533" lon="6.20471">
        <ele>867</ele>
        <time>2021-06-10T08:28:26.046Z</time>
      </trkpt>
    </trkseg>
  </trk>
</gpx>